ftp/pub/palmer/observations_modified/2019/October/original_files/AR191013_BASE.txt

Download

Sample DateTime	Unit Id	WS Avg 2min	WD Avg 2min	WGS 10min	WGD 10min	Air Temp	Rel Humidity	Dew Point	Pyranometer	Quantum	Air Pressure	Snow Level	Rainfall	PW Current	Visibility	CBase 1	CBase 2	CBase 3	Vert Vis
2019/10/13 00:00:00	BASE	14.02	246	16.57	240	-7.9	92	-8.9	0	0	1002.5	NA	0.0000		9999	2400	0	0	0
2019/10/13 00:01:00	BASE	13.57	244	16.57	240	-7.9	92	-8.9	0	0	1002.5	NA	0.0000		9999	2430	0	0	0
2019/10/13 00:02:00	BASE	12.74	243	16.57	240	-7.9	92	-9.0	0	0	1002.5	NA	0.0000		9999	2330	0	0	0
2019/10/13 00:03:00	BASE	12.00	245	16.57	240	-7.9	92	-9.0	0	0	1002.4	NA	0.0000		9999	2300	0	0	0
2019/10/13 00:04:00	BASE	12.48	247	16.57	240	-7.9	92	-9.0	0	0	1002.5	NA	0.0000		9999	2260	0	0	0
2019/10/13 00:05:00	BASE	12.72	247	16.57	240	-8.0	92	-9.0	0	0	1002.5	NA	0.0000		9999	0	0	0	0
2019/10/13 00:06:00	BASE	12.54	248	16.57	240	-8.0	92	-9.1	0	0	1002.5	NA	0.0000		9999	0	0	0	0
2019/10/13 00:07:00	BASE	11.94	249	15.90	246	-8.1	92	-9.1	0	0	1002.5	NA	0.0000		9999	0	0	0	0
2019/10/13 00:08:00	BASE	11.23	246	15.90	246	-8.1	92	-9.2	0	0	1002.5	NA	0.0000		9999	0	0	0	0
2019/10/13 00:09:00	BASE	11.15	244	15.69	247	-8.2	92	-9.2	0	0	1002.5	NA	0.0000		9999	0	0	0	0
2019/10/13 00:10:00	BASE	11.69	245	15.23	244	-8.2	92	-9.3	0	0	1002.5	NA	0.0000		9999	0	0	0	0
2019/10/13 00:11:00	BASE	11.65	247	15.23	244	-8.2	92	-9.3	0	0	1002.5	NA	0.0000		9999	0	0	0	0
2019/10/13 00:12:00	BASE	11.71	249	15.23	244	-8.2	92	-9.3	0	0	1002.5	NA	0.0000		9999	0	0	0	0
2019/10/13 00:13:01	BASE	12.55	250	15.23	244	-8.3	92	-9.3	0	0	1002.5	NA	0.0000		9999	0	0	0	0
2019/10/13 00:14:00	BASE	12.43	248	15.23	244	-8.3	92	-9.3	0	0	1002.5	NA	0.0000		9999	0	0	0	0
2019/10/13 00:15:00	BASE	11.05	245	14.56	255	-8.3	92	-9.4	0	0	1002.5	NA	0.0000		9999	0	0	0	0
2019/10/13 00:16:00	BASE	10.39	247	14.56	255	-8.3	92	-9.4	0	0	1002.5	NA	0.0000		9999	0	0	0	0
2019/10/13 00:17:00	BASE	10.88	249	14.56	255	-8.3	92	-9.4	0	0	1002.5	NA	0.0000		9999	0	0	0	0
2019/10/13 00:18:00	BASE	11.20	251	14.56	255	-8.3	92	-9.4	0	0	1002.5	NA	0.0000		9999	0	0	0	0
2019/10/13 00:19:00	BASE	10.64	250	14.56	255	-8.4	92	-9.4	0	0	1002.5	NA	0.0000		9999	0	0	0	0
2019/10/13 00:20:00	BASE	10.30	250	14.56	255	-8.4	92	-9.4	0	0	1002.5	NA	0.0000		9999	0	0	0	0
2019/10/13 00:21:00	BASE	10.65	251	14.56	255	-8.4	93	-9.4	0	0	1002.6	NA	0.0000		9999	0	0	0	0
2019/10/13 00:22:00	BASE	11.09	249	14.56	255	-8.4	93	-9.4	0	0	1002.6	NA	0.0000		9999	0	0	0	0
2019/10/13 00:23:00	BASE	10.92	246	13.48	246	-8.4	93	-9.3	0	0	1002.6	NA	0.0000		9999	0	0	0	0
2019/10/13 00:24:00	BASE	10.48	245	13.02	256	-8.4	93	-9.3	0	0	1002.7	NA	0.0000		9999	0	0	0	0
2019/10/13 00:25:00	BASE	11.83	250	14.71	253	-8.4	93	-9.3	0	0	1002.6	NA	0.0000		9999	1280	0	0	0
2019/10/13 00:26:00	BASE	13.16	249	14.71	252	-8.4	93	-9.3	0	0	1002.7	NA	0.0000		9999	1250	0	0	0
2019/10/13 00:27:00	BASE	12.12	243	14.71	252	-8.4	93	-9.2	0	0	1002.7	NA	0.0000		9999	0	0	0	0
2019/10/13 00:28:00	BASE	11.77	245	15.69	252	-8.4	94	-9.2	0	0	1002.7	NA	0.0000		9999	0	0	0	0
2019/10/13 00:29:00	BASE	13.51	248	15.74	247	-8.4	94	-9.2	0	0	1002.7	NA	0.0000		9999	1350	0	0	0
2019/10/13 00:30:00	BASE	14.61	245	16.15	246	-8.4	94	-9.2	0	0	1002.7	NA	0.0000		9999	1480	0	0	0
2019/10/13 00:31:00	BASE	14.90	247	16.36	249	-8.5	94	-9.3	0	0	1002.7	NA	0.0000		9999	1380	0	0	0
2019/10/13 00:32:00	BASE	15.13	249	16.36	249	-8.5	94	-9.3	0	0	1002.7	NA	0.0000		9999	1350	0	0	0
2019/10/13 00:33:00	BASE	14.50	251	16.36	249	-8.5	94	-9.3	0	0	1002.7	NA	0.0000		9999	1380	2300	0	0
2019/10/13 00:34:00	BASE	12.73	249	16.36	249	-8.5	94	-9.3	0	0	1002.8	NA	0.0000		9999	1380	2330	0	0
2019/10/13 00:35:00	BASE	11.06	248	16.36	249	-8.5	94	-9.3	0	0	1002.8	NA	0.0000		9999	1840	0	0	0
2019/10/13 00:36:00	BASE	11.10	250	16.36	249	-8.5	94	-9.3	0	0	1002.8	NA	0.0000		9999	1310	2000	0	0
2019/10/13 00:37:00	BASE	12.84	248	16.36	249	-8.5	94	-9.3	0	0	1002.8	NA	0.0000		9999	1280	2130	0	0
2019/10/13 00:38:00	BASE	14.80	247	16.67	250	-8.5	94	-9.3	0	0	1002.8	NA	0.0000		9999	1280	1900	0	0
2019/10/13 00:39:00	BASE	15.21	247	16.67	250	-8.5	94	-9.3	0	0	1002.8	NA	0.0000		9999	1150	1940	0	0
2019/10/13 00:40:00	BASE	14.86	247	16.67	250	-8.5	94	-9.3	0	0	1002.8	NA	0.0000		9999	1180	1770	2300	0
2019/10/13 00:41:00	BASE	14.75	246	16.67	250	-8.5	94	-9.2	0	0	1002.8	NA	0.0000		9999	1480	2170	0	0
2019/10/13 00:42:00	BASE	13.96	245	16.67	250	-8.5	95	-9.2	0	0	1002.8	NA	0.0000		9999	1280	2260	0	0
2019/10/13 00:43:00	BASE	13.50	245	16.67	250	-8.5	95	-9.2	0	0	1002.8	NA	0.0000		9999	1310	2230	0	0
2019/10/13 00:44:00	BASE	14.09	243	16.67	250	-8.5	95	-9.2	0	0	1002.8	NA	0.0000		9999	2200	0	0	0
2019/10/13 00:45:00	BASE	14.29	245	16.67	250	-8.5	95	-9.2	0	0	1002.8	NA	0.0000		9999	1350	2300	0	0
2019/10/13 00:46:00	BASE	15.41	246	18.21	246	-8.5	95	-9.2	0	0	1002.8	NA	0.0000		9999	1280	2260	0	0
2019/10/13 00:47:00	BASE	15.67	246	18.21	246	-8.5	95	-9.2	0	0	1002.8	NA	0.0000		9999	1250	2300	0	0
2019/10/13 00:48:00	BASE	14.67	249	18.21	246	-8.5	95	-9.2	0	0	1002.8	NA	0.0000		9999	1210	2330	0	0
2019/10/13 00:49:00	BASE	15.46	248	18.21	246	-8.5	95	-9.2	0	0	1002.8	NA	0.0000		9999	1210	0	0	0
2019/10/13 00:50:00	BASE	16.19	246	18.21	246	-8.5	95	-9.2	0	0	1002.8	NA	0.0000		9999	1280	2300	0	0
2019/10/13 00:51:00	BASE	15.00	244	18.21	246	-8.5	95	-9.2	0	0	1002.8	NA	0.0000		9999	1280	2260	0	0
2019/10/13 00:52:00	BASE	14.12	245	18.21	246	-8.5	95	-9.1	0	0	1002.8	NA	0.0000		9999	1310	2300	0	0
2019/10/13 00:53:00	BASE	14.75	247	18.21	246	-8.5	95	-9.1	0	0	1002.8	NA	0.0000		9999	1310	2300	0	0
2019/10/13 00:54:00	BASE	15.02	248	18.21	246	-8.5	95	-9.1	0	0	1002.9	NA	0.0000		9999	1350	2300	0	0
2019/10/13 00:55:00	BASE	14.95	247	18.21	246	-8.5	95	-9.2	0	0	1002.9	NA	0.0000		9999	1250	2330	0	0
2019/10/13 00:56:00	BASE	14.83	245	17.44	249	-8.5	95	-9.2	0	0	1002.9	NA	0.0000		9999	1310	2330	0	0
2019/10/13 00:57:00	BASE	14.34	248	17.44	249	-8.6	95	-9.2	0	0	1002.9	NA	0.0000		9999	1310	2400	0	0
2019/10/13 00:58:00	BASE	14.74	248	17.44	249	-8.6	95	-9.2	0	0	1002.9	NA	0.0000		9999	1250	0	0	0
2019/10/13 00:59:00	BASE	14.79	245	17.29	243	-8.6	95	-9.3	0	0	1002.9	NA	0.0000		9999	1380	2360	0	0
2019/10/13 01:00:00	BASE	13.86	244	17.08	248	-8.6	95	-9.3	0	0	1002.9	NA	0.0000		9999	1380	2360	0	0
2019/10/13 01:01:00	BASE	13.19	241	17.08	248	-8.6	95	-9.3	0	0	1003.0	NA	0.0000		9999	1310	2430	0	0
2019/10/13 01:02:00	BASE	13.33	242	17.08	248	-8.6	95	-9.2	0	0	1003.0	NA	0.0000		9999	1350	0	0	0
2019/10/13 01:03:00	BASE	14.19	247	16.77	231	-8.6	95	-9.2	0	0	1002.9	NA	0.0000		9999	1380	2400	0	0
2019/10/13 01:04:00	BASE	14.67	247	16.77	231	-8.6	95	-9.3	0	0	1002.9	NA	0.0000		9999	1380	0	0	0
2019/10/13 01:05:00	BASE	14.34	248	16.77	231	-8.6	95	-9.3	0	0	1003.0	NA	0.0000		9999	1380	2400	0	0
2019/10/13 01:06:00	BASE	13.52	248	16.77	231	-8.7	95	-9.3	0	0	1003.0	NA	0.0000		9999	1210	2490	0	0
2019/10/13 01:07:00	BASE	13.08	247	16.77	231	-8.7	95	-9.4	0	0	1003.0	NA	0.0000		9999	1480	0	0	0
2019/10/13 01:08:00	BASE	13.07	245	16.77	231	-8.7	95	-9.4	0	0	1003.0	NA	0.0000		9999	1900	2490	0	0
2019/10/13 01:09:00	BASE	12.42	243	16.77	231	-8.7	95	-9.4	0	0	1003.1	NA	0.0000		9999	1310	2560	0	0
2019/10/13 01:10:00	BASE	11.20	241	16.77	231	-8.7	95	-9.4	0	0	1003.2	NA	0.0000		9999	1310	0	0	0
2019/10/13 01:11:00	BASE	10.56	241	15.95	246	-8.7	95	-9.4	0	0	1003.2	NA	0.0000		9999	1350	2070	0	0
2019/10/13 01:12:00	BASE	11.42	242	15.79	248	-8.7	95	-9.4	0	0	1003.2	NA	0.0000		9999	1410	2100	0	0
2019/10/13 01:13:00	BASE	13.16	242	15.54	247	-8.7	95	-9.4	0	0	1003.2	NA	0.0000		9999	1250	0	0	0
2019/10/13 01:14:00	BASE	13.45	240	15.54	247	-8.7	94	-9.4	0	0	1003.2	NA	0.0000		9999	1350	0	0	0
2019/10/13 01:15:00	BASE	12.45	241	15.54	247	-8.7	94	-9.5	0	0	1003.2	NA	0.0000		9999	1310	0	0	0
2019/10/13 01:16:00	BASE	12.49	243	15.54	247	-8.7	94	-9.5	0	0	1003.3	NA	0.0000		9999	1310	0	0	0
2019/10/13 01:17:00	BASE	12.47	243	15.54	247	-8.7	94	-9.5	0	0	1003.3	NA	0.0000		9999	1280	0	0	0
2019/10/13 01:18:00	BASE	12.59	243	15.54	247	-8.7	94	-9.5	0	0	1003.3	NA	0.0000		9999	1210	0	0	0
2019/10/13 01:19:00	BASE	12.06	244	15.54	247	-8.7	94	-9.5	0	0	1003.3	NA	0.0000		9999	1350	0	0	0
2019/10/13 01:20:00	BASE	11.42	242	15.54	247	-8.7	94	-9.5	0	0	1003.3	NA	0.0000		9999	1350	0	0	0
2019/10/13 01:21:00	BASE	11.70	240	15.54	247	-8.7	94	-9.5	0	0	1003.3	NA	0.0000		9999	1310	0	0	0
2019/10/13 01:22:00	BASE	11.38	244	15.54	247	-8.7	94	-9.5	0	0	1003.3	NA	0.0000		9999	1280	0	0	0
2019/10/13 01:23:00	BASE	11.96	243	15.18	255	-8.7	94	-9.5	0	0	1003.2	NA	0.0000		9999	1280	0	0	0
2019/10/13 01:24:00	BASE	12.60	238	15.18	255	-8.7	94	-9.5	0	0	1003.3	NA	0.0000		9999	1280	0	0	0
2019/10/13 01:25:00	BASE	12.61	236	15.18	255	-8.7	94	-9.4	0	0	1003.3	NA	0.0000		9999	1280	0	0	0
2019/10/13 01:26:00	BASE	11.92	236	15.18	255	-8.6	94	-9.4	0	0	1003.3	NA	0.0000		9999	1250	0	0	0
2019/10/13 01:27:00	BASE	11.74	238	15.18	255	-8.6	95	-9.3	0	0	1003.3	NA	0.0000		9999	1280	0	0	0
2019/10/13 01:28:00	BASE	11.99	240	15.18	255	-8.6	95	-9.3	0	0	1003.3	NA	0.0000		9999	1250	0	0	0
2019/10/13 01:29:00	BASE	11.28	240	15.18	255	-8.6	95	-9.2	0	0	1003.3	NA	0.0000		9999	1310	1900	0	0
2019/10/13 01:30:00	BASE	11.32	235	15.18	255	-8.6	95	-9.2	0	0	1003.3	NA	0.0000		9999	1250	0	0	0
2019/10/13 01:31:00	BASE	11.29	231	15.18	255	-8.6	95	-9.2	0	0	1003.3	NA	0.0000		9999	1210	0	0	0
2019/10/13 01:32:00	BASE	9.92	237	15.18	255	-8.6	95	-9.2	0	0	1003.4	NA	0.0000		9999	1250	0	0	0
2019/10/13 01:33:00	BASE	10.19	239	14.82	245	-8.6	95	-9.2	0	0	1003.4	NA	0.0000		9999	1250	0	0	0
2019/10/13 01:34:00	BASE	10.57	236	14.35	241	-8.6	95	-9.2	0	0	1003.4	NA	0.0000		9999	1250	0	0	0
2019/10/13 01:35:00	BASE	9.46	240	13.58	242	-8.6	95	-9.2	0	0	1003.4	NA	0.0000		9999	1180	0	0	0
2019/10/13 01:36:00	BASE	9.65	238	13.58	242	-8.6	95	-9.2	0	0	1003.4	NA	0.0000		9999	1210	0	0	0
2019/10/13 01:37:00	BASE	10.25	236	13.58	242	-8.6	95	-9.2	0	0	1003.4	NA	0.0000		9999	1380	0	0	0
2019/10/13 01:38:00	BASE	11.10	240	13.58	237	-8.6	95	-9.2	0	0	1003.4	NA	0.0000		9999	1250	0	0	0
2019/10/13 01:39:00	BASE	11.46	240	13.58	237	-8.6	95	-9.2	0	0	1003.4	NA	0.0000		9999	1350	0	0	0
2019/10/13 01:40:00	BASE	10.99	243	13.58	237	-8.6	95	-9.2	0	0	1003.4	NA	0.0000		9999	1250	0	0	0
2019/10/13 01:41:00	BASE	11.53	244	14.25	245	-8.6	95	-9.3	0	0	1003.4	NA	0.0000		9999	1440	0	0	0
2019/10/13 01:42:00	BASE	11.57	242	14.25	245	-8.6	95	-9.3	0	0	1003.4	NA	0.0000		9999	1350	0	0	0
2019/10/13 01:43:00	BASE	10.89	239	14.25	245	-8.6	95	-9.3	0	0	1003.4	NA	0.0000		9999	1410	0	0	0
2019/10/13 01:44:00	BASE	10.19	235	14.25	245	-8.6	95	-9.3	0	0	1003.4	NA	0.0000		9999	1350	0	0	0
2019/10/13 01:45:00	BASE	10.61	232	14.25	245	-8.6	95	-9.3	0	0	1003.3	NA	0.0000		9999	1380	0	0	0
2019/10/13 01:46:00	BASE	11.17	230	14.25	245	-8.6	95	-9.3	0	0	1003.4	NA	0.0000		9999	1670	0	0	0
2019/10/13 01:47:00	BASE	10.48	229	14.25	245	-8.6	95	-9.3	0	0	1003.4	NA	0.0000		9999	1670	0	0	0
2019/10/13 01:48:00	BASE	10.43	228	14.25	245	-8.6	95	-9.3	0	0	1003.4	NA	0.0000		9999	1710	0	0	0
2019/10/13 01:49:00	BASE	11.28	228	14.51	231	-8.6	95	-9.3	0	0	1003.4	NA	0.0000		9999	1770	0	0	0
2019/10/13 01:50:00	BASE	12.22	231	14.51	231	-8.6	94	-9.3	0	0	1003.4	NA	0.0000		9999	1770	0	0	0
2019/10/13 01:51:00	BASE	12.21	232	14.51	231	-8.6	94	-9.4	0	0	1003.4	NA	0.0000		9999	1710	0	0	0
2019/10/13 01:52:00	BASE	11.78	235	14.51	231	-8.6	94	-9.4	0	0	1003.4	NA	0.0000		9999	1510	0	0	0
2019/10/13 01:53:00	BASE	12.05	235	14.51	231	-8.6	94	-9.4	0	0	1003.4	NA	0.0000		9999	1570	0	0	0
2019/10/13 01:54:00	BASE	12.15	230	14.51	231	-8.6	93	-9.5	0	0	1003.4	NA	0.0000		9999	1670	0	0	0
2019/10/13 01:55:00	BASE	12.14	227	14.51	231	-8.6	93	-9.5	0	0	1003.4	NA	0.0000		9999	1710	0	0	0
2019/10/13 01:56:00	BASE	12.43	228	14.51	231	-8.6	93	-9.6	0	0	1003.4	NA	0.0000		9999	1640	0	0	0
2019/10/13 01:57:00	BASE	12.54	228	14.51	231	-8.6	93	-9.6	0	0	1003.4	NA	0.0000		9999	1710	0	0	0
2019/10/13 01:58:00	BASE	12.32	230	14.51	231	-8.6	92	-9.6	0	0	1003.4	NA	0.0000		9999	1640	0	0	0
2019/10/13 01:59:00	BASE	11.85	231	13.99	225	-8.6	92	-9.7	0	0	1003.4	NA	0.0000		9999	1640	0	0	0
2019/10/13 02:00:00	BASE	11.48	232	13.99	225	-8.6	92	-9.7	0	0	1003.4	NA	0.0000		9999	1770	0	0	0
2019/10/13 02:01:00	BASE	12.50	235	15.18	239	-8.6	91	-9.7	0	0	1003.4	NA	0.0000		9999	1740	0	0	0
2019/10/13 02:02:00	BASE	13.25	238	15.18	239	-8.6	91	-9.8	0	0	1003.4	NA	0.0000		9999	1610	0	0	0
2019/10/13 02:03:00	BASE	13.02	239	15.18	239	-8.6	91	-9.8	0	0	1003.4	NA	0.0000		9999	1570	0	0	0
2019/10/13 02:04:00	BASE	12.99	237	15.18	239	-8.6	91	-9.9	0	0	1003.4	NA	0.0000		9999	1640	0	0	0
2019/10/13 02:05:00	BASE	12.41	240	15.18	239	-8.7	91	-9.9	0	0	1003.4	NA	0.0000		9999	1540	0	0	0
2019/10/13 02:06:00	BASE	12.56	242	16.41	237	-8.7	90	-10.0	0	0	1003.4	NA	0.0000		9999	1610	0	0	0
2019/10/13 02:07:00	BASE	13.47	242	16.41	237	-8.7	90	-10.0	0	0	1003.4	NA	0.0000		9999	1670	0	0	0
2019/10/13 02:08:00	BASE	13.49	243	16.41	237	-8.7	90	-10.0	0	0	1003.4	NA	0.0000		9999	1740	0	0	0
2019/10/13 02:09:00	BASE	13.40	243	16.41	237	-8.7	90	-10.1	0	0	1003.4	NA	0.0000		9999	1640	0	0	0
2019/10/13 02:10:00	BASE	13.58	247	16.41	237	-8.7	90	-10.1	0	0	1003.4	NA	0.0000		9999	1670	0	0	0
2019/10/13 02:11:00	BASE	12.67	248	16.41	237	-8.8	90	-10.1	0	0	1003.5	NA	0.0000		9999	1510	0	0	0
2019/10/13 02:12:00	BASE	12.50	244	16.41	237	-8.8	90	-10.1	0	0	1003.5	NA	0.0000		9999	1670	0	0	0
2019/10/13 02:13:00	BASE	13.44	241	16.41	237	-8.8	90	-10.1	0	0	1003.5	NA	0.0000		9999	1440	0	0	0
2019/10/13 02:14:00	BASE	12.73	237	16.41	237	-8.8	90	-10.1	0	0	1003.5	NA	0.0000		9999	1480	0	0	0
2019/10/13 02:15:00	BASE	11.09	239	16.41	237	-8.8	90	-10.1	0	0	1003.5	NA	0.0000		9999	1510	0	0	0
2019/10/13 02:16:00	BASE	11.37	244	15.79	245	-8.8	90	-10.1	0	0	1003.5	NA	0.0000		9999	1610	0	0	0
2019/10/13 02:17:00	BASE	12.93	245	15.74	227	-8.8	90	-10.1	0	0	1003.5	NA	0.0000		9999	1640	0	0	0
2019/10/13 02:18:00	BASE	13.17	247	15.95	239	-8.8	90	-10.1	0	0	1003.5	NA	0.0000		9999	1610	0	0	0
2019/10/13 02:19:00	BASE	12.54	246	15.95	239	-8.8	90	-10.1	0	0	1003.5	NA	0.0000		9999	1610	0	0	0
2019/10/13 02:20:00	BASE	12.76	247	15.95	239	-8.8	90	-10.1	0	0	1003.4	NA	0.0000		9999	1510	0	0	0
2019/10/13 02:21:00	BASE	12.68	247	15.95	239	-8.8	90	-10.1	0	0	1003.5	NA	0.0000		9999	1510	0	0	0
2019/10/13 02:22:00	BASE	11.91	247	15.95	239	-8.8	90	-10.1	0	0	1003.5	NA	0.0000		9999	1640	0	0	0
2019/10/13 02:23:00	BASE	12.26	245	15.95	239	-8.8	90	-10.1	0	0	1003.5	NA	0.0000		9999	1640	0	0	0
2019/10/13 02:24:00	BASE	12.72	243	15.95	239	-8.8	90	-10.1	0	0	1003.5	NA	0.0000		9999	1410	0	0	0
2019/10/13 02:25:00	BASE	12.38	240	15.95	239	-8.8	90	-10.1	0	0	1003.5	NA	0.0000		9999	1610	0	0	0
2019/10/13 02:26:00	BASE	11.84	236	15.95	239	-8.8	90	-10.1	0	0	1003.5	NA	0.0000		9999	1800	0	0	0
2019/10/13 02:27:00	BASE	11.28	237	15.95	239	-8.8	90	-10.1	0	0	1003.5	NA	0.0000		9999	1840	0	0	0
2019/10/13 02:28:00	BASE	11.84	240	14.56	250	-8.8	90	-10.1	0	0	1003.5	NA	0.0000		9999	1770	0	0	0
2019/10/13 02:29:00	BASE	12.14	238	14.56	250	-8.8	90	-10.1	0	0	1003.5	NA	0.0000		9999	1800	0	0	0
2019/10/13 02:30:00	BASE	11.50	236	13.94	242	-8.8	90	-10.1	0	0	1003.5	NA	0.0000		9999	1480	0	0	0
2019/10/13 02:31:00	BASE	11.54	233	13.94	242	-8.8	90	-10.1	0	0	1003.5	NA	0.0000		9999	1770	0	0	0
2019/10/13 02:32:00	BASE	12.18	231	14.30	233	-8.8	90	-10.1	0	0	1003.5	NA	0.0000		9999	1710	0	0	0
2019/10/13 02:33:00	BASE	12.64	231	14.30	233	-8.8	90	-10.1	0	0	1003.5	NA	0.0000		9999	1770	0	0	0
2019/10/13 02:34:00	BASE	12.15	231	14.30	233	-8.8	90	-10.1	0	0	1003.5	NA	0.0000		9999	1510	0	0	0
2019/10/13 02:35:00	BASE	11.47	232	14.30	233	-8.8	90	-10.2	0	0	1003.5	NA	0.0000		9999	1870	0	0	0
2019/10/13 02:36:00	BASE	11.35	232	14.30	233	-8.8	90	-10.2	0	0	1003.5	NA	0.0000		9999	1480	1840	0	0
2019/10/13 02:37:00	BASE	12.32	232	14.92	233	-8.8	89	-10.2	0	0	1003.5	NA	0.0000		9999	1640	0	0	0
2019/10/13 02:38:00	BASE	12.86	232	14.92	233	-8.8	89	-10.2	0	0	1003.5	NA	0.0000		9999	1740	0	0	0
2019/10/13 02:39:00	BASE	12.00	234	14.92	233	-8.8	89	-10.3	0	0	1003.5	NA	0.0000		9999	1800	0	0	0
2019/10/13 02:40:00	BASE	11.54	234	14.92	233	-8.8	89	-10.3	0	0	1003.5	NA	0.0000		9999	1710	0	0	0
2019/10/13 02:41:00	BASE	11.09	233	14.92	233	-8.8	89	-10.3	0	0	1003.5	NA	0.0000		9999	1640	0	0	0
2019/10/13 02:42:00	BASE	10.76	234	14.92	233	-8.8	89	-10.2	0	0	1003.5	NA	0.0000		9999	1710	0	0	0
2019/10/13 02:43:00	BASE	12.20	235	15.38	230	-8.7	89	-10.2	0	0	1003.5	NA	0.0000		9999	1800	0	0	0
2019/10/13 02:44:00	BASE	12.43	236	15.38	230	-8.7	89	-10.2	0	0	1003.5	NA	0.0000		9999	1710	0	0	0
2019/10/13 02:45:00	BASE	10.78	240	15.38	230	-8.7	89	-10.2	0	0	1003.5	NA	0.0000		9999	1840	0	0	0
2019/10/13 02:46:00	BASE	11.03	246	15.38	230	-8.7	89	-10.2	0	0	1003.5	NA	0.0000		9999	1640	0	0	0
2019/10/13 02:47:00	BASE	12.02	247	15.38	230	-8.7	89	-10.2	0	0	1003.5	NA	0.0000		9999	1540	0	0	0
2019/10/13 02:48:00	BASE	11.85	240	15.38	230	-8.7	89	-10.2	0	0	1003.5	NA	0.0000		9999	1670	0	0	0
2019/10/13 02:49:00	BASE	12.51	236	15.38	230	-8.7	89	-10.2	0	0	1003.5	NA	0.0000		9999	1740	0	0	0
2019/10/13 02:50:00	BASE	12.51	235	15.38	230	-8.7	89	-10.2	0	0	1003.5	NA	0.0000		9999	1740	0	0	0
2019/10/13 02:51:00	BASE	11.81	234	15.38	230	-8.7	89	-10.2	0	0	1003.5	NA	0.0000		9999	1770	0	0	0
2019/10/13 02:52:00	BASE	11.45	237	15.38	230	-8.7	89	-10.2	0	0	1003.5	NA	0.0000		9999	1610	0	0	0
2019/10/13 02:53:00	BASE	11.41	241	14.92	236	-8.7	89	-10.2	0	0	1003.5	NA	0.0000		9999	1640	0	0	0
2019/10/13 02:54:00	BASE	11.90	237	14.92	236	-8.7	89	-10.2	0	0	1003.5	NA	0.0000		9999	1640	0	0	0
2019/10/13 02:55:00	BASE	11.13	238	14.92	236	-8.7	89	-10.2	0	0	1003.5	NA	0.0000		9999	1640	0	0	0
2019/10/13 02:56:00	BASE	11.16	244	14.92	236	-8.7	89	-10.2	0	0	1003.5	NA	0.0000		9999	1540	0	0	0
2019/10/13 02:57:00	BASE	12.34	246	14.92	236	-8.7	89	-10.2	0	0	1003.5	NA	0.0000		9999	1670	0	0	0
2019/10/13 02:58:00	BASE	12.41	247	14.92	236	-8.7	89	-10.2	0	0	1003.5	NA	0.0000		9999	1380	0	0	0
2019/10/13 02:59:00	BASE	12.24	252	14.30	239	-8.8	89	-10.2	0	0	1003.5	NA	0.0000		9999	1410	0	0	0
2019/10/13 03:00:00	BASE	12.13	254	13.79	245	-8.8	89	-10.3	0	0	1003.5	NA	0.0000		9999	1480	0	0	0
2019/10/13 03:01:00	BASE	11.84	249	13.79	245	-8.8	89	-10.3	0	0	1003.6	NA	0.0000		9999	1510	0	0	0
2019/10/13 03:02:00	BASE	11.87	244	13.79	245	-8.9	90	-10.3	0	0	1003.5	NA	0.0000		9999	1410	0	0	0
2019/10/13 03:03:00	BASE	11.05	245	13.79	245	-8.9	90	-10.3	0	0	1003.6	NA	0.0000		9999	1510	0	0	0
2019/10/13 03:04:00	BASE	10.78	249	13.79	245	-8.9	90	-10.2	0	0	1003.6	NA	0.0000		9999	1510	0	0	0
2019/10/13 03:05:00	BASE	11.74	250	13.79	245	-8.9	90	-10.2	0	0	1003.6	NA	0.0000		9999	1510	0	0	0
2019/10/13 03:06:00	BASE	11.81	251	13.79	245	-8.9	90	-10.2	0	0	1003.6	NA	0.0000		9999	1670	0	0	0
2019/10/13 03:07:00	BASE	11.08	255	13.68	250	-8.9	90	-10.2	0	0	1003.6	NA	0.0000		9999	1440	0	0	0
2019/10/13 03:08:00	BASE	10.89	256	13.68	250	-8.9	90	-10.2	0	0	1003.6	NA	0.0000		9999	1410	0	0	0
2019/10/13 03:09:00	BASE	11.12	251	13.63	240	-8.9	90	-10.2	0	0	1003.6	NA	0.0000		9999	1410	0	0	0
2019/10/13 03:10:00	BASE	10.55	248	13.63	240	-8.9	90	-10.2	0	0	1003.6	NA	0.0000		9999	1610	0	0	0
2019/10/13 03:11:00	BASE	10.30	246	13.63	240	-8.9	90	-10.2	0	0	1003.6	NA	0.0000		9999	1540	0	0	0
2019/10/13 03:12:00	BASE	9.70	250	13.17	246	-8.9	90	-10.2	0	0	1003.6	NA	0.0000		9999	1480	0	0	0
2019/10/13 03:13:00	BASE	8.68	255	13.17	246	-8.9	90	-10.2	0	0	1003.6	NA	0.0000		9999	1610	0	0	0
2019/10/13 03:14:00	BASE	8.98	253	13.17	246	-8.9	90	-10.2	0	0	1003.6	NA	0.0000		9999	1510	0	0	0
2019/10/13 03:15:00	BASE	10.34	248	13.02	249	-8.8	90	-10.2	0	0	1003.6	NA	0.0000		9999	1480	0	0	0
2019/10/13 03:16:00	BASE	10.11	250	13.02	249	-8.8	90	-10.2	0	0	1003.6	NA	0.0000		9999	1540	0	0	0
2019/10/13 03:17:00	BASE	8.83	248	13.02	249	-8.8	90	-10.2	0	0	1003.6	NA	0.0000		9999	1540	0	0	0
2019/10/13 03:18:00	BASE	8.64	246	13.02	249	-8.8	90	-10.2	0	0	1003.6	NA	0.0000		9999	1570	0	0	0
2019/10/13 03:19:00	BASE	7.98	254	12.24	242	-8.8	90	-10.2	0	0	1003.6	NA	0.0000		9999	1380	0	0	0
2019/10/13 03:20:00	BASE	7.89	258	12.24	242	-8.8	90	-10.2	0	0	1003.6	NA	0.0000		9999	1510	0	0	0
2019/10/13 03:21:00	BASE	8.73	251	12.24	242	-8.8	90	-10.2	0	0	1003.6	NA	0.0000		9999	1510	0	0	0
2019/10/13 03:22:00	BASE	8.78	245	12.24	242	-8.8	90	-10.2	0	0	1003.6	NA	0.0000		9999	1610	0	0	0
2019/10/13 03:23:00	BASE	8.79	242	12.24	242	-8.8	90	-10.2	0	0	1003.6	NA	0.0000		9999	1440	0	0	0
2019/10/13 03:24:00	BASE	8.87	243	12.24	242	-8.9	90	-10.2	0	0	1003.6	NA	0.0000		9999	1440	0	0	0
2019/10/13 03:25:00	BASE	8.76	246	10.60	243	-8.9	90	-10.2	0	0	1003.6	NA	0.0000		9999	1410	0	0	0
2019/10/13 03:26:00	BASE	8.54	249	10.60	243	-8.9	90	-10.2	0	0	1003.7	NA	0.0000		9999	1410	0	0	0
2019/10/13 03:27:00	BASE	8.93	248	12.04	239	-8.8	90	-10.2	0	0	1003.7	NA	0.0000		9999	1350	0	0	0
2019/10/13 03:28:01	BASE	9.96	243	12.04	239	-8.8	90	-10.2	0	0	1003.7	NA	0.0000		9999	1480	0	0	0
2019/10/13 03:29:00	BASE	10.48	244	12.55	244	-8.8	90	-10.1	0	0	1003.6	NA	0.0000		9999	1540	0	0	0
2019/10/13 03:30:00	BASE	10.88	246	12.55	244	-8.8	90	-10.1	0	0	1003.6	NA	0.0000		9999	1570	0	0	0
2019/10/13 03:31:00	BASE	9.81	243	12.55	244	-8.8	90	-10.1	0	0	1003.6	NA	0.0000		9999	1640	0	0	0
2019/10/13 03:32:00	BASE	9.57	247	12.55	244	-8.8	90	-10.2	0	0	1003.6	NA	0.0000		9999	1570	0	0	0
2019/10/13 03:33:00	BASE	10.17	249	12.55	244	-8.8	90	-10.2	0	0	1003.6	NA	0.0000		9999	1540	0	0	0
2019/10/13 03:34:00	BASE	9.75	245	12.55	244	-8.8	89	-10.2	0	0	1003.7	NA	0.0000		9999	1640	0	0	0
2019/10/13 03:35:00	BASE	9.56	246	12.55	244	-8.7	89	-10.2	0	0	1003.8	NA	0.0000		9999	1670	0	0	0
2019/10/13 03:36:00	BASE	9.85	246	12.55	244	-8.7	89	-10.2	0	0	1003.8	NA	0.0000		9999	1670	0	0	0
2019/10/13 03:37:00	BASE	9.68	241	12.55	244	-8.7	89	-10.2	0	0	1003.8	NA	0.0000		9999	1740	0	0	0
2019/10/13 03:38:00	BASE	8.80	236	12.55	244	-8.7	89	-10.2	0	0	1003.8	NA	0.0000		9999	1710	0	0	0
2019/10/13 03:39:00	BASE	8.23	234	12.35	244	-8.6	89	-10.2	0	0	1003.8	NA	0.0000		9999	1740	0	0	0
2019/10/13 03:40:00	BASE	8.59	235	12.04	237	-8.6	88	-10.2	0	0	1003.8	NA	0.0000		9999	1670	0	0	0
2019/10/13 03:41:00	BASE	9.68	240	12.04	237	-8.6	88	-10.2	0	0	1003.8	NA	0.0000		9999	1710	0	0	0
2019/10/13 03:42:00	BASE	9.81	246	12.04	237	-8.6	88	-10.2	0	0	1003.9	NA	0.0000		9999	1770	0	0	0
2019/10/13 03:43:00	BASE	9.95	246	12.04	237	-8.6	88	-10.3	0	0	1003.9	NA	0.0000		9999	1770	0	0	0
2019/10/13 03:44:00	BASE	9.72	246	12.04	237	-8.6	88	-10.3	0	0	1004.0	NA	0.0000		9999	1710	0	0	0
2019/10/13 03:45:00	BASE	9.34	246	12.04	254	-8.7	88	-10.3	0	0	1004.0	NA	0.0000		9999	1770	0	0	0
2019/10/13 03:46:00	BASE	10.19	243	12.04	254	-8.7	87	-10.4	0	0	1004.0	NA	0.0000		9999	1840	0	0	0
2019/10/13 03:47:00	BASE	9.10	253	12.04	254	-8.7	87	-10.5	0	0	1004.0	NA	0.0000		9999	1710	0	0	0
2019/10/13 03:48:00	BASE	7.15	267	12.04	254	-8.7	87	-10.6	0	0	1004.0	NA	0.0000		9999	1710	0	0	0
2019/10/13 03:49:00	BASE	7.09	270	12.04	254	-8.7	86	-10.6	0	0	1004.0	NA	0.0000		9999	1740	0	0	0
2019/10/13 03:50:00	BASE	6.63	270	12.04	254	-8.7	86	-10.7	0	0	1004.0	NA	0.0000		9999	1800	0	0	0
2019/10/13 03:51:00	BASE	5.67	267	12.04	254	-8.7	85	-10.8	0	0	1004.0	NA	0.0000		9999	1770	0	0	0
2019/10/13 03:52:00	BASE	5.26	263	12.04	254	-8.7	84	-10.9	0	0	1004.0	NA	0.0000		9999	1800	0	0	0
2019/10/13 03:53:00	BASE	5.81	262	12.04	254	-8.7	84	-10.9	0	0	1004.0	NA	0.0000		9999	1710	0	0	0
2019/10/13 03:54:00	BASE	6.16	263	12.04	254	-8.6	83	-11.0	0	0	1004.0	NA	0.0000		9999	1710	0	0	0
2019/10/13 03:55:00	BASE	5.56	264	11.78	238	-8.6	83	-11.0	0	0	1004.0	NA	0.0000		9999	1740	0	0	0
2019/10/13 03:56:00	BASE	6.26	258	8.85	247	-8.6	82	-11.1	0	0	1004.0	NA	0.0000		9999	1710	0	0	0
2019/10/13 03:57:00	BASE	7.31	253	8.85	247	-8.6	82	-11.1	0	0	1004.0	NA	0.0000		9999	1610	0	0	0
2019/10/13 03:58:00	BASE	7.16	254	8.85	247	-8.6	82	-11.1	0	0	1004.1	NA	0.0000		9999	1610	0	0	0
2019/10/13 03:59:00	BASE	8.45	254	10.91	254	-8.6	82	-11.1	0	0	1004.0	NA	0.0000		9999	1440	0	0	0
2019/10/13 04:00:00	BASE	9.60	258	11.11	256	-8.6	82	-11.1	0	0	1004.1	NA	0.0000		9999	1410	0	0	0
2019/10/13 04:01:00	BASE	8.90	259	11.11	256	-8.6	82	-11.1	0	0	1004.1	NA	0.0000		9999	1480	0	0	0
2019/10/13 04:02:00	BASE	8.33	259	11.11	256	-8.6	82	-11.1	0	0	1004.0	NA	0.0000		9999	1440	0	0	0
2019/10/13 04:03:00	BASE	8.26	259	11.11	256	-8.6	83	-11.0	0	0	1004.1	NA	0.0000		9999	1410	0	0	0
2019/10/13 04:04:00	BASE	8.48	266	11.11	256	-8.6	83	-10.9	0	0	1004.1	NA	0.0000		9999	1380	0	0	0
2019/10/13 04:05:00	BASE	8.99	274	11.32	276	-8.6	84	-10.8	0	0	1004.1	NA	0.0000		9999	1440	0	0	0
2019/10/13 04:06:00	BASE	9.11	266	11.32	276	-8.6	85	-10.7	0	0	1004.1	NA	0.0000		9999	1480	0	0	0
2019/10/13 04:07:00	BASE	9.27	255	11.32	276	-8.6	85	-10.6	0	0	1004.1	NA	0.0000		9999	1510	0	0	0
2019/10/13 04:08:00	BASE	8.61	257	11.32	276	-8.6	86	-10.6	0	0	1004.1	NA	0.0000		9999	1510	0	0	0
2019/10/13 04:09:00	BASE	7.60	265	11.32	276	-8.6	86	-10.5	0	0	1004.1	NA	0.0000		9999	1440	0	0	0
2019/10/13 04:10:00	BASE	8.21	265	11.32	276	-8.6	86	-10.5	0	0	1004.1	NA	0.0000		9999	1440	0	0	0
2019/10/13 04:11:00	BASE	9.80	259	11.57	257	-8.6	86	-10.4	0	0	1004.1	NA	0.0000		9999	1480	0	0	0
2019/10/13 04:12:00	BASE	9.98	257	11.57	257	-8.6	87	-10.4	0	0	1004.1	NA	0.0000		9999	1510	0	0	0
2019/10/13 04:13:00	BASE	9.37	261	11.57	257	-8.6	87	-10.4	0	0	1004.1	NA	0.0000		9999	1540	0	0	0
2019/10/13 04:14:00	BASE	9.29	262	11.57	257	-8.6	87	-10.4	0	0	1004.1	NA	0.0000		9999	1570	0	0	0
2019/10/13 04:15:00	BASE	8.60	257	11.57	257	-8.6	87	-10.4	0	0	1004.1	NA	0.0000		9999	1640	0	0	0
2019/10/13 04:16:00	BASE	7.65	257	11.57	257	-8.6	87	-10.4	0	0	1004.1	NA	0.0000		9999	1670	0	0	0
2019/10/13 04:17:00	BASE	6.96	261	11.57	257	-8.6	87	-10.4	0	0	1004.1	NA	0.0000		9999	1610	0	0	0
2019/10/13 04:18:00	BASE	7.67	262	11.57	257	-8.6	87	-10.3	0	0	1004.1	NA	0.0000		9999	1610	0	0	0
2019/10/13 04:19:00	BASE	9.26	258	11.57	257	-8.6	87	-10.3	0	0	1004.1	NA	0.0000		9999	1710	0	0	0
2019/10/13 04:20:00	BASE	9.17	254	11.57	257	-8.5	87	-10.3	0	0	1004.1	NA	0.0000		9999	1870	0	0	0
2019/10/13 04:21:00	BASE	8.49	252	11.32	257	-8.5	87	-10.3	0	0	1004.1	NA	0.0000		9999	2030	0	0	0
2019/10/13 04:22:00	BASE	8.27	252	11.32	257	-8.5	87	-10.3	0	0	1004.1	NA	0.0000		9999	1840	0	0	0
2019/10/13 04:23:00	BASE	7.70	248	11.32	257	-8.4	86	-10.3	0	0	1004.1	NA	0.0000		9999	1800	0	0	0
2019/10/13 04:24:00	BASE	7.46	243	11.32	257	-8.4	86	-10.3	0	0	1004.1	NA	0.0000		9999	1900	0	0	0
2019/10/13 04:25:00	BASE	7.28	242	11.32	257	-8.4	86	-10.3	0	0	1004.1	NA	0.0000		9999	1670	0	0	0
2019/10/13 04:26:00	BASE	7.14	240	11.32	257	-8.4	86	-10.3	0	0	1004.1	NA	0.0000		9999	1570	0	0	0
2019/10/13 04:27:00	BASE	7.04	240	11.32	257	-8.4	86	-10.3	0	0	1004.1	NA	0.0000		9999	1610	0	0	0
2019/10/13 04:28:00	BASE	7.15	241	11.32	257	-8.3	86	-10.3	0	0	1004.1	NA	0.0000		9999	1570	0	0	0
2019/10/13 04:29:00	BASE	7.37	244	9.77	242	-8.3	86	-10.3	0	0	1004.1	NA	0.0000		9999	1610	0	0	0
2019/10/13 04:30:00	BASE	7.32	245	9.77	242	-8.3	86	-10.3	0	0	1004.1	NA	0.0000		9999	1570	0	0	0
2019/10/13 04:31:00	BASE	7.10	242	9.11	243	-8.3	86	-10.3	0	0	1004.1	NA	0.0000		9999	1570	0	0	0
2019/10/13 04:32:00	BASE	7.04	237	8.75	238	-8.3	86	-10.3	0	0	1004.1	NA	0.0000		9999	1670	0	0	0
2019/10/13 04:33:00	BASE	7.05	237	8.75	238	-8.3	86	-10.3	0	0	1004.1	NA	0.0000		9999	1640	0	0	0
2019/10/13 04:34:00	BASE	6.66	236	8.75	238	-8.3	86	-10.3	0	0	1004.1	NA	0.0000		9999	1710	0	0	0
2019/10/13 04:35:00	BASE	6.51	233	8.75	238	-8.3	86	-10.2	0	0	1004.2	NA	0.0000		9999	1610	0	0	0
2019/10/13 04:36:00	BASE	6.41	232	8.23	252	-8.3	86	-10.2	0	0	1004.2	NA	0.0000		9999	1640	0	0	0
2019/10/13 04:37:00	BASE	6.48	229	8.23	252	-8.3	86	-10.2	0	0	1004.2	NA	0.0000		9999	1610	0	0	0
2019/10/13 04:38:00	BASE	6.32	223	8.23	252	-8.3	86	-10.2	0	0	1004.2	NA	0.0000		9999	1640	0	0	0
2019/10/13 04:39:00	BASE	5.59	220	8.18	222	-8.3	86	-10.2	0	0	1004.2	NA	0.0000		9999	1640	0	0	0
2019/10/13 04:40:00	BASE	5.55	220	8.18	222	-8.3	86	-10.2	0	0	1004.2	NA	0.0000		9999	1640	0	0	0
2019/10/13 04:41:00	BASE	5.17	227	8.18	222	-8.3	86	-10.3	0	0	1004.2	NA	0.0000		9999	1610	0	0	0
2019/10/13 04:42:00	BASE	4.81	236	8.18	222	-8.3	86	-10.3	0	0	1004.2	NA	0.0000		9999	1540	0	0	0
2019/10/13 04:43:00	BASE	5.19	238	8.18	222	-8.3	85	-10.3	0	0	1004.2	NA	0.0000		9999	1510	0	0	0
2019/10/13 04:44:00	BASE	6.44	236	9.05	225	-8.3	85	-10.3	0	0	1004.2	NA	0.0000		9999	1480	0	0	0
2019/10/13 04:45:00	BASE	7.50	233	9.05	225	-8.2	85	-10.3	0	0	1004.2	NA	0.0000		9999	1410	0	0	0
2019/10/13 04:46:00	BASE	7.70	238	9.41	242	-8.2	85	-10.3	0	0	1004.2	NA	0.0000		9999	1440	0	0	0
2019/10/13 04:47:00	BASE	8.41	245	10.55	245	-8.2	85	-10.2	0	0	1004.2	NA	0.0000		9999	1350	0	0	0
2019/10/13 04:48:00	BASE	7.62	252	10.55	245	-8.2	86	-10.2	0	0	1004.2	NA	0.0000		9999	1350	0	0	0
2019/10/13 04:49:00	BASE	7.20	253	10.55	245	-8.2	86	-10.2	0	0	1004.2	NA	0.0000		9999	1350	0	0	0
2019/10/13 04:50:00	BASE	8.19	248	10.55	245	-8.2	86	-10.2	0	0	1004.2	NA	0.0000		9999	1310	0	0	0
2019/10/13 04:51:00	BASE	8.72	247	10.75	248	-8.2	86	-10.2	0	0	1004.2	NA	0.0000		9999	1350	0	0	0
2019/10/13 04:52:00	BASE	9.66	247	11.83	243	-8.3	86	-10.1	0	0	1004.3	NA	0.0000		9999	1410	0	0	0
2019/10/13 04:53:00	BASE	9.07	245	11.83	243	-8.3	86	-10.1	0	0	1004.3	NA	0.0000		9999	1480	0	0	0
2019/10/13 04:54:00	BASE	8.12	246	11.83	243	-8.3	87	-10.1	0	0	1004.4	NA	0.0000		9999	1510	0	0	0
2019/10/13 04:55:00	BASE	7.93	245	11.83	243	-8.3	87	-10.1	0	0	1004.4	NA	0.0000		9999	1510	0	0	0
2019/10/13 04:56:00	BASE	7.55	244	11.83	243	-8.3	87	-10.1	0	0	1004.4	NA	0.0000		9999	1440	0	0	0
2019/10/13 04:57:00	BASE	6.47	242	11.83	243	-8.3	87	-10.1	0	0	1004.4	NA	0.0000		9999	1350	0	0	0
2019/10/13 04:58:00	BASE	5.43	239	11.83	243	-8.3	87	-10.1	0	0	1004.5	NA	0.0000		9999	1410	0	0	0
2019/10/13 04:59:00	BASE	5.58	241	11.83	243	-8.3	87	-10.1	0	0	1004.5	NA	0.0000		9999	1350	0	0	0
2019/10/13 05:00:00	BASE	5.60	248	11.83	243	-8.3	87	-10.0	0	0	1004.5	NA	0.0000		9999	1350	0	0	0
2019/10/13 05:01:00	BASE	6.50	256	11.83	243	-8.3	87	-10.0	0	0	1004.5	NA	0.0000		9999	1310	0	0	0
2019/10/13 05:02:00	BASE	6.64	261	9.11	257	-8.3	88	-10.0	0	0	1004.5	NA	0.0000		9999	1310	0	0	0
2019/10/13 05:03:00	BASE	5.33	262	9.11	257	-8.3	88	-10.0	0	0	1004.5	NA	0.0000		9999	1310	0	0	0
2019/10/13 05:04:00	BASE	5.63	264	9.11	257	-8.3	88	-9.9	0	0	1004.5	NA	0.0000		9999	1480	0	0	0
2019/10/13 05:05:00	BASE	6.05	263	9.11	257	-8.3	88	-9.9	0	0	1004.5	NA	0.0000		9999	1280	0	0	0
2019/10/13 05:06:00	BASE	5.77	263	9.11	257	-8.3	88	-9.9	0	0	1004.6	NA	0.0000		9999	1180	0	0	0
2019/10/13 05:07:00	BASE	5.91	261	9.11	257	-8.3	88	-9.9	0	0	1004.6	NA	0.0000		9999	1510	0	0	0
2019/10/13 05:08:00	BASE	5.92	251	9.11	257	-8.3	88	-9.9	0	0	1004.6	NA	0.0000		9999	1250	0	0	0
2019/10/13 05:09:00	BASE	6.15	246	9.11	257	-8.3	89	-9.8	0	0	1004.6	NA	0.0000		9999	1080	0	0	0
2019/10/13 05:10:00	BASE	6.93	254	9.11	257	-8.3	89	-9.8	0	0	1004.6	NA	0.0000		9999	1050	0	0	0
2019/10/13 05:11:00	BASE	7.32	257	8.69	246	-8.3	89	-9.8	0	0	1004.6	NA	0.0000		9999	1050	0	0	0
2019/10/13 05:12:00	BASE	7.61	255	9.72	252	-8.3	89	-9.7	0	0	1004.6	NA	0.0000		9999	1120	1740	0	0
2019/10/13 05:13:00	BASE	8.55	256	10.65	259	-8.3	90	-9.7	0	0	1004.6	NA	0.0000		9999	1080	1710	0	0
2019/10/13 05:14:00	BASE	8.36	254	10.65	259	-8.3	90	-9.7	0	0	1004.7	NA	0.0000		9999	1570	0	0	0
2019/10/13 05:15:00	BASE	7.25	251	10.65	259	-8.3	90	-9.6	0	0	1004.7	NA	0.0000		9999	1710	0	0	0
2019/10/13 05:16:00	BASE	6.81	254	10.65	259	-8.3	91	-9.6	0	0	1004.7	NA	0.0000		9999	1250	0	0	0
2019/10/13 05:17:00	BASE	6.39	257	10.65	259	-8.3	91	-9.5	0	0	1004.7	NA	0.0000		9999	1250	0	0	0
2019/10/13 05:18:00	BASE	5.81	256	10.65	259	-8.4	91	-9.5	0	0	1004.7	NA	0.0000		9999	1120	0	0	0
2019/10/13 05:19:00	BASE	5.17	255	10.65	259	-8.4	92	-9.5	0	0	1004.7	NA	0.0000		9999	1120	1900	0	0
2019/10/13 05:20:00	BASE	5.02	245	10.65	259	-8.4	92	-9.4	0	0	1004.7	NA	0.0000		9999	1670	0	0	0
2019/10/13 05:21:00	BASE	5.91	231	10.65	259	-8.4	93	-9.4	0	0	1004.7	NA	0.0000		9999	1740	0	0	0
2019/10/13 05:22:00	BASE	7.36	224	10.65	259	-8.4	93	-9.4	0	0	1004.7	NA	0.0000		9999	1710	0	0	0
2019/10/13 05:23:00	BASE	7.93	219	9.05	218	-8.4	93	-9.3	0	0	1004.7	NA	0.0000		9999	1670	0	0	0
2019/10/13 05:24:00	BASE	7.74	216	9.05	218	-8.4	93	-9.4	0	0	1004.7	NA	0.0000		9999	1740	0	0	0
2019/10/13 05:25:00	BASE	8.11	212	9.11	204	-8.5	93	-9.4	0	0	1004.7	NA	0.0000		9999	1710	0	0	0
2019/10/13 05:26:00	BASE	8.09	208	9.11	204	-8.5	93	-9.5	0	0	1004.7	NA	0.0000		9999	1770	0	0	0
2019/10/13 05:27:00	BASE	7.20	206	9.11	204	-8.5	92	-9.5	0	0	1004.7	NA	0.0000		9999	1740	0	0	0
2019/10/13 05:28:00	BASE	7.11	202	9.11	204	-8.5	92	-9.6	0	0	1004.7	NA	0.0000		9999	1740	0	0	0
2019/10/13 05:29:00	BASE	7.14	202	9.11	204	-8.5	91	-9.7	0	0	1004.7	NA	0.0000		9999	1740	0	0	0
2019/10/13 05:30:00	BASE	7.54	210	9.11	204	-8.5	90	-9.8	0	0	1004.7	NA	0.0000		9999	1740	0	0	0
2019/10/13 05:31:00	BASE	8.09	218	9.11	220	-8.5	90	-9.9	0	0	1004.7	NA	0.0000		9999	1710	0	0	0
2019/10/13 05:32:00	BASE	8.17	225	9.26	231	-8.4	89	-9.9	0	0	1004.7	NA	0.0000		9999	1740	0	0	0
2019/10/13 05:33:00	BASE	8.03	230	9.26	231	-8.4	88	-10.0	0	0	1004.7	NA	0.0000		9999	1800	0	0	0
2019/10/13 05:34:00	BASE	8.22	231	9.62	234	-8.4	88	-10.0	0	0	1004.8	NA	0.0000		9999	1770	0	0	0
2019/10/13 05:35:00	BASE	8.49	229	9.62	234	-8.4	87	-10.1	0	0	1004.8	NA	0.0000		9999	1770	0	0	0
2019/10/13 05:36:00	BASE	8.03	227	9.62	234	-8.4	87	-10.1	0	0	1004.8	NA	0.0000		9999	1870	0	0	0
2019/10/13 05:37:00	BASE	8.69	225	11.27	230	-8.4	87	-10.2	0	0	1004.8	NA	0.0000		9999	1710	0	0	0
2019/10/13 05:38:00	BASE	10.11	228	11.99	229	-8.4	86	-10.2	0	0	1004.8	NA	0.0000		9999	1710	0	0	0
2019/10/13 05:39:00	BASE	10.09	234	12.35	235	-8.4	86	-10.3	0	0	1004.8	NA	0.0000		9999	1770	0	0	0
2019/10/13 05:40:00	BASE	8.09	234	12.35	235	-8.4	86	-10.4	0	0	1004.8	NA	0.0000		9999	1710	0	0	0
2019/10/13 05:41:00	BASE	6.58	237	12.35	235	-8.4	85	-10.4	0	0	1004.8	NA	0.0000		9999	1740	0	0	0
2019/10/13 05:42:00	BASE	5.93	240	12.35	235	-8.4	85	-10.5	0	0	1004.8	NA	0.0000		9999	1710	0	0	0
2019/10/13 05:43:00	BASE	5.24	237	12.35	235	-8.4	84	-10.6	0	0	1004.8	NA	0.0000		9999	1770	0	0	0
2019/10/13 05:44:00	BASE	5.30	231	12.35	235	-8.4	84	-10.6	0	0	1004.8	NA	0.0000		9999	1740	0	0	0
2019/10/13 05:45:00	BASE	5.62	221	12.35	235	-8.4	84	-10.6	0	0	1004.8	NA	0.0000		9999	1740	0	0	0
2019/10/13 05:46:00	BASE	5.51	216	12.35	235	-8.4	84	-10.6	0	0	1004.8	NA	0.0000		9999	1740	0	0	0
2019/10/13 05:47:00	BASE	5.26	218	12.35	235	-8.4	84	-10.6	0	0	1004.8	NA	0.0000		9999	1670	0	0	0
2019/10/13 05:48:00	BASE	5.36	221	12.35	235	-8.4	84	-10.6	0	0	1004.8	NA	0.0000		9999	1570	0	0	0
2019/10/13 05:49:00	BASE	5.31	226	7.92	243	-8.4	84	-10.7	0	0	1004.8	NA	0.0000		9999	1610	0	0	0
2019/10/13 05:50:00	BASE	4.88	224	7.25	243	-8.4	83	-10.7	0	0	1004.8	NA	0.0000		9999	1570	0	0	0
2019/10/13 05:51:00	BASE	4.85	219	6.53	217	-8.4	83	-10.7	0	0	1004.8	NA	0.0000		9999	1570	0	0	0
2019/10/13 05:52:00	BASE	4.85	222	6.53	217	-8.4	83	-10.8	0	0	1004.8	NA	0.0000		9999	1640	0	0	0
2019/10/13 05:53:00	BASE	4.26	229	6.53	217	-8.4	83	-10.8	0	0	1004.8	NA	0.0000		9999	1570	0	0	0
2019/10/13 05:54:00	BASE	4.60	238	6.79	232	-8.4	83	-10.7	0	0	1004.8	NA	0.0000		9999	1540	0	0	0
2019/10/13 05:55:00	BASE	6.98	246	10.24	253	-8.3	83	-10.7	0	0	1004.8	NA	0.0000		9999	1570	0	0	0
2019/10/13 05:56:00	BASE	7.93	243	10.24	253	-8.3	83	-10.7	0	0	1004.9	NA	0.0000		9999	1640	0	0	0
2019/10/13 05:57:00	BASE	6.65	237	10.24	253	-8.3	83	-10.7	0	0	1004.9	NA	0.0000		9999	1640	0	0	0
2019/10/13 05:58:00	BASE	6.42	232	10.24	253	-8.3	83	-10.7	0	0	1004.9	NA	0.0000		9999	1670	0	0	0
2019/10/13 05:59:00	BASE	6.76	225	10.24	253	-8.3	83	-10.7	0	0	1004.9	NA	0.0000		9999	1670	0	0	0
2019/10/13 06:00:00	BASE	7.06	222	10.24	253	-8.3	83	-10.7	0	0	1004.9	NA	0.0000		9999	1480	0	0	0
2019/10/13 06:01:00	BASE	6.65	224	10.24	253	-8.3	83	-10.6	0	0	1005.0	NA	0.0000		9999	1510	0	0	0
2019/10/13 06:02:00	BASE	6.56	227	10.24	253	-8.3	83	-10.6	0	0	1004.9	NA	0.0000		9999	1540	0	0	0
2019/10/13 06:03:00	BASE	7.70	224	10.24	253	-8.3	83	-10.6	0	0	1004.9	NA	0.0000		9999	1610	0	0	0
2019/10/13 06:04:00	BASE	7.51	223	10.24	253	-8.3	83	-10.7	0	0	1005.0	NA	0.0000		9999	1570	0	0	0
2019/10/13 06:05:00	BASE	7.27	229	9.26	236	-8.3	83	-10.7	0	0	1005.0	NA	0.0000		9999	1510	0	0	0
2019/10/13 06:06:00	BASE	8.21	236	9.31	230	-8.3	83	-10.7	0	0	1005.0	NA	0.0000		9999	1570	0	0	0
2019/10/13 06:07:00	BASE	7.60	238	9.31	230	-8.3	83	-10.7	0	0	1005.1	NA	0.0000		9999	1570	0	0	0
2019/10/13 06:08:00	BASE	6.54	231	9.31	230	-8.3	83	-10.7	0	0	1005.0	NA	0.0000		9999	1740	0	0	0
2019/10/13 06:09:00	BASE	6.12	228	9.31	230	-8.4	83	-10.7	0	0	1005.0	NA	0.0000		9999	1570	0	0	0
2019/10/13 06:10:00	BASE	4.92	232	9.31	230	-8.4	84	-10.7	0	0	1005.0	NA	0.0000		9999	1570	0	0	0
2019/10/13 06:11:00	BASE	4.08	230	9.31	230	-8.4	84	-10.7	0	0	1005.1	NA	0.0000		9999	1610	0	0	0
2019/10/13 06:12:00	BASE	4.32	227	9.31	230	-8.4	84	-10.7	0	0	1005.1	NA	0.0000		9999	1570	0	0	0
2019/10/13 06:13:00	BASE	4.73	228	9.31	230	-8.4	83	-10.7	0	0	1005.1	NA	0.0000		9999	1570	0	0	0
2019/10/13 06:14:00	BASE	4.18	230	9.31	230	-8.4	83	-10.7	0	0	1005.1	NA	0.0000		9999	1510	0	0	0
2019/10/13 06:15:00	BASE	3.54	232	9.31	230	-8.4	83	-10.8	0	0	1005.1	NA	0.0000		9999	1540	0	0	0
2019/10/13 06:16:00	BASE	3.71	231	7.41	238	-8.4	83	-10.8	0	0	1005.1	NA	0.0000		9999	1540	0	0	0
2019/10/13 06:17:00	BASE	4.00	226	7.20	226	-8.4	83	-10.8	0	0	1005.1	NA	0.0000		9999	1570	0	0	0
2019/10/13 06:18:00	BASE	3.76	224	6.48	229	-8.4	83	-10.8	0	0	1005.2	NA	0.0000		9999	1570	0	0	0
2019/10/13 06:19:00	BASE	3.18	221	5.66	223	-8.4	83	-10.8	0	0	1005.2	NA	0.0000		9999	1510	0	0	0
2019/10/13 06:20:00	BASE	3.23	224	5.66	223	-8.4	83	-10.8	0	0	1005.2	NA	0.0000		9999	1570	0	0	0
2019/10/13 06:21:00	BASE	4.03	236	5.66	223	-8.4	83	-10.8	0	0	1005.1	NA	0.0000		9999	1570	0	0	0
2019/10/13 06:22:00	BASE	4.90	240	6.64	237	-8.4	83	-10.8	0	0	1005.1	NA	0.0000		9999	1480	0	0	0
2019/10/13 06:23:00	BASE	4.85	240	6.64	237	-8.4	83	-10.7	0	0	1005.1	NA	0.0000		9999	1510	0	0	0
2019/10/13 06:24:00	BASE	4.86	236	6.64	237	-8.3	83	-10.7	0	0	1005.1	NA	0.0000		9999	1540	0	0	0
2019/10/13 06:25:00	BASE	5.68	233	6.94	230	-8.3	83	-10.6	0	0	1005.1	NA	0.0000		9999	1510	0	0	0
2019/10/13 06:26:00	BASE	7.72	233	10.13	240	-8.3	84	-10.5	0	0	1005.1	NA	0.0000		9999	1540	0	0	0
2019/10/13 06:27:00	BASE	8.75	224	10.13	240	-8.2	84	-10.5	0	0	1005.1	NA	0.0000		9999	1410	0	0	0
2019/10/13 06:28:00	BASE	7.41	218	10.13	240	-8.2	84	-10.4	0	0	1005.1	NA	0.0000		9999	1380	0	0	0
2019/10/13 06:29:00	BASE	6.48	218	10.13	240	-8.2	84	-10.4	0	0	1005.1	NA	0.0000		9999	1380	0	0	0
2019/10/13 06:30:00	BASE	6.35	221	10.13	240	-8.2	85	-10.3	0	0	1005.1	NA	0.0000		9999	1440	0	0	0
2019/10/13 06:31:00	BASE	6.45	227	10.13	240	-8.2	85	-10.3	0	0	1005.1	NA	0.0000		9999	1440	0	0	0
2019/10/13 06:32:00	BASE	6.66	226	10.13	240	-8.2	85	-10.2	0	0	1005.1	NA	0.0000		9999	1480	0	0	0
2019/10/13 06:33:00	BASE	6.51	224	10.13	240	-8.2	85	-10.2	0	0	1005.2	NA	0.0000		9999	1480	0	0	0
2019/10/13 06:34:00	BASE	5.93	227	10.13	240	-8.1	85	-10.2	0	0	1005.2	NA	0.0000		9999	1480	0	0	0
2019/10/13 06:35:00	BASE	5.71	229	10.13	240	-8.2	85	-10.2	0	0	1005.2	NA	0.0000		9999	1410	0	0	0
2019/10/13 06:36:00	BASE	5.71	228	9.52	225	-8.1	85	-10.2	0	0	1005.2	NA	0.0000		9999	1410	0	0	0
2019/10/13 06:37:00	BASE	5.54	227	8.33	220	-8.1	85	-10.2	0	0	1005.2	NA	0.0000		9999	1410	0	0	0
2019/10/13 06:38:00	BASE	5.52	226	7.51	234	-8.1	85	-10.2	0	0	1005.2	NA	0.0000		9999	1410	0	0	0
2019/10/13 06:39:00	BASE	5.25	224	7.51	234	-8.1	85	-10.2	0	0	1005.2	NA	0.0000		9999	1440	0	0	0
2019/10/13 06:40:00	BASE	4.47	224	7.51	234	-8.1	85	-10.2	0	0	1005.3	NA	0.0000		9999	1380	0	0	0
2019/10/13 06:41:00	BASE	4.02	229	7.31	218	-8.1	85	-10.2	0	0	1005.3	NA	0.0000		9999	1310	0	0	0
2019/10/13 06:42:00	BASE	3.57	236	6.74	229	-8.1	85	-10.2	0	0	1005.3	NA	0.0000		9999	1350	0	0	0
2019/10/13 06:43:00	BASE	3.84	246	11.27	255	-8.1	85	-10.1	0	0	1005.3	NA	0.0000		9999	1350	0	0	0
2019/10/13 06:44:00	BASE	7.20	231	12.09	231	-8.1	85	-10.1	0	0	1005.2	NA	0.0000		9999	1310	0	0	0
2019/10/13 06:45:00	BASE	9.96	210	12.09	231	-8.1	86	-10.1	0	0	1005.3	NA	0.0000		9999	1440	0	0	0
2019/10/13 06:46:00	BASE	11.37	219	14.04	226	-8.1	86	-10.1	0	0	1005.2	NA	0.0000		9999	1410	0	0	0
2019/10/13 06:47:00	BASE	12.42	229	14.04	226	-8.1	86	-10.1	0	0	1005.2	NA	0.0000		9999	1410	0	0	0
2019/10/13 06:48:00	BASE	11.10	233	14.04	226	-8.2	86	-10.1	0	0	1005.2	NA	0.0000		9999	1440	0	0	0
2019/10/13 06:49:00	BASE	10.62	236	14.04	226	-8.2	86	-10.1	0	0	1005.2	NA	0.0000		9999	1480	0	0	0
2019/10/13 06:50:00	BASE	11.94	240	14.04	226	-8.2	87	-10.0	0	0	1005.3	NA	0.0000		9999	1510	0	0	0
2019/10/13 06:51:00	BASE	11.95	243	14.04	226	-8.3	87	-10.1	0	0	1005.3	NA	0.0000		9999	1510	0	0	0
2019/10/13 06:52:00	BASE	10.95	241	14.04	226	-8.3	87	-10.1	0	0	1005.3	NA	0.0000		9999	1380	0	0	0
2019/10/13 06:53:00	BASE	10.31	238	14.04	226	-8.3	87	-10.1	0	0	1005.3	NA	0.0000		9999	1440	0	0	0
2019/10/13 06:54:00	BASE	10.20	238	14.04	226	-8.3	87	-10.1	0	0	1005.3	NA	0.0000		9999	1440	0	0	0
2019/10/13 06:55:00	BASE	10.44	240	14.04	226	-8.3	87	-10.1	0	0	1005.3	NA	0.0000		9999	1480	0	0	0
2019/10/13 06:56:00	BASE	9.99	240	13.79	238	-8.3	87	-10.1	0	0	1005.3	NA	0.0000		9999	1440	0	0	0
2019/10/13 06:57:00	BASE	9.29	240	13.79	238	-8.3	87	-10.1	0	0	1005.3	NA	0.0000		9999	1480	0	0	0
2019/10/13 06:58:00	BASE	10.09	241	13.79	238	-8.3	87	-10.1	0	0	1005.3	NA	0.0000		9999	1440	0	0	0
2019/10/13 06:59:00	BASE	10.81	235	13.79	238	-8.3	87	-10.1	0	0	1005.3	NA	0.0000		9999	1480	0	0	0
2019/10/13 07:00:00	BASE	9.58	233	12.55	237	-8.3	87	-10.1	0	0	1005.3	NA	0.0000		9999	1510	0	0	0
2019/10/13 07:01:00	BASE	8.74	242	12.55	237	-8.3	87	-10.1	0	0	1005.4	NA	0.0000		9999	1480	0	0	0
2019/10/13 07:02:00	BASE	8.92	246	12.55	237	-8.3	87	-10.1	0	0	1005.4	NA	0.0000		9999	1480	0	0	0
2019/10/13 07:03:00	BASE	9.16	241	12.55	237	-8.4	87	-10.1	0	0	1005.5	NA	0.0000		9999	1510	0	0	0
2019/10/13 07:04:00	BASE	9.28	230	12.55	237	-8.4	87	-10.2	0	0	1005.6	NA	0.0000		9999	1480	0	0	0
2019/10/13 07:05:00	BASE	8.75	222	12.55	237	-8.4	87	-10.2	0	0	1005.6	NA	0.0000		9999	1510	0	0	0
2019/10/13 07:06:00	BASE	8.18	219	12.55	237	-8.4	87	-10.2	0	0	1005.6	NA	0.0000		9999	1710	0	0	0
2019/10/13 07:07:00	BASE	7.41	211	12.55	237	-8.5	87	-10.2	0	0	1005.6	NA	0.0000		9999	1640	0	0	0
2019/10/13 07:08:00	BASE	6.46	204	12.24	223	-8.5	87	-10.3	0	0	1005.6	NA	0.0000		9999	1440	0	0	0
2019/10/13 07:09:00	BASE	6.17	205	12.24	223	-8.5	87	-10.3	0	0	1005.7	NA	0.0000		9999	1510	0	0	0
2019/10/13 07:10:00	BASE	5.93	207	12.24	223	-8.5	87	-10.3	0	0	1005.7	NA	0.0000		9999	1510	0	0	0
2019/10/13 07:11:00	BASE	5.43	210	12.24	223	-8.5	87	-10.3	0	0	1005.6	NA	0.0000		9999	1510	0	0	0
2019/10/13 07:12:00	BASE	5.61	217	12.24	223	-8.5	87	-10.3	0	0	1005.6	NA	0.0000		9999	1510	0	0	0
2019/10/13 07:13:00	BASE	6.56	218	12.24	223	-8.5	86	-10.3	0	0	1005.6	NA	0.0000		9999	1540	0	0	0
2019/10/13 07:14:00	BASE	7.44	213	9.62	215	-8.4	86	-10.3	0	0	1005.6	NA	0.0000		9999	1480	0	0	0
2019/10/13 07:15:00	BASE	7.57	208	9.62	215	-8.4	86	-10.3	0	0	1005.7	NA	0.0000		9999	1480	0	0	0
2019/10/13 07:16:00	BASE	7.69	211	9.52	213	-8.4	86	-10.3	0	0	1005.7	NA	0.0000		9999	1410	0	0	0
2019/10/13 07:17:00	BASE	7.39	222	9.52	213	-8.4	86	-10.3	0	0	1005.7	NA	0.0000		9999	1410	0	0	0
2019/10/13 07:18:00	BASE	7.07	234	9.52	213	-8.4	86	-10.3	0	0	1005.7	NA	0.0000		9999	1410	0	0	0
2019/10/13 07:19:00	BASE	7.79	246	9.52	213	-8.4	86	-10.3	0	0	1005.8	NA	0.0000		9999	1440	0	0	0
2019/10/13 07:20:00	BASE	7.91	261	9.52	213	-8.4	86	-10.3	0	0	1005.8	NA	0.0000		9999	1440	0	0	0
2019/10/13 07:21:00	BASE	8.23	266	10.19	263	-8.4	86	-10.3	0	0	1005.8	NA	0.0000		9999	750	1480	0	0
2019/10/13 07:22:00	BASE	8.61	265	11.21	264	-8.5	86	-10.3	0	0	1005.8	NA	0.0000		9999	790	1540	0	0
2019/10/13 07:23:00	BASE	8.47	265	11.42	265	-8.5	87	-10.3	0	0	1005.7	NA	0.0000		9999	1440	0	0	0
2019/10/13 07:24:00	BASE	8.56	255	11.42	265	-8.6	87	-10.3	0	0	1005.8	NA	0.0000		9999	1410	0	0	0
2019/10/13 07:25:00	BASE	8.84	248	11.42	265	-8.6	88	-10.2	0	0	1005.8	NA	0.0000		9999	1480	0	0	0
2019/10/13 07:26:00	BASE	9.09	244	11.42	265	-8.7	89	-10.1	0	0	1005.9	NA	0.0000		9999	1410	0	0	0
2019/10/13 07:27:00	BASE	9.01	242	11.42	265	-8.6	90	-10.0	0	0	1005.9	NA	0.0000		9999	1380	0	0	0
2019/10/13 07:28:00	BASE	8.32	239	11.42	265	-8.6	91	-9.9	0	0	1005.9	NA	0.0000		9999	1410	0	0	0
2019/10/13 07:29:00	BASE	7.05	234	11.42	265	-8.6	91	-9.8	0	0	1005.9	NA	0.0000		9999	1380	0	0	0
2019/10/13 07:30:00	BASE	6.12	233	11.42	265	-8.6	92	-9.7	0	0	1005.9	NA	0.0000		9999	1440	0	0	0
2019/10/13 07:31:00	BASE	6.41	237	11.42	265	-8.6	92	-9.7	0	0	1005.9	NA	0.0000		9999	1410	0	0	0
2019/10/13 07:32:00	BASE	7.32	238	11.42	265	-8.6	92	-9.6	0	0	1005.9	NA	0.0000		9999	1510	0	0	0
2019/10/13 07:33:00	BASE	7.65	244	11.06	240	-8.6	92	-9.6	0	0	1005.9	NA	0.0000		9999	1120	0	0	0
2019/10/13 07:34:00	BASE	7.31	257	11.06	240	-8.5	92	-9.6	0	0	1005.9	NA	0.0000		9999	1540	0	0	0
2019/10/13 07:35:00	BASE	6.76	263	11.06	240	-8.5	92	-9.6	0	0	1005.9	NA	0.0000		9999	1150	1570	0	0
2019/10/13 07:36:00	BASE	7.00	263	11.06	240	-8.5	92	-9.6	0	0	1005.9	NA	0.0000		9999	1180	0	0	0
2019/10/13 07:37:00	BASE	7.55	259	9.00	242	-8.6	92	-9.7	0	0	1005.9	NA	0.0000		9999	1210	0	0	0
2019/10/13 07:38:00	BASE	6.70	258	8.90	243	-8.6	92	-9.7	0	0	1005.9	NA	0.0000		9999	1410	0	0	0
2019/10/13 07:39:00	BASE	6.33	261	8.90	243	-8.7	92	-9.7	0	0	1005.9	NA	0.0000		9999	1310	0	0	0
2019/10/13 07:40:00	BASE	7.30	259	8.90	243	-8.7	93	-9.6	0	0	1005.9	NA	0.0000		9999	1310	0	0	0
2019/10/13 07:41:00	BASE	7.92	257	9.05	262	-8.6	93	-9.5	0	0	1005.9	NA	0.0000		9999	1210	0	0	0
2019/10/13 07:42:00	BASE	7.89	253	9.11	246	-8.6	94	-9.4	0	0	1005.9	NA	0.0000		9999	890	0	0	0
2019/10/13 07:43:00	BASE	7.85	245	9.11	246	-8.6	94	-9.3	0	0	1005.9	NA	0.0000		9999	820	1310	0	0
2019/10/13 07:44:00	BASE	7.86	247	9.21	257	-8.6	95	-9.3	0	0	1006.0	NA	0.0000		9999	750	0	0	0
2019/10/13 07:45:00	BASE	8.77	253	11.21	246	-8.6	95	-9.2	0	0	1006.0	NA	0.0000		9999	720	0	0	0
2019/10/13 07:46:00	BASE	9.54	258	11.32	259	-8.6	95	-9.2	0	0	1006.0	NA	0.0000		9999	1380	0	0	0
2019/10/13 07:47:00	BASE	8.84	266	11.32	259	-8.7	96	-9.3	0	0	1006.0	NA	0.0000		9999	1350	0	0	0
2019/10/13 07:48:00	BASE	8.65	270	11.32	259	-8.7	96	-9.3	0	0	1006.1	NA	0.0000		9999	690	1440	0	0
2019/10/13 07:49:00	BASE	8.28	271	11.32	259	-8.8	96	-9.3	0	0	1006.1	NA	0.0000		9999	690	0	0	0
2019/10/13 07:50:00	BASE	7.80	271	11.32	259	-8.9	96	-9.4	0	0	1006.1	NA	0.0000		9999	660	0	0	0
2019/10/13 07:51:00	BASE	7.97	272	11.32	259	-9.0	96	-9.4	0	0	1006.1	NA	0.0000		9999	690	0	0	0
2019/10/13 07:52:00	BASE	8.23	272	11.32	259	-9.0	97	-9.4	0	0	1006.1	NA	0.0000		9999	720	0	0	0
2019/10/13 07:53:00	BASE	8.94	276	11.47	288	-9.0	97	-9.5	0	0	1006.1	NA	0.0000		9999	690	0	0	0
2019/10/13 07:54:00	BASE	8.96	272	11.47	288	-9.1	97	-9.4	0	0	1006.1	NA	0.0000		9999	690	0	0	0
2019/10/13 07:55:00	BASE	8.69	266	11.47	288	-9.1	97	-9.4	0	0	1006.1	NA	0.0000		9999	660	0	0	0
2019/10/13 07:56:00	BASE	8.67	266	11.47	288	-9.1	98	-9.4	0	0	1006.1	NA	0.0000		9999	660	0	0	0
2019/10/13 07:57:00	BASE	7.77	270	11.47	288	-9.1	98	-9.4	0	0	1006.1	NA	0.0000		9999	690	0	0	0
2019/10/13 07:58:00	BASE	7.08	269	11.47	288	-9.1	98	-9.4	0	0	1006.1	NA	0.0000		9999	750	0	0	0
2019/10/13 07:59:00	BASE	7.38	266	11.47	288	-9.1	98	-9.3	0	0	1006.1	NA	0.0000		9999	750	0	0	0
2019/10/13 08:00:00	BASE	7.65	268	11.47	288	-9.1	99	-9.3	0	0	1006.2	NA	0.0000		9999	660	0	0	0
2019/10/13 08:01:00	BASE	7.36	272	11.47	288	-9.1	99	-9.3	0	0	1006.3	NA	0.0000		9999	590	1480	0	0
2019/10/13 08:02:00	BASE	7.33	278	11.47	288	-9.1	99	-9.2	0	0	1006.3	NA	0.0000		9999	660	0	0	0
2019/10/13 08:03:00	BASE	6.67	273	11.11	270	-9.1	99	-9.2	0	0	1006.2	NA	0.0000		9999	820	0	0	0
2019/10/13 08:04:00	BASE	6.75	262	11.11	270	-9.1	99	-9.2	0	0	1006.2	NA	0.0000		9999	850	0	0	0
2019/10/13 08:05:00	BASE	7.76	258	10.08	250	-9.1	100	-9.1	0	0	1006.2	NA	0.0000		9999	1120	0	0	0
2019/10/13 08:06:00	BASE	7.37	261	9.31	258	-9.1	100	-9.1	0	0	1006.2	NA	0.0000		9999	1020	0	0	0
2019/10/13 08:07:00	BASE	7.08	264	9.31	258	-9.0	100	-9.0	0	0	1006.2	NA	0.0000		9999	1380	0	0	0
2019/10/13 08:08:00	BASE	6.83	268	9.31	258	-9.0	100	-9.0	0	0	1006.2	NA	0.0000		9999	1350	0	0	0
2019/10/13 08:09:00	BASE	6.64	277	8.95	261	-9.0	100	-9.0	0	0	1006.1	NA	0.0000		9999	1350	0	0	0
2019/10/13 08:10:00	BASE	6.67	277	8.95	261	-9.0	100	-9.0	0	0	1006.1	NA	0.0000		9999	1310	0	0	0
2019/10/13 08:11:00	BASE	6.64	273	8.95	261	-9.0	100	-9.0	0	0	1006.1	NA	0.0000		9999	1410	0	0	0
2019/10/13 08:12:00	BASE	6.76	273	8.95	261	-9.0	100	-9.0	0	0	1006.1	NA	0.0000		9999	1380	0	0	0
2019/10/13 08:13:00	BASE	6.72	277	8.95	261	-9.0	100	-9.0	0	0	1006.2	NA	0.0000		9999	1440	0	0	0
2019/10/13 08:14:00	BASE	6.70	286	8.95	261	-9.0	100	-9.0	0	0	1006.3	NA	0.0000		9999	1350	0	0	0
2019/10/13 08:15:00	BASE	6.25	291	8.80	265	-9.0	100	-9.0	0	0	1006.3	NA	0.0000		9999	1380	0	0	0
2019/10/13 08:16:00	BASE	6.08	293	8.80	265	-9.0	100	-9.0	0	0	1006.3	NA	0.0000		9999	1380	0	0	0
2019/10/13 08:17:01	BASE	6.29	295	8.08	276	-9.0	100	-9.0	0	0	1006.4	NA	0.0000		9999	790	1410	0	0
2019/10/13 08:18:01	BASE	5.77	294	8.08	276	-9.0	100	-9.0	0	0	1006.4	NA	0.0000		9999	720	1380	0	0
2019/10/13 08:19:01	BASE	5.30	290	7.97	278	-9.0	100	-9.0	0	0	1006.4	NA	0.0000		9999	1380	0	0	0
2019/10/13 08:20:01	BASE	6.16	290	7.97	278	-9.0	100	-9.0	0	0	1006.4	NA	0.0000		9999	1350	0	0	0
2019/10/13 08:21:01	BASE	6.68	287	7.92	289	-9.0	100	-9.0	0	0	1006.4	NA	0.0000		9999	1350	0	0	0
2019/10/13 08:22:01	BASE	6.33	282	7.92	289	-9.0	100	-9.0	0	0	1006.4	NA	0.0000		9999	1380	0	0	0
2019/10/13 08:23:01	BASE	5.56	281	7.92	289	-8.9	100	-8.9	0	0	1006.4	NA	0.0000		9999	1350	0	0	0
2019/10/13 08:24:01	BASE	5.05	272	7.92	289	-8.9	100	-8.9	0	0	1006.4	NA	0.0000		9999	1350	0	0	0
2019/10/13 08:25:01	BASE	5.77	246	7.92	289	-8.8	100	-8.8	0	0	1006.5	NA	0.0000		9999	1380	0	0	0
2019/10/13 08:26:01	BASE	6.61	223	7.92	289	-8.8	100	-8.8	0	0	1006.4	NA	0.0000		9999	1350	0	0	0
2019/10/13 08:27:01	BASE	6.52	219	7.92	289	-8.7	100	-8.7	0	0	1006.4	NA	0.0000		9999	1350	0	0	0
2019/10/13 08:28:01	BASE	6.50	226	8.08	220	-8.6	100	-8.6	0	0	1006.4	NA	0.0000		9999	1350	0	0	0
2019/10/13 08:29:01	BASE	6.76	227	8.08	220	-8.6	100	-8.6	0	0	1006.4	NA	0.0000		9999	1350	0	0	0
2019/10/13 08:30:01	BASE	6.30	214	8.08	220	-8.5	100	-8.5	1	0	1006.4	NA	0.0000		9999	1350	0	0	0
2019/10/13 08:31:01	BASE	7.17	205	9.26	206	-8.5	100	-8.5	1	0	1006.4	NA	0.0000		9999	1410	0	0	0
2019/10/13 08:32:01	BASE	8.20	204	9.26	206	-8.5	100	-8.5	1	0	1006.4	NA	0.0000		9999	1380	0	0	0
2019/10/13 08:33:01	BASE	8.01	202	9.26	206	-8.5	100	-8.5	1	0	1006.4	NA	0.0000		9999	1350	0	0	0
2019/10/13 08:34:01	BASE	7.00	204	9.26	206	-8.5	100	-8.5	1	0	1006.5	NA	0.0000		9999	1280	0	0	0
2019/10/13 08:35:01	BASE	5.91	210	9.26	206	-8.5	100	-8.5	1	0	1006.5	NA	0.0000		9999	1410	0	0	0
2019/10/13 08:36:01	BASE	6.77	215	9.26	206	-8.5	100	-8.5	1	0	1006.5	NA	0.0000		9999	1440	0	0	0
2019/10/13 08:37:01	BASE	6.70	213	9.26	206	-8.5	100	-8.5	1	0	1006.5	NA	0.0000		9999	1410	0	0	0
2019/10/13 08:38:01	BASE	5.50	215	9.26	206	-8.5	100	-8.5	1	0	1006.5	NA	0.0000		9999	1350	0	0	0
2019/10/13 08:39:01	BASE	5.38	227	9.26	206	-8.5	100	-8.5	1	0	1006.5	NA	0.0000		9999	1380	0	0	0
2019/10/13 08:40:01	BASE	6.39	232	9.26	206	-8.4	99	-8.5	1	0	1006.5	NA	0.0000		9999	1380	0	0	0
2019/10/13 08:41:01	BASE	6.96	224	9.00	195	-8.4	99	-8.5	1	0	1006.5	NA	0.0000		9999	1410	0	0	0
2019/10/13 08:42:01	BASE	6.28	219	9.00	195	-8.4	98	-8.6	2	0	1006.5	NA	0.0000		9999	1380	0	0	0
2019/10/13 08:43:01	BASE	5.64	224	8.28	231	-8.3	98	-8.6	2	0	1006.5	NA	0.0000		9999	1440	0	0	0
2019/10/13 08:44:01	BASE	5.59	225	8.28	231	-8.3	97	-8.7	2	0	1006.6	NA	0.0000		9999	1350	0	0	0
2019/10/13 08:45:01	BASE	5.66	219	8.28	231	-8.3	97	-8.7	2	0	1006.6	NA	0.0000		9999	1350	0	0	0
2019/10/13 08:46:01	BASE	5.59	217	8.28	231	-8.3	96	-8.8	2	0	1006.6	NA	0.0000		9999	1380	0	0	0
2019/10/13 08:47:01	BASE	6.04	212	8.28	231	-8.3	96	-8.9	2	0	1006.6	NA	0.0000		9999	1350	0	0	0
2019/10/13 08:48:01	BASE	6.24	207	8.28	231	-8.3	95	-8.9	2	0	1006.6	NA	0.0000		9999	1380	0	0	0
2019/10/13 08:49:01	BASE	6.44	211	8.28	231	-8.3	95	-9.0	2	0	1006.6	NA	0.0000		9999	1350	0	0	0
2019/10/13 08:50:01	BASE	6.49	215	7.72	225	-8.3	94	-9.0	3	0	1006.7	NA	0.0000		9999	1380	0	0	0
2019/10/13 08:51:01	BASE	5.80	223	7.15	213	-8.3	94	-9.1	3	0	1006.7	NA	0.0000		9999	1380	0	0	0
2019/10/13 08:52:01	BASE	6.75	238	9.05	242	-8.3	94	-9.1	3	0	1006.6	NA	0.0000		9999	1350	0	0	0
2019/10/13 08:53:01	BASE	7.36	239	9.05	242	-8.3	93	-9.2	3	0	1006.6	NA	0.0000		9999	1380	0	0	0
2019/10/13 08:54:01	BASE	7.53	233	9.57	232	-8.3	93	-9.2	3	0	1006.6	NA	0.0000		9999	1380	0	0	0
2019/10/13 08:55:01	BASE	7.87	232	9.57	232	-8.3	93	-9.3	3	0	1006.6	NA	0.0000		9999	1440	0	0	0
2019/10/13 08:56:01	BASE	6.86	236	9.57	232	-8.3	93	-9.3	4	0	1006.6	NA	0.0000		9999	1380	0	0	0
2019/10/13 08:57:01	BASE	6.16	244	9.57	232	-8.3	92	-9.3	4	0	1006.6	NA	0.0000		9999	1280	0	0	0
2019/10/13 08:58:01	BASE	5.61	248	9.57	232	-8.3	92	-9.3	4	0	1006.6	NA	0.0000		9999	1250	0	0	0
2019/10/13 08:59:01	BASE	5.84	247	9.57	232	-8.3	92	-9.3	4	0	1006.6	NA	0.0000		9999	1310	0	0	0
2019/10/13 09:00:01	BASE	6.69	249	9.57	232	-8.3	92	-9.3	5	0	1006.6	NA	0.0000		9999	1250	0	0	0
2019/10/13 09:01:01	BASE	7.00	249	9.57	232	-8.3	92	-9.3	5	0	1006.6	NA	0.0000		9999	1210	0	0	0
2019/10/13 09:02:01	BASE	6.43	244	9.57	232	-8.3	92	-9.3	5	0	1006.7	NA	0.0000		9999	1150	0	0	0
2019/10/13 09:03:01	BASE	5.41	237	9.57	232	-8.3	92	-9.3	5	0	1006.7	NA	0.0000		9999	1250	0	0	0
2019/10/13 09:04:01	BASE	5.06	235	7.82	231	-8.3	92	-9.3	5	0	1006.6	NA	0.0000		9999	1380	0	0	0
2019/10/13 09:05:01	BASE	5.62	236	7.61	247	-8.2	92	-9.3	6	0	1006.7	NA	0.0000		9999	1380	0	0	0
2019/10/13 09:06:01	BASE	6.07	241	7.61	247	-8.2	92	-9.3	6	0	1006.7	NA	0.0000		9999	1210	0	0	0
2019/10/13 09:07:01	BASE	5.93	242	7.61	247	-8.2	92	-9.2	7	0	1006.7	NA	0.0000		9999	1210	0	0	0
2019/10/13 09:08:01	BASE	7.05	231	9.21	221	-8.2	93	-9.2	7	0	1006.7	NA	0.0000		9999	1210	0	0	0
2019/10/13 09:09:01	BASE	8.41	225	9.21	221	-8.2	93	-9.2	8	0	1006.7	NA	0.0000		9999	1410	0	0	0
2019/10/13 09:10:01	BASE	8.92	229	10.29	233	-8.2	93	-9.1	8	0	1006.7	NA	0.0000		9999	1210	0	0	0
2019/10/13 09:11:01	BASE	8.78	232	10.29	233	-8.2	93	-9.1	8	0	1006.8	NA	0.0000		9999	1350	0	0	0
2019/10/13 09:12:01	BASE	8.46	236	10.29	233	-8.2	94	-9.1	9	0	1006.9	NA	0.0000		9999	1410	0	0	0
2019/10/13 09:13:01	BASE	8.44	238	10.29	233	-8.2	94	-9.0	9	0	1006.9	NA	0.0000		9999	1410	0	0	0
2019/10/13 09:14:01	BASE	8.14	235	10.29	233	-8.2	94	-9.0	9	0	1006.9	NA	0.0000		9999	1480	0	0	0
2019/10/13 09:15:01	BASE	8.67	233	10.70	239	-8.2	94	-9.0	9	0	1006.9	NA	0.0000		9999	1480	0	0	0
2019/10/13 09:16:01	BASE	8.96	236	10.70	239	-8.3	94	-9.1	9	0	1006.9	NA	0.0000		9999	1380	0	0	0
2019/10/13 09:17:01	BASE	8.66	235	10.70	239	-8.3	94	-9.1	10	0	1006.9	NA	0.0000		9999	1440	0	0	0
2019/10/13 09:18:01	BASE	9.02	231	10.70	229	-8.3	94	-9.1	10	0	1006.9	NA	0.0000		9999	1440	0	0	0
2019/10/13 09:19:01	BASE	9.39	233	10.70	229	-8.3	94	-9.1	11	0	1006.9	NA	0.0000		9999	1480	0	0	0
2019/10/13 09:20:01	BASE	9.68	233	10.75	244	-8.3	94	-9.1	11	0	1006.9	NA	0.0000		9999	1480	0	0	0
2019/10/13 09:21:01	BASE	9.37	229	10.75	244	-8.4	94	-9.1	12	0	1007.0	NA	0.0000		9999	1540	0	0	0
2019/10/13 09:22:01	BASE	7.93	232	10.75	244	-8.4	94	-9.2	13	0	1007.0	NA	0.0000		9999	1510	0	0	0
2019/10/13 09:23:01	BASE	8.04	234	10.75	244	-8.4	94	-9.2	15	0	1007.0	NA	0.0000		9999	1540	0	0	0
2019/10/13 09:24:01	BASE	9.14	231	10.75	244	-8.4	94	-9.2	15	0	1007.0	NA	0.0000		9999	1410	0	0	0
2019/10/13 09:25:01	BASE	8.58	235	10.75	244	-8.4	94	-9.2	15	0	1007.0	NA	0.0000		9999	1510	0	0	0
2019/10/13 09:26:01	BASE	7.57	237	10.75	244	-8.4	94	-9.2	15	0	1007.0	NA	0.0000		9999	1440	0	0	0
2019/10/13 09:27:01	BASE	7.28	240	10.75	244	-8.4	94	-9.2	16	0	1007.1	NA	0.0000		9999	1410	0	0	0
2019/10/13 09:28:01	BASE	8.47	242	10.75	244	-8.4	94	-9.2	16	0	1007.0	NA	0.0000		9999	1210	0	0	0
2019/10/13 09:29:01	BASE	9.60	244	10.75	244	-8.4	94	-9.3	16	0	1007.1	NA	0.0000		9999	1210	0	0	0
2019/10/13 09:30:01	BASE	9.41	249	10.70	252	-8.4	93	-9.3	16	0	1007.1	NA	0.0000		9999	1280	0	0	0
2019/10/13 09:31:01	BASE	9.59	248	11.88	247	-8.4	93	-9.4	17	0	1007.1	NA	0.0000		9999	1310	0	0	0
2019/10/13 09:32:01	BASE	9.00	242	11.88	247	-8.5	93	-9.4	18	0	1007.1	NA	0.0000		9999	1480	0	0	0
2019/10/13 09:33:01	BASE	8.23	235	11.88	247	-8.5	93	-9.4	19	0	1007.1	NA	0.0000		9999	1510	0	0	0
2019/10/13 09:34:01	BASE	8.99	234	11.88	247	-8.4	93	-9.4	21	0	1007.1	NA	0.0000		9999	1410	0	0	0
2019/10/13 09:35:01	BASE	9.14	234	11.88	247	-8.4	93	-9.3	21	0	1007.2	NA	0.0000		9999	1440	0	0	0
2019/10/13 09:36:01	BASE	8.45	229	11.88	247	-8.4	93	-9.3	23	0	1007.2	NA	0.0000		9999	1280	0	0	0
2019/10/13 09:37:01	BASE	7.86	232	11.88	247	-8.4	93	-9.3	24	0	1007.2	NA	0.0000		9999	1250	0	0	0
2019/10/13 09:38:01	BASE	8.04	241	11.88	247	-8.4	93	-9.4	26	0	1007.2	NA	0.0000		9999	1250	0	0	0
2019/10/13 09:39:01	BASE	8.57	249	11.88	247	-8.4	93	-9.4	28	0	1007.2	NA	0.0000		9999	1250	0	0	0
2019/10/13 09:40:01	BASE	7.97	261	11.88	247	-8.5	93	-9.4	29	0	1007.2	NA	0.0000		9999	1410	0	0	0
2019/10/13 09:41:01	BASE	7.60	275	10.34	234	-8.5	93	-9.4	29	0	1007.2	NA	0.0000		9999	1250	0	0	0
2019/10/13 09:42:01	BASE	8.16	280	10.34	234	-8.6	93	-9.5	29	0	1007.2	NA	0.0000		9999	1250	0	0	0
2019/10/13 09:43:01	BASE	8.96	284	10.34	234	-8.7	93	-9.6	29	0	1007.2	NA	0.0000		9999	1250	0	0	0
2019/10/13 09:44:01	BASE	8.93	279	10.24	294	-8.7	93	-9.6	26	0	1007.2	NA	0.0000		9999	590	1280	0	0
2019/10/13 09:45:01	BASE	8.18	276	10.24	294	-8.8	93	-9.7	24	0	1007.2	NA	0.0000		9999	620	0	0	0
2019/10/13 09:46:01	BASE	8.09	282	10.24	294	-8.9	94	-9.7	24	0	1007.3	NA	0.0000		9999	690	0	0	0
2019/10/13 09:47:01	BASE	9.19	289	10.55	291	-9.0	94	-9.8	24	0	1007.2	NA	0.0000		9999	660	1280	0	0
2019/10/13 09:48:01	BASE	9.81	292	10.55	291	-9.1	95	-9.9	23	0	1007.3	NA	0.0000		9999	590	0	0	0
2019/10/13 09:49:01	BASE	8.92	291	10.55	291	-9.3	95	-9.9	25	0	1007.3	NA	0.0000		9999	560	0	0	0
2019/10/13 09:50:01	BASE	8.24	290	10.55	291	-9.4	95	-10.0	28	0	1007.3	NA	0.0000		9999	660	0	0	0
2019/10/13 09:51:01	BASE	7.56	288	10.55	291	-9.5	96	-10.1	30	0	1007.3	NA	0.0000		9999	1210	0	0	0
2019/10/13 09:52:01	BASE	7.02	284	10.55	291	-9.6	96	-10.1	32	0	1007.4	NA	0.0000		9999	1250	0	0	0
2019/10/13 09:53:01	BASE	6.91	287	10.55	291	-9.6	97	-10.0	32	0	1007.5	NA	0.0000		9999	660	1280	0	0
2019/10/13 09:54:01	BASE	6.57	294	10.55	291	-9.5	97	-9.9	32	0	1007.5	NA	0.0000		9999	590	1280	0	0
2019/10/13 09:55:01	BASE	6.54	296	10.55	291	-9.5	98	-9.8	32	0	1007.5	NA	0.0000		9999	660	1310	0	0
2019/10/13 09:56:01	BASE	6.63	300	10.55	291	-9.5	98	-9.8	35	0	1007.5	NA	0.0000		9999	1310	0	0	0
2019/10/13 09:57:01	BASE	6.64	303	10.24	290	-9.5	98	-9.7	37	0	1007.5	NA	0.0000		9999	1210	0	0	0
2019/10/13 09:58:01	BASE	6.25	300	9.00	294	-9.5	99	-9.7	39	0	1007.5	NA	0.0000		9999	660	0	0	0
2019/10/13 09:59:01	BASE	5.53	295	8.75	285	-9.5	99	-9.6	41	0	1007.5	NA	0.0000		9999	1050	0	0	0
2019/10/13 10:00:01	BASE	5.55	292	8.59	276	-9.5	99	-9.6	42	0	1007.5	NA	0.0000		9999	690	1380	0	0
2019/10/13 10:01:01	BASE	5.32	294	8.59	276	-9.5	100	-9.5	44	0	1007.5	NA	0.0000		9999	690	0	0	0
2019/10/13 10:02:01	BASE	5.25	304	7.87	286	-9.4	100	-9.5	45	0	1007.5	NA	0.0000		9999	850	0	0	0
2019/10/13 10:03:00	BASE	6.18	312	7.87	286	-9.5	100	-9.5	46	0	1007.5	NA	0.0000		9999	1210	0	0	0
2019/10/13 10:04:01	BASE	6.77	318	7.87	286	-9.5	100	-9.5	44	0	1007.5	NA	0.0000		9999	1020	0	0	0
2019/10/13 10:05:01	BASE	7.06	323	8.28	320	-9.6	100	-9.6	44	0	1007.4	NA	0.0000		9999	690	1310	0	0
2019/10/13 10:06:01	BASE	6.98	324	8.28	320	-9.7	100	-9.7	47	0	1007.5	NA	0.0000		9999	690	0	0	0
2019/10/13 10:07:00	BASE	7.12	326	8.54	324	-9.8	100	-9.8	49	0	1007.5	NA	0.0000		9999	690	1480	0	0
2019/10/13 10:08:01	BASE	7.98	323	9.05	322	-9.9	100	-9.9	50	0	1007.5	NA	0.0000		9999	690	0	0	0
2019/10/13 10:09:00	BASE	8.08	318	9.05	322	-9.9	100	-9.9	50	0	1007.5	NA	0.0000		9999	590	1250	0	0
2019/10/13 10:10:01	BASE	7.52	312	9.05	322	-9.8	100	-9.8	52	0	1007.5	NA	0.0000		9999	660	0	0	0
2019/10/13 10:11:01	BASE	6.97	310	9.05	322	-9.8	100	-9.8	54	0	1007.5	NA	0.0000		9999	660	0	0	0
2019/10/13 10:12:01	BASE	6.54	310	9.05	322	-9.7	100	-9.7	57	0	1007.5	NA	0.0000		9999	750	0	0	0
2019/10/13 10:13:00	BASE	6.60	309	9.05	322	-9.7	100	-9.7	57	0	1007.5	NA	0.0000		9999	750	0	0	0
2019/10/13 10:14:01	BASE	6.66	307	9.05	322	-9.7	100	-9.7	57	0	1007.6	NA	0.0000		9999	660	0	0	0
2019/10/13 10:15:01	BASE	6.11	303	9.05	322	-9.7	100	-9.7	55	0	1007.6	NA	0.0000		9999	660	0	0	0
2019/10/13 10:16:01	BASE	5.59	301	9.05	322	-9.6	100	-9.6	52	0	1007.6	NA	0.0000		9999	750	0	0	0
2019/10/13 10:17:00	BASE	5.33	303	9.05	322	-9.6	100	-9.6	50	0	1007.5	NA	0.0000		9999	750	0	0	0
2019/10/13 10:18:01	BASE	5.21	302	8.95	321	-9.6	100	-9.6	52	0	1007.5	NA	0.0000		9999	750	0	0	0
2019/10/13 10:19:00	BASE	5.47	300	7.82	306	-9.5	100	-9.5	53	0	1007.5	NA	0.0000		9999	690	1410	0	0
2019/10/13 10:20:00	BASE	5.61	298	7.25	310	-9.5	100	-9.5	54	0	1007.5	NA	0.0000		9999	690	0	0	0
2019/10/13 10:21:00	BASE	5.39	299	7.15	307	-9.4	100	-9.4	53	0	1007.5	NA	0.0000		9999	660	0	0	0
2019/10/13 10:22:00	BASE	4.93	300	7.15	307	-9.4	100	-9.4	54	0	1007.5	NA	0.0000		9999	660	1280	0	0
2019/10/13 10:23:00	BASE	4.84	293	7.00	302	-9.4	100	-9.4	56	0	1007.5	NA	0.0000		9999	750	0	0	0
2019/10/13 10:24:01	BASE	4.93	277	6.58	292	-9.3	100	-9.3	56	0	1007.5	NA	0.0000		9999	720	0	0	0
2019/10/13 10:25:01	BASE	4.64	275	6.58	292	-9.3	100	-9.3	55	0	1007.5	NA	0.0000		9999	720	0	0	0
2019/10/13 10:26:00	BASE	5.12	282	6.69	288	-9.2	100	-9.2	54	0	1007.4	NA	0.0000		9999	660	0	0	0
2019/10/13 10:27:00	BASE	5.76	276	7.25	269	-9.2	100	-9.2	54	0	1007.4	NA	0.0000		9999	690	0	0	0
2019/10/13 10:28:00	BASE	6.85	279	9.21	289	-9.1	100	-9.1	57	0	1007.3	NA	0.0000		9999	790	0	0	0
2019/10/13 10:29:00	BASE	7.81	287	9.21	289	-9.1	100	-9.1	61	0	1007.4	NA	0.0000		9999	790	0	0	0
2019/10/13 10:30:01	BASE	8.26	283	9.52	274	-9.1	100	-9.1	64	0	1007.4	NA	0.0000		9999	660	1020	0	0
2019/10/13 10:31:00	BASE	8.49	280	9.52	274	-9.2	100	-9.2	65	0	1007.5	NA	0.0000		9999	660	0	0	0
2019/10/13 10:32:01	BASE	8.08	284	9.52	274	-9.2	100	-9.2	64	0	1007.5	NA	0.0000		9999	590	1310	0	0
2019/10/13 10:33:00	BASE	7.77	285	9.52	274	-9.2	100	-9.2	64	0	1007.5	NA	0.0000		9999	620	0	0	0
2019/10/13 10:34:00	BASE	7.34	285	9.52	274	-9.3	100	-9.3	65	0	1007.5	NA	0.0000		9999	620	0	0	0
2019/10/13 10:35:00	BASE	6.63	282	9.52	274	-9.3	100	-9.3	67	0	1007.5	NA	0.0000		9999	660	0	0	0
2019/10/13 10:36:00	BASE	5.89	277	9.52	274	-9.3	100	-9.3	69	0	1007.5	NA	0.0000		9999	1210	0	0	0
2019/10/13 10:37:00	BASE	6.26	279	10.19	290	-9.3	100	-9.3	68	0	1007.5	NA	0.0000		9999	660	1410	0	0
2019/10/13 10:38:00	BASE	8.33	286	10.29	290	-9.3	100	-9.3	67	0	1007.5	NA	0.0000		9999	590	0	0	0
2019/10/13 10:39:01	BASE	9.18	286	10.29	290	-9.4	100	-9.4	67	0	1007.5	NA	0.0000		9999	620	0	0	0
2019/10/13 10:40:00	BASE	8.78	284	10.29	290	-9.5	100	-9.5	67	0	1007.5	NA	0.0000		9999	620	0	0	0
2019/10/13 10:41:00	BASE	8.44	288	10.29	290	-9.6	100	-9.6	67	0	1007.5	NA	0.0000		9999	660	0	0	0
2019/10/13 10:42:00	BASE	8.18	287	10.29	290	-9.8	100	-9.8	67	0	1007.5	NA	0.0000		9999	590	0	0	0
2019/10/13 10:43:00	BASE	8.09	287	10.29	290	-9.9	100	-9.9	67	0	1007.5	NA	0.0000		9999	590	0	0	0
2019/10/13 10:44:00	BASE	7.99	290	10.29	290	-9.9	100	-9.9	69	0	1007.5	NA	0.0000		9999	590	0	0	0
2019/10/13 10:45:00	BASE	8.10	286	10.29	290	-10.0	100	-10.0	72	0	1007.5	NA	0.0000		9999	590	0	0	0
2019/10/13 10:46:00	BASE	7.61	284	10.29	290	-10.0	100	-10.0	78	0	1007.5	NA	0.0000		9999	590	1120	0	0
2019/10/13 10:47:00	BASE	7.31	286	10.29	290	-10.0	100	-10.0	83	0	1007.6	NA	0.0000		9999	560	1510	0	0
2019/10/13 10:48:00	BASE	7.60	286	10.03	290	-10.0	100	-10.0	84	0	1007.6	NA	0.0000		9999	560	0	0	0
2019/10/13 10:49:00	BASE	7.78	284	10.03	290	-10.0	100	-10.0	81	0	1007.6	NA	0.0000		9999	620	0	0	0
2019/10/13 10:50:00	BASE	7.57	283	9.41	280	-10.0	100	-10.0	82	0	1007.6	NA	0.0000		9999	560	0	0	0
2019/10/13 10:51:00	BASE	7.74	282	9.41	280	-10.0	100	-10.0	84	0	1007.6	NA	0.0000		9999	520	20180	0	0
2019/10/13 10:52:00	BASE	7.55	281	9.41	280	-10.0	100	-10.0	84	0	1007.6	NA	0.0000		9999	560	0	0	0
2019/10/13 10:53:00	BASE	6.88	281	9.41	280	-10.0	100	-10.0	84	0	1007.6	NA	0.0000		9999	560	0	0	0
2019/10/13 10:54:01	BASE	6.39	281	9.41	280	-10.0	100	-10.0	85	0	1007.6	NA	0.0000		9999	620	0	0	0
2019/10/13 10:55:00	BASE	6.31	287	9.41	280	-10.0	100	-10.0	81	0	1007.7	NA	0.0000		9999	620	0	0	0
2019/10/13 10:56:00	BASE	6.90	294	9.41	280	-10.0	100	-10.0	81	0	1007.7	NA	0.0000		9999	590	0	0	0
2019/10/13 10:57:00	BASE	7.23	299	9.41	280	-10.0	100	-10.0	84	0	1007.7	NA	0.0000		9999	590	0	0	0
2019/10/13 10:58:00	BASE	7.10	303	9.41	280	-10.0	100	-10.0	82	0	1007.7	NA	0.0000		9999	590	0	0	0
2019/10/13 10:59:00	BASE	6.82	298	8.95	280	-10.0	100	-10.0	77	0	1007.7	NA	0.0000		9999	560	0	0	0
2019/10/13 11:00:00	BASE	6.85	292	8.90	278	-10.0	100	-10.0	75	0	1007.7	NA	0.0000		9999	520	0	0	0
2019/10/13 11:01:00	BASE	6.88	287	8.39	275	-10.0	100	-10.0	74	0	1007.7	NA	0.0000		9999	520	0	0	0
2019/10/13 11:02:00	BASE	6.79	288	8.39	275	-10.0	100	-10.0	75	0	1007.7	NA	0.0000		9999	560	0	0	0
2019/10/13 11:03:00	BASE	6.77	288	8.33	284	-10.0	100	-10.0	83	0	1007.7	NA	0.0000		9999	720	0	0	0
2019/10/13 11:04:00	BASE	6.37	289	8.33	284	-10.0	100	-10.0	91	0	1007.6	NA	0.0000		9999	720	0	0	0
2019/10/13 11:05:00	BASE	6.73	290	8.33	284	-10.0	100	-10.0	92	0	1007.6	NA	0.0000		9999	690	0	0	0
2019/10/13 11:06:00	BASE	7.31	288	8.33	284	-9.9	100	-9.9	90	0	1007.6	NA	0.0000		9999	720	0	0	0
2019/10/13 11:07:00	BASE	7.20	287	8.33	284	-9.9	100	-9.9	85	0	1007.6	NA	0.0000		9999	720	0	0	0
2019/10/13 11:08:00	BASE	6.90	279	8.33	284	-9.9	100	-9.9	79	0	1007.6	NA	0.0000		9999	820	0	0	0
2019/10/13 11:09:00	BASE	6.28	263	8.33	284	-9.8	100	-9.8	78	0	1007.5	NA	0.0000		9999	850	0	0	0
2019/10/13 11:10:00	BASE	7.33	253	9.67	251	-9.7	100	-9.7	77	0	1007.6	NA	0.0000		9999	920	0	0	0
2019/10/13 11:11:00	BASE	8.68	251	9.67	251	-9.7	100	-9.7	79	0	1007.6	NA	0.0000		9999	920	0	0	0
2019/10/13 11:12:00	BASE	8.37	250	9.67	251	-9.6	100	-9.6	86	0	1007.5	NA	0.0000		9999	920	0	0	0
2019/10/13 11:13:00	BASE	8.05	249	9.67	251	-9.6	100	-9.6	94	0	1007.6	NA	0.0000		9999	920	0	0	0
2019/10/13 11:14:00	BASE	7.75	247	9.67	251	-9.6	100	-9.6	96	0	1007.6	NA	0.0000		9999	950	0	0	0
2019/10/13 11:15:00	BASE	6.74	244	9.67	251	-9.6	100	-9.6	95	0	1007.6	NA	0.0000		9999	920	0	0	0
2019/10/13 11:16:00	BASE	5.87	248	9.67	251	-9.6	100	-9.6	97	0	1007.6	NA	0.0000		9999	820	0	0	0
2019/10/13 11:17:00	BASE	5.94	249	9.67	251	-9.6	100	-9.6	100	0	1007.6	NA	0.0000		9999	750	0	0	0
2019/10/13 11:18:00	BASE	6.44	241	9.67	251	-9.6	100	-9.6	106	0	1007.7	NA	0.0000		9999	820	0	0	0
2019/10/13 11:19:00	BASE	7.31	233	9.67	251	-9.6	100	-9.6	115	0	1007.7	NA	0.0000		9999	820	0	0	0
2019/10/13 11:20:00	BASE	6.51	233	9.41	245	-9.6	100	-9.6	125	0	1007.7	NA	0.0000		9999	950	0	0	0
2019/10/13 11:21:00	BASE	5.41	240	9.41	245	-9.6	100	-9.6	137	0	1007.7	NA	0.0000		9999	890	0	0	0
2019/10/13 11:22:00	BASE	5.22	248	9.41	245	-9.6	100	-9.6	153	0	1007.7	NA	0.0000		9999	920	0	0	0
2019/10/13 11:23:00	BASE	4.91	259	9.21	238	-9.6	100	-9.6	155	0	1007.7	NA	0.0000		9999	850	0	0	0
2019/10/13 11:24:00	BASE	4.65	266	9.21	238	-9.6	100	-9.6	143	0	1007.7	NA	0.0000		9999	820	0	0	0
2019/10/13 11:25:00	BASE	4.68	262	9.21	238	-9.6	100	-9.6	129	0	1007.8	NA	0.0000		9999	890	21950	0	0
2019/10/13 11:26:00	BASE	5.07	258	9.21	238	-9.6	100	-9.6	121	0	1007.8	NA	0.0000		9999	890	0	0	0
2019/10/13 11:27:00	BASE	5.07	253	9.21	238	-9.6	100	-9.6	117	0	1007.8	NA	0.0000		9999	790	0	0	0
2019/10/13 11:28:00	BASE	5.01	239	9.21	238	-9.6	100	-9.6	117	0	1007.7	NA	0.0000		9999	890	0	0	0
2019/10/13 11:29:00	BASE	4.68	225	6.12	248	-9.6	100	-9.6	112	0	1007.7	NA	0.0000		9999	850	0	0	0
2019/10/13 11:30:00	BASE	4.02	228	6.12	248	-9.6	100	-9.6	108	0	1007.8	NA	0.0000		9999	850	0	0	0
2019/10/13 11:31:00	BASE	3.87	243	6.02	262	-9.6	100	-9.6	114	0	1007.8	NA	0.0000		9999	850	0	0	0
2019/10/13 11:32:00	BASE	3.82	252	6.02	262	-9.6	100	-9.6	125	0	1007.8	NA	0.0000		9999	820	0	0	0
2019/10/13 11:33:00	BASE	4.06	254	6.02	262	-9.5	100	-9.5	141	0	1007.8	NA	0.0000		9999	850	0	0	0
2019/10/13 11:34:00	BASE	4.36	257	6.02	262	-9.5	100	-9.5	139	0	1007.8	NA	0.0000		9999	820	0	0	0
2019/10/13 11:35:00	BASE	4.53	288	6.02	262	-9.5	100	-9.5	137	0	1007.8	NA	0.0000		9999	790	0	0	0
2019/10/13 11:36:00	BASE	4.70	321	6.02	262	-9.6	100	-9.6	140	0	1007.8	NA	0.0000		9999	790	0	0	0
2019/10/13 11:37:00	BASE	4.37	329	5.71	225	-9.6	100	-9.6	154	0	1007.8	NA	0.0000		9999	820	0	0	0
2019/10/13 11:38:00	BASE	4.68	324	5.66	326	-9.7	100	-9.7	170	0	1007.8	NA	0.0000		9999	890	23620	0	0
2019/10/13 11:39:00	BASE	5.78	317	7.72	320	-9.7	100	-9.7	165	0	1007.7	NA	0.0000		9999	720	0	0	0
2019/10/13 11:40:00	BASE	6.67	317	7.72	320	-9.8	100	-9.8	153	0	1007.8	NA	0.0000		9999	690	0	0	0
2019/10/13 11:41:00	BASE	6.82	322	7.72	320	-9.8	100	-9.8	146	0	1007.8	NA	0.0000		9999	690	0	0	0
2019/10/13 11:42:00	BASE	6.83	323	7.72	320	-9.8	100	-9.8	145	0	1007.8	NA	0.0000		9999	720	0	0	0
2019/10/13 11:43:00	BASE	6.83	318	7.72	320	-9.9	100	-9.9	137	0	1007.8	NA	0.0000		9999	750	0	0	0
2019/10/13 11:44:00	BASE	6.75	314	7.72	320	-10.0	100	-10.0	130	0	1007.8	NA	0.0000		9999	750	0	0	0
2019/10/13 11:45:00	BASE	6.64	310	7.72	320	-10.0	100	-10.0	123	0	1007.8	NA	0.0000		9999	720	0	0	0
2019/10/13 11:46:00	BASE	6.20	307	7.72	320	-10.0	100	-10.0	116	0	1007.8	NA	0.0000		9999	660	0	0	0
2019/10/13 11:47:00	BASE	6.23	311	7.72	320	-10.0	100	-10.0	114	0	1007.8	NA	0.0000		9999	590	0	0	0
2019/10/13 11:48:01	BASE	6.31	313	7.72	320	-10.0	100	-10.0	116	0	1007.9	NA	0.0000		9999	660	0	0	0
2019/10/13 11:49:01	BASE	6.02	313	7.51	321	-10.0	100	-10.0	118	0	1007.9	NA	0.0000		9999	660	0	0	0
2019/10/13 11:50:01	BASE	6.32	320	7.51	321	-10.0	100	-10.0	117	0	1007.9	NA	0.0000		9999	620	0	0	0
2019/10/13 11:51:00	BASE	6.89	323	7.77	322	-10.0	100	-10.0	115	0	1007.9	NA	0.0000		9999	620	0	0	0
2019/10/13 11:52:00	BASE	6.91	323	7.77	322	-10.1	100	-10.1	116	0	1007.9	NA	0.0000		9999	590	0	0	0
2019/10/13 11:53:00	BASE	7.09	322	7.87	318	-10.1	100	-10.1	117	0	1007.9	NA	0.0000		9999	590	0	0	0
2019/10/13 11:54:00	BASE	7.40	320	8.03	317	-10.1	100	-10.1	120	0	1007.9	NA	0.0000		9999	590	0	0	0
2019/10/13 11:55:00	BASE	7.85	315	8.80	311	-10.1	100	-10.1	121	0	1007.9	NA	0.0000		9999	590	0	0	0
2019/10/13 11:56:00	BASE	8.25	314	8.85	312	-10.1	100	-10.1	122	0	1007.8	NA	0.0000		9999	590	0	0	0
2019/10/13 11:57:00	BASE	7.95	314	8.85	312	-10.1	100	-10.1	127	0	1007.8	NA	0.0000		9999	590	0	0	0
2019/10/13 11:58:00	BASE	7.67	314	8.85	312	-10.1	100	-10.1	132	0	1007.8	NA	0.0000		9999	560	0	0	0
2019/10/13 11:59:00	BASE	7.10	318	8.85	312	-10.1	100	-10.1	136	0	1007.8	NA	0.0000		9999	590	0	0	0
2019/10/13 12:00:00	BASE	6.57	321	8.85	312	-10.1	100	-10.1	137	0	1007.8	NA	0.0000		9999	620	0	0	0
2019/10/13 12:01:00	BASE	6.28	321	8.85	312	-10.1	100	-10.1	136	0	1007.8	NA	0.0000		9999	620	0	0	0
2019/10/13 12:02:00	BASE	6.20	325	8.85	312	-10.1	100	-10.1	132	0	1007.8	NA	0.0000		9999	590	0	0	0
2019/10/13 12:03:00	BASE	6.01	329	8.85	312	-10.1	100	-10.1	133	0	1007.8	NA	0.0000		9999	590	0	0	0
2019/10/13 12:04:00	BASE	5.36	331	8.85	312	-10.1	100	-10.1	139	0	1007.8	NA	0.0000		9999	660	0	0	0
2019/10/13 12:05:00	BASE	4.79	332	8.85	312	-10.1	100	-10.1	144	0	1007.8	NA	0.0000		9999	660	0	0	0
2019/10/13 12:06:00	BASE	4.83	334	8.08	313	-10.1	100	-10.1	145	0	1007.8	NA	0.0000		9999	690	0	0	0
2019/10/13 12:07:00	BASE	5.39	339	7.97	312	-10.1	100	-10.1	148	0	1007.8	NA	0.0000		9999	690	0	0	0
2019/10/13 12:08:00	BASE	5.66	343	7.15	314	-10.1	100	-10.1	153	0	1007.8	NA	0.0000		9999	690	0	0	0
2019/10/13 12:09:00	BASE	5.73	342	7.15	314	-10.1	100	-10.1	157	0	1007.8	NA	0.0000		9999	690	0	0	0
2019/10/13 12:10:00	BASE	5.66	341	6.84	326	-10.1	100	-10.1	157	0	1007.8	NA	0.0000		9999	690	22930	0	0
2019/10/13 12:11:00	BASE	5.58	340	6.84	326	-10.2	100	-10.2	158	0	1007.8	NA	0.0000		9999	690	0	0	0
2019/10/13 12:12:00	BASE	5.84	342	6.43	332	-10.2	100	-10.2	163	0	1007.8	NA	0.0000		9999	660	0	0	0
2019/10/13 12:13:00	BASE	5.93	341	6.58	340	-10.2	100	-10.2	168	0	1007.8	NA	0.0000		9999	660	0	0	0
2019/10/13 12:14:00	BASE	5.90	338	6.58	340	-10.1	100	-10.1	170	0	1007.8	NA	0.0000		9999	690	0	0	0
2019/10/13 12:15:00	BASE	5.91	336	6.58	340	-10.1	100	-10.1	171	0	1007.8	NA	0.0000		9999	660	0	0	0
2019/10/13 12:16:00	BASE	5.81	337	6.58	340	-10.1	100	-10.1	174	0	1007.8	NA	0.0000		9999	660	0	0	0
2019/10/13 12:17:00	BASE	5.83	340	6.58	340	-10.1	100	-10.1	179	0	1007.8	NA	0.0000		9999	660	0	0	0
2019/10/13 12:18:00	BASE	5.93	341	6.58	340	-10.1	100	-10.1	185	0	1007.8	NA	0.0000		9999	620	0	0	0
2019/10/13 12:19:00	BASE	5.78	341	6.58	340	-10.1	100	-10.1	191	0	1007.8	NA	0.0000		9999	620	0	0	0
2019/10/13 12:20:00	BASE	5.83	341	6.58	340	-10.1	100	-10.1	197	0	1007.8	NA	0.0000		9999	660	0	0	0
2019/10/13 12:21:00	BASE	5.92	341	6.58	340	-10.1	100	-10.1	205	0	1007.8	NA	0.0000		9999	660	23070	0	0
2019/10/13 12:22:00	BASE	5.95	341	7.25	327	-10.0	100	-10.0	214	0	1007.8	NA	0.0000		9999	660	0	0	0
2019/10/13 12:23:00	BASE	6.38	331	7.25	318	-10.0	100	-10.0	217	0	1007.8	NA	0.0000		9999	660	19850	0	0
2019/10/13 12:24:00	BASE	6.42	323	7.25	318	-10.0	100	-10.0	213	0	1007.8	NA	0.0000		9999	690	0	0	0
2019/10/13 12:25:00	BASE	6.28	318	7.25	318	-10.0	100	-10.0	213	0	1007.8	NA	0.0000		9999	720	0	0	0
2019/10/13 12:26:00	BASE	6.21	310	7.25	318	-10.0	100	-10.0	216	0	1007.9	NA	0.0000		9999	690	0	0	0
2019/10/13 12:27:00	BASE	5.89	304	7.25	318	-9.9	100	-9.9	220	0	1007.9	NA	0.0000		9999	690	0	0	0
2019/10/13 12:28:00	BASE	5.67	303	7.25	318	-9.9	100	-9.9	223	0	1007.9	NA	0.0000		9999	690	0	0	0
2019/10/13 12:29:00	BASE	5.72	299	7.25	318	-9.9	100	-9.9	227	0	1007.9	NA	0.0000		9999	720	0	0	0
2019/10/13 12:30:00	BASE	6.07	295	7.25	318	-9.9	100	-9.9	229	0	1007.9	NA	0.0000		9999	720	0	0	0
2019/10/13 12:31:00	BASE	5.81	296	7.25	318	-9.9	100	-9.9	224	0	1007.9	NA	0.0000		9999	750	0	0	0
2019/10/13 12:32:00	BASE	5.32	297	7.25	318	-9.9	100	-9.9	215	0	1007.9	NA	0.0000		9999	790	0	0	0
2019/10/13 12:33:00	BASE	5.46	295	7.00	293	-9.9	100	-9.9	209	0	1007.9	NA	0.0000		9999	820	0	0	0
2019/10/13 12:34:00	BASE	5.59	291	7.00	293	-9.9	100	-9.9	207	0	1007.9	NA	0.0000		9999	890	0	0	0
2019/10/13 12:35:00	BASE	5.56	293	7.00	293	-9.9	100	-9.9	203	0	1007.9	NA	0.0000		9999	850	18310	20640	0
2019/10/13 12:36:00	BASE	5.51	294	7.00	293	-9.9	100	-9.9	193	0	1007.9	NA	0.0000		9999	850	0	0	0
2019/10/13 12:37:00	BASE	5.65	294	7.00	293	-9.9	100	-9.9	181	0	1007.9	NA	0.0000		9999	890	0	0	0
2019/10/13 12:38:00	BASE	5.44	294	7.00	293	-9.9	100	-9.9	173	0	1007.9	NA	0.0000		9999	890	0	0	0
2019/10/13 12:39:00	BASE	5.20	294	7.00	293	-9.9	100	-9.9	167	0	1007.9	NA	0.0000		9999	890	0	0	0
2019/10/13 12:40:00	BASE	5.15	295	6.28	296	-9.9	100	-9.9	165	0	1007.9	NA	0.0000		9999	980	0	0	0
2019/10/13 12:41:00	BASE	5.20	297	6.28	296	-9.9	100	-9.9	166	0	1007.9	NA	0.0000		9999	950	0	0	0
2019/10/13 12:42:00	BASE	5.30	300	6.28	296	-9.8	100	-9.8	170	0	1008.0	NA	0.0000		9999	920	0	0	0
2019/10/13 12:43:00	BASE	4.84	304	6.28	296	-9.8	100	-9.8	172	0	1008.0	NA	0.0000		9999	950	0	0	0
2019/10/13 12:44:00	BASE	4.64	311	6.28	296	-9.8	100	-9.8	173	0	1008.0	NA	0.0000		9999	950	0	0	0
2019/10/13 12:45:00	BASE	4.62	311	6.28	296	-9.8	100	-9.8	174	0	1008.0	NA	0.0000		9999	980	0	0	0
2019/10/13 12:46:00	BASE	4.25	305	6.28	296	-9.8	100	-9.8	177	0	1008.0	NA	0.0000		9999	980	0	0	0
2019/10/13 12:47:00	BASE	3.71	299	6.02	301	-9.7	100	-9.7	187	0	1007.9	NA	0.0000		9999	790	0	0	0
2019/10/13 12:48:00	BASE	3.51	287	6.02	301	-9.7	100	-9.7	198	0	1008.0	NA	0.0000		9999	850	0	0	0
2019/10/13 12:49:00	BASE	4.53	278	6.69	287	-9.7	100	-9.7	205	0	1008.0	NA	0.0000		9999	890	0	0	0
2019/10/13 12:50:00	BASE	5.67	282	6.69	278	-9.6	100	-9.6	212	0	1008.0	NA	0.0000		9999	820	0	0	0
2019/10/13 12:51:00	BASE	5.93	289	6.69	278	-9.6	100	-9.6	220	0	1008.0	NA	0.0000		9999	850	0	0	0
2019/10/13 12:52:00	BASE	5.83	290	6.69	278	-9.7	100	-9.7	227	0	1008.0	NA	0.0000		9999	890	0	0	0
2019/10/13 12:53:00	BASE	5.68	290	6.69	278	-9.7	100	-9.7	236	0	1008.0	NA	0.0000		9999	890	0	0	0
2019/10/13 12:54:00	BASE	5.61	291	6.69	278	-9.7	100	-9.7	248	0	1008.0	NA	0.0000		9999	850	0	0	0
2019/10/13 12:55:00	BASE	5.43	293	6.69	278	-9.7	100	-9.7	260	0	1008.0	NA	0.0000		9999	920	0	0	0
2019/10/13 12:56:00	BASE	4.91	298	6.69	278	-9.7	100	-9.7	276	0	1008.0	NA	0.0000		9999	850	0	0	0
2019/10/13 12:57:00	BASE	4.65	301	6.69	278	-9.7	100	-9.7	292	0	1008.0	NA	0.0000		9999	820	0	0	0
2019/10/13 12:58:00	BASE	4.67	302	6.69	278	-9.7	100	-9.7	304	0	1008.0	NA	0.0000		9999	790	0	0	0
2019/10/13 12:59:00	BASE	4.55	303	6.69	278	-9.7	100	-9.7	311	0	1008.0	NA	0.0000		9999	690	0	0	0
2019/10/13 13:00:00	BASE	4.61	300	6.43	295	-9.7	100	-9.7	308	0	1007.9	NA	0.0000		9999	720	0	0	0
2019/10/13 13:01:00	BASE	4.66	298	6.43	295	-9.7	100	-9.7	296	0	1007.9	NA	0.0000		9999	890	0	0	0
2019/10/13 13:02:00	BASE	4.68	298	6.02	290	-9.7	100	-9.7	289	0	1007.9	NA	0.0000		9999	820	0	0	0
2019/10/13 13:03:00	BASE	4.57	296	6.02	290	-9.7	100	-9.7	290	0	1007.9	NA	0.0000		9999	790	0	0	0
2019/10/13 13:04:00	BASE	4.16	294	5.45	294	-9.7	100	-9.7	287	0	1007.9	NA	0.0000		9999	750	0	0	0
2019/10/13 13:05:00	BASE	3.97	297	5.25	298	-9.7	100	-9.7	277	0	1007.9	NA	0.0000		9999	790	0	0	0
2019/10/13 13:06:00	BASE	3.88	292	5.25	298	-9.7	100	-9.7	275	0	1007.9	NA	0.0000		9999	720	0	0	0
2019/10/13 13:07:00	BASE	3.59	290	5.25	298	-9.7	100	-9.7	268	0	1008.0	NA	0.0000		9999	720	0	0	0
2019/10/13 13:08:00	BASE	3.64	301	5.25	298	-9.6	100	-9.6	252	0	1008.0	NA	0.0000		9999	720	0	0	0
2019/10/13 13:09:00	BASE	3.86	311	5.25	298	-9.6	100	-9.6	246	0	1008.0	NA	0.0000		9999	720	0	0	0
2019/10/13 13:10:00	BASE	3.84	311	5.25	298	-9.7	100	-9.7	249	0	1008.0	NA	0.0000		9999	750	21420	0	0
2019/10/13 13:11:00	BASE	3.87	310	5.25	298	-9.7	100	-9.7	250	0	1008.0	NA	0.0000		9999	750	0	0	0
2019/10/13 13:12:00	BASE	4.13	309	4.84	306	-9.7	100	-9.7	250	0	1008.0	NA	0.0000		9999	790	0	0	0
2019/10/13 13:13:00	BASE	4.29	298	4.84	306	-9.7	100	-9.7	247	0	1008.0	NA	0.0000		9999	720	0	0	0
2019/10/13 13:14:00	BASE	4.27	292	4.84	306	-9.7	100	-9.7	246	0	1008.0	NA	0.0000		9999	690	0	0	0
2019/10/13 13:15:00	BASE	4.00	297	4.84	306	-9.7	100	-9.7	247	0	1008.0	NA	0.0000		9999	850	0	0	0
2019/10/13 13:16:00	BASE	3.95	300	4.84	306	-9.6	100	-9.6	249	0	1008.0	NA	0.0000		9999	820	0	0	0
2019/10/13 13:17:00	BASE	4.02	303	4.84	306	-9.6	100	-9.6	262	0	1008.0	NA	0.0000		9999	820	0	0	0
2019/10/13 13:18:00	BASE	3.59	309	4.84	306	-9.7	100	-9.7	276	0	1008.0	NA	0.0000		9999	820	0	0	0
2019/10/13 13:19:00	BASE	3.30	317	4.84	306	-9.7	100	-9.7	283	0	1008.0	NA	0.0000		9999	820	0	0	0
2019/10/13 13:20:00	BASE	3.49	318	4.84	306	-9.7	100	-9.7	285	0	1008.0	NA	0.0000		9999	790	0	0	0
2019/10/13 13:21:00	BASE	3.73	313	4.84	306	-9.7	100	-9.7	294	0	1008.0	NA	0.0000		9999	790	0	0	0
2019/10/13 13:22:00	BASE	3.64	308	4.68	294	-9.7	100	-9.7	295	0	1008.0	NA	0.0000		9999	720	0	0	0
2019/10/13 13:23:00	BASE	3.38	311	4.68	294	-9.6	100	-9.6	298	0	1008.0	NA	0.0000		9999	720	0	0	0
2019/10/13 13:24:00	BASE	3.26	307	4.48	292	-9.6	100	-9.6	308	0	1008.0	NA	0.0000		9999	720	0	0	0
2019/10/13 13:25:00	BASE	3.05	303	4.48	292	-9.6	100	-9.6	312	0	1008.0	NA	0.0000		9999	720	24050	0	0
2019/10/13 13:26:00	BASE	3.26	305	4.22	310	-9.6	100	-9.6	310	0	1008.0	NA	0.0000		9999	720	0	0	0
2019/10/13 13:27:00	BASE	3.86	300	4.42	309	-9.5	100	-9.5	307	0	1008.0	NA	0.0000		9999	750	0	0	0
2019/10/13 13:28:00	BASE	3.98	304	4.42	309	-9.5	100	-9.5	299	0	1008.2	NA	0.0000		9999	720	0	0	0
2019/10/13 13:29:00	BASE	3.75	307	4.42	309	-9.5	100	-9.5	292	0	1008.2	NA	0.0000		9999	750	0	0	0
2019/10/13 13:30:00	BASE	3.96	300	4.78	290	-9.4	100	-9.4	294	0	1008.2	NA	0.0000		9999	750	0	0	0
2019/10/13 13:31:00	BASE	4.31	295	4.78	290	-9.4	100	-9.4	296	0	1008.2	NA	0.0000		9999	720	0	0	0
2019/10/13 13:32:00	BASE	4.39	297	4.89	296	-9.4	100	-9.4	298	0	1008.2	NA	0.0000		9999	690	0	0	0
2019/10/13 13:33:00	BASE	4.26	303	4.89	296	-9.5	100	-9.5	308	0	1008.1	NA	0.0000		9999	720	0	0	0
2019/10/13 13:34:00	BASE	3.94	311	4.89	296	-9.5	100	-9.5	327	0	1008.0	NA	0.0000		9999	720	0	0	0
2019/10/13 13:35:00	BASE	3.98	316	4.89	296	-9.5	100	-9.5	347	0	1008.0	NA	0.0000		9999	720	0	0	0
2019/10/13 13:36:00	BASE	3.87	314	4.89	296	-9.5	100	-9.5	363	0	1008.0	NA	0.0000		9999	720	0	0	0
2019/10/13 13:37:00	BASE	3.45	310	4.89	296	-9.5	100	-9.5	384	0	1008.0	NA	0.0000		9999	750	0	0	0
2019/10/13 13:38:00	BASE	3.09	306	4.89	296	-9.5	100	-9.5	397	0	1008.0	NA	0.0000		9999	750	0	0	0
2019/10/13 13:39:00	BASE	2.62	304	4.89	296	-9.5	100	-9.5	393	0	1008.0	NA	0.0000		9999	750	0	0	0
2019/10/13 13:40:00	BASE	2.59	311	4.89	296	-9.5	100	-9.5	368	0	1008.0	NA	0.0000		9999	750	0	0	0
2019/10/13 13:41:00	BASE	2.76	320	4.89	296	-9.5	100	-9.5	344	0	1008.0	NA	0.0000		9999	720	0	0	0
2019/10/13 13:42:00	BASE	2.95	321	4.32	314	-9.5	100	-9.5	305	0	1008.0	NA	0.0000		9999	720	0	0	0
2019/10/13 13:43:01	BASE	2.96	324	4.32	314	-9.5	100	-9.5	300	0	1008.0	NA	0.0000		9999	720	0	0	0
2019/10/13 13:44:01	BASE	2.47	331	4.32	314	-9.5	100	-9.5	273	0	1007.9	NA	0.0000		9999	750	0	0	0
2019/10/13 13:45:01	BASE	2.23	331	3.81	308	-9.6	100	-9.6	237	0	1007.9	NA	0.0000		9999	750	0	0	0
2019/10/13 13:46:01	BASE	2.43	331	3.76	313	-9.6	100	-9.6	204	0	1007.9	NA	0.0000		9999	790	0	0	0
2019/10/13 13:47:01	BASE	2.51	331	3.45	324	-9.6	100	-9.6	179	0	1007.9	NA	0.0000		9999	720	0	0	0
2019/10/13 13:48:01	BASE	2.21	330	3.45	324	-9.6	100	-9.6	159	0	1007.9	NA	0.0000		9999	850	0	0	0
2019/10/13 13:49:01	BASE	2.22	333	3.45	324	-9.6	100	-9.6	159	0	1008.0	NA	0.0000		9999	890	0	0	0
2019/10/13 13:50:01	BASE	2.35	339	3.45	324	-9.7	100	-9.7	224	0	1008.0	NA	0.0000		9999	850	0	0	0
2019/10/13 13:51:01	BASE	2.37	336	3.45	324	-9.7	100	-9.7	229	0	1008.0	NA	0.0000		9999	850	0	0	0
2019/10/13 13:52:01	BASE	2.40	342	2.93	324	-9.6	100	-9.6	271	0	1008.0	NA	0.0000		9999	850	0	0	0
2019/10/13 13:53:01	BASE	2.69	353	3.55	2	-9.6	100	-9.6	237	0	1007.9	NA	0.0000		9999	850	0	0	0
2019/10/13 13:54:01	BASE	2.98	360	3.55	2	-9.6	100	-9.6	233	0	1007.9	NA	0.0000		9999	820	0	0	0
2019/10/13 13:55:01	BASE	2.97	6	3.55	2	-9.6	100	-9.6	250	0	1007.9	NA	0.0000		9999	850	0	0	0
2019/10/13 13:56:01	BASE	2.97	11	3.55	2	-9.6	100	-9.6	266	0	1007.8	NA	0.0000		9999	850	22470	0	0
2019/10/13 13:57:01	BASE	2.82	20	3.55	2	-9.6	100	-9.6	273	0	1007.8	NA	0.0000		9999	820	22800	0	0
2019/10/13 13:58:01	BASE	2.54	27	3.55	2	-9.6	100	-9.6	307	0	1007.8	NA	0.0000		9999	820	0	0	0
2019/10/13 13:59:01	BASE	2.41	30	3.55	2	-9.6	100	-9.6	287	0	1007.8	NA	0.0000		9999	820	0	0	0
2019/10/13 14:00:01	BASE	2.63	34	3.55	2	-9.5	100	-9.5	286	0	1007.8	NA	0.0000		9999	850	0	0	0
2019/10/13 14:01:01	BASE	2.88	38	3.55	2	-9.5	100	-9.5	341	0	1007.8	NA	0.0000		9999	850	0	0	0
2019/10/13 14:02:01	BASE	2.74	36	3.55	2	-9.4	100	-9.4	406	0	1007.8	NA	0.0000		9999	820	0	0	0
2019/10/13 14:03:01	BASE	2.48	29	3.45	14	-9.4	100	-9.4	434	0	1007.9	NA	0.0000		9999	820	0	0	0
2019/10/13 14:04:01	BASE	2.35	26	3.45	14	-9.4	100	-9.4	424	0	1007.8	NA	0.0000		9999	790	0	0	0
2019/10/13 14:05:01	BASE	2.55	27	3.19	42	-9.3	100	-9.3	419	0	1007.8	NA	0.0000		9999	820	0	0	0
2019/10/13 14:06:01	BASE	2.49	27	3.19	42	-9.3	100	-9.3	401	0	1007.9	NA	0.0000		9999	820	0	0	0
2019/10/13 14:07:01	BASE	2.37	30	3.19	35	-9.3	100	-9.3	399	0	1007.8	NA	0.0000		9999	750	0	0	0
2019/10/13 14:08:01	BASE	2.73	41	3.19	49	-9.2	100	-9.2	403	0	1007.8	NA	0.0000		9999	790	0	0	0
2019/10/13 14:09:01	BASE	2.73	51	3.19	49	-9.2	100	-9.2	401	0	1007.8	NA	0.0000		9999	820	21490	0	0
2019/10/13 14:10:01	BASE	2.43	42	3.19	49	-9.2	100	-9.2	381	0	1007.8	NA	0.0000		9999	820	0	0	0
2019/10/13 14:11:01	BASE	2.32	23	3.19	49	-9.2	100	-9.2	360	0	1007.8	NA	0.0000		9999	820	0	0	0
2019/10/13 14:12:01	BASE	2.37	18	3.19	49	-9.2	100	-9.2	383	0	1007.8	NA	0.0000		9999	820	0	0	0
2019/10/13 14:13:01	BASE	2.57	15	3.19	4	-9.2	100	-9.2	407	0	1007.8	NA	0.0000		9999	790	0	0	0
2019/10/13 14:14:01	BASE	2.70	8	3.19	4	-9.2	100	-9.2	406	0	1007.8	NA	0.0000		9999	790	0	0	0
2019/10/13 14:15:01	BASE	2.86	15	3.45	19	-9.2	100	-9.2	382	0	1007.8	NA	0.0000		9999	790	0	0	0
2019/10/13 14:16:01	BASE	3.18	18	3.55	8	-9.2	100	-9.2	379	0	1007.8	NA	0.0000		9999	750	0	0	0
2019/10/13 14:17:01	BASE	3.31	11	3.81	20	-9.2	100	-9.2	381	0	1007.8	NA	0.0000		9999	790	0	0	0
2019/10/13 14:18:01	BASE	3.26	12	3.81	20	-9.2	100	-9.2	380	0	1007.8	NA	0.0000		9999	750	0	0	0
2019/10/13 14:19:01	BASE	3.23	14	3.81	20	-9.2	100	-9.2	381	0	1007.8	NA	0.0000		9999	750	0	0	0
2019/10/13 14:20:01	BASE	3.31	3	4.32	340	-9.2	100	-9.2	379	0	1007.8	NA	0.0000		9999	750	0	0	0
2019/10/13 14:21:01	BASE	3.82	350	4.42	344	-9.1	100	-9.1	384	0	1007.8	NA	0.0000		9999	750	0	0	0
2019/10/13 14:22:01	BASE	4.01	347	4.42	344	-9.1	100	-9.1	394	0	1007.8	NA	0.0000		9999	750	0	0	0
2019/10/13 14:23:01	BASE	3.39	358	4.42	344	-9.1	100	-9.1	397	0	1007.8	NA	0.0000		9999	750	19230	0	0
2019/10/13 14:24:01	BASE	3.04	2	4.42	344	-9.1	100	-9.1	395	0	1007.8	NA	0.0000		9999	720	0	0	0
2019/10/13 14:25:01	BASE	3.38	355	4.42	344	-9.2	100	-9.2	400	0	1007.8	NA	0.0000		9999	720	0	0	0
2019/10/13 14:26:01	BASE	3.79	353	4.42	344	-9.2	100	-9.2	415	0	1007.8	NA	0.0000		9999	750	0	0	0
2019/10/13 14:27:01	BASE	3.50	359	4.42	344	-9.2	100	-9.2	435	0	1007.8	NA	0.0000		9999	750	0	0	0
2019/10/13 14:28:01	BASE	3.16	10	4.42	344	-9.2	100	-9.2	443	0	1007.8	NA	0.0000		9999	720	0	0	0
2019/10/13 14:29:01	BASE	3.20	9	4.42	344	-9.1	100	-9.1	438	0	1007.8	NA	0.0000		9999	720	0	0	0
2019/10/13 14:30:01	BASE	3.08	1	4.42	344	-9.1	100	-9.1	423	0	1007.8	NA	0.0000		9999	750	0	0	0
2019/10/13 14:31:01	BASE	3.26	353	4.32	360	-9.1	100	-9.1	415	0	1007.8	NA	0.0000		9999	720	0	0	0
2019/10/13 14:32:01	BASE	3.48	348	4.32	360	-9.1	100	-9.1	431	0	1007.8	NA	0.0000		9999	720	0	0	0
2019/10/13 14:33:01	BASE	2.78	345	4.32	360	-9.1	100	-9.1	462	0	1007.7	NA	0.0000		9999	720	0	0	0
2019/10/13 14:34:01	BASE	1.77	345	4.32	360	-9.1	100	-9.1	467	0	1007.8	NA	0.0000		9999	690	0	0	0
2019/10/13 14:35:01	BASE	1.61	346	4.32	360	-9.1	100	-9.1	453	0	1007.8	NA	0.0000		9999	690	0	0	0
2019/10/13 14:36:01	BASE	0.95	338	4.12	350	-9.2	100	-9.2	434	0	1007.8	NA	0.0000		9999	690	20280	0	0
2019/10/13 14:37:01	BASE	0.05	334	4.12	350	-9.2	100	-9.2	419	0	1007.8	NA	0.0000		9999	690	0	0	0
2019/10/13 14:38:01	BASE	1.23	343	4.12	350	-9.2	100	-9.2	428	0	1007.8	NA	0.0000		9999	750	0	0	0
2019/10/13 14:39:01	BASE	2.55	342	4.12	350	-9.2	100	-9.2	441	0	1007.7	NA	0.0000		9999	750	21950	0	0
2019/10/13 14:40:01	BASE	2.54	337	4.12	350	-9.2	100	-9.2	431	0	1007.8	NA	0.0000		9999	720	0	0	0
2019/10/13 14:41:01	BASE	2.64	346	3.81	349	-9.1	100	-9.1	428	0	1007.7	NA	0.0000		9999	720	0	0	0
2019/10/13 14:42:01	BASE	3.23	344	4.06	341	-9.0	100	-9.0	433	0	1007.7	NA	0.0000		9999	720	0	0	0
2019/10/13 14:43:01	BASE	3.30	329	4.06	341	-9.0	100	-9.0	442	0	1007.7	NA	0.0000		9999	720	0	0	0
2019/10/13 14:44:01	BASE	2.47	315	4.06	341	-9.0	100	-9.0	441	0	1007.7	NA	0.0000		9999	690	0	0	0
2019/10/13 14:45:01	BASE	1.50	311	4.06	341	-9.0	100	-9.0	420	0	1007.7	NA	0.0000		9999	820	0	0	0
2019/10/13 14:46:01	BASE	1.23	337	4.06	341	-9.0	100	-9.0	397	0	1007.7	NA	0.0000		9999	790	0	0	0
2019/10/13 14:47:01	BASE	1.69	4	4.06	341	-9.1	100	-9.1	387	0	1007.7	NA	0.0000		9999	720	0	0	0
2019/10/13 14:48:01	BASE	1.86	360	4.06	341	-9.1	100	-9.1	403	0	1007.6	NA	0.0000		9999	820	0	0	0
2019/10/13 14:49:01	BASE	2.20	353	4.06	341	-9.1	100	-9.1	423	0	1007.6	NA	0.0000		9999	890	18280	21390	0
2019/10/13 14:50:01	BASE	3.18	340	4.27	321	-9.1	100	-9.1	413	0	1007.6	NA	0.0000		9999	850	0	0	0
2019/10/13 14:51:01	BASE	3.83	331	4.63	335	-9.1	100	-9.1	403	0	1007.6	NA	0.0000		9999	850	0	0	0
2019/10/13 14:52:01	BASE	3.55	334	4.63	335	-9.0	100	-9.0	398	0	1007.6	NA	0.0000		9999	790	22640	0	0
2019/10/13 14:53:01	BASE	3.51	332	4.63	335	-8.9	100	-8.9	396	0	1007.6	NA	0.0000		9999	750	0	0	0
2019/10/13 14:54:01	BASE	3.47	327	4.63	335	-8.9	100	-8.9	389	0	1007.6	NA	0.0000		9999	820	0	0	0
2019/10/13 14:55:01	BASE	3.01	328	4.63	335	-8.9	100	-8.9	393	0	1007.6	NA	0.0000		9999	850	0	0	0
2019/10/13 14:56:01	BASE	2.79	333	4.63	335	-8.9	100	-8.9	406	0	1007.6	NA	0.0000		9999	850	0	0	0
2019/10/13 14:57:01	BASE	2.48	340	4.63	335	-8.9	100	-8.9	406	0	1007.6	NA	0.0000		9999	820	0	0	0
2019/10/13 14:58:01	BASE	2.34	345	4.63	335	-9.0	100	-9.0	401	0	1007.6	NA	0.0000		9999	850	0	0	0
2019/10/13 14:59:01	BASE	2.37	354	4.63	335	-9.0	100	-9.0	415	0	1007.6	NA	0.0000		9999	850	0	0	0
2019/10/13 15:00:01	BASE	2.01	357	4.63	335	-9.0	100	-9.0	435	0	1007.6	NA	0.0000		9999	790	0	0	0
2019/10/13 15:01:01	BASE	1.44	349	4.12	328	-9.1	100	-9.1	439	0	1007.6	NA	0.0000		9999	820	20510	0	0
2019/10/13 15:02:01	BASE	1.36	348	4.12	328	-9.1	100	-9.1	430	0	1007.6	NA	0.0000		9999	850	0	0	0
2019/10/13 15:03:01	BASE	1.42	344	3.76	322	-9.0	100	-9.0	417	0	1007.6	NA	0.0000		9999	820	0	0	0
2019/10/13 15:04:01	BASE	1.19	339	3.34	329	-9.0	100	-9.0	412	0	1007.6	NA	0.0000		9999	820	0	0	0
2019/10/13 15:05:01	BASE	1.50	336	3.09	352	-9.0	100	-9.0	400	0	1007.6	NA	0.0000		9999	820	0	0	0
2019/10/13 15:06:01	BASE	1.96	341	3.09	352	-8.9	100	-8.9	396	0	1007.5	NA	0.0000		9999	820	0	0	0
2019/10/13 15:07:01	BASE	1.44	351	3.09	352	-8.9	100	-8.9	395	0	1007.5	NA	0.0000		9999	790	0	0	0
2019/10/13 15:08:01	BASE	0.52	360	3.09	352	-8.9	100	-8.9	384	0	1007.5	NA	0.0000		9999	850	0	0	0
2019/10/13 15:09:01	BASE	0.37	4	2.42	337	-8.9	100	-8.9	384	0	1007.5	NA	0.0000		9999	820	0	0	0
2019/10/13 15:10:01	BASE	0.63	0	2.42	337	-8.9	100	-8.9	387	0	1007.4	NA	0.0000		9999	790	0	0	0
2019/10/13 15:11:01	BASE	1.22	351	2.42	337	-8.9	100	-8.9	407	0	1007.4	NA	0.0000		9999	820	0	0	0
2019/10/13 15:12:01	BASE	1.84	351	2.42	337	-8.9	100	-8.9	402	0	1007.3	NA	0.0000		9999	820	19490	0	0
2019/10/13 15:13:01	BASE	1.30	356	2.42	337	-8.9	100	-8.9	414	0	1007.3	NA	0.0000		9999	790	0	0	0
2019/10/13 15:14:01	BASE	0.57	340	2.42	337	-8.8	100	-8.8	405	0	1007.3	NA	0.0000		9999	820	0	0	0
2019/10/13 15:15:01	BASE	0.20	335	2.42	337	-8.8	100	-8.8	405	0	1007.3	NA	0.0000		9999	820	0	0	0
2019/10/13 15:16:01	BASE	0.34	354	2.31	353	-8.8	100	-8.8	410	0	1007.3	NA	0.0000		9999	850	0	0	0
2019/10/13 15:17:00	BASE	1.31	3	2.52	350	-8.8	100	-8.8	398	0	1007.3	NA	0.0000		9999	820	0	0	0
2019/10/13 15:18:01	BASE	2.30	357	2.88	353	-8.8	100	-8.8	388	0	1007.3	NA	0.0000		9999	820	0	0	0
2019/10/13 15:19:00	BASE	2.63	354	2.88	353	-8.8	100	-8.8	401	0	1007.4	NA	0.0000		9999	820	0	0	0
2019/10/13 15:20:01	BASE	2.75	351	3.24	348	-8.8	100	-8.8	437	0	1007.5	NA	0.0000		9999	820	0	0	0
2019/10/13 15:21:00	BASE	3.04	342	3.45	340	-8.8	100	-8.8	449	0	1007.5	NA	0.0000		9999	820	0	0	0
2019/10/13 15:22:01	BASE	2.89	336	3.45	340	-8.8	100	-8.8	440	0	1007.5	NA	0.0000		9999	790	0	0	0
2019/10/13 15:23:00	BASE	2.29	338	3.45	340	-8.9	100	-8.9	440	0	1007.4	NA	0.0000		9999	820	0	0	0
2019/10/13 15:24:01	BASE	2.03	346	3.45	340	-8.9	100	-8.9	448	0	1007.3	NA	0.0000		9999	820	0	0	0
2019/10/13 15:25:00	BASE	1.98	349	3.45	340	-8.9	100	-8.9	440	0	1007.3	NA	0.0000		9999	790	0	0	0
2019/10/13 15:26:01	BASE	1.91	347	3.45	340	-8.9	100	-8.9	440	0	1007.3	NA	0.0000		9999	790	0	0	0
2019/10/13 15:27:00	BASE	1.58	353	3.45	340	-8.9	100	-8.9	441	0	1007.3	NA	0.0000		9999	790	0	0	0
2019/10/13 15:28:01	BASE	1.29	3	3.45	340	-8.9	100	-8.9	438	0	1007.3	NA	0.0000		9999	790	0	0	0
2019/10/13 15:29:00	BASE	1.00	356	3.45	340	-8.9	100	-8.9	467	0	1007.3	NA	0.0000		9999	820	0	0	0
2019/10/13 15:30:00	BASE	0.39	344	3.45	340	-8.8	100	-8.8	473	0	1007.3	NA	0.0000		9999	820	0	0	0
2019/10/13 15:31:01	BASE	0.36	346	2.88	332	-8.8	100	-8.8	465	0	1007.3	NA	0.0000		9999	790	0	0	0
2019/10/13 15:32:01	BASE	1.08	353	2.52	344	-8.8	100	-8.8	476	0	1007.3	NA	0.0000		9999	790	0	0	0
2019/10/13 15:33:00	BASE	1.44	1	2.52	344	-8.8	100	-8.8	459	0	1007.3	NA	0.0000		9999	790	0	0	0
2019/10/13 15:34:01	BASE	0.72	8	2.37	1	-8.8	99	-8.8	427	0	1007.3	NA	0.0000		9999	790	0	0	0
2019/10/13 15:35:01	BASE	0.04	9	2.37	1	-8.8	99	-8.9	427	0	1007.3	NA	0.0000		9999	790	0	0	0
2019/10/13 15:36:01	BASE	0.00	14	2.21	350	-8.8	99	-8.9	443	0	1007.3	NA	0.0000		9999	790	0	0	0
2019/10/13 15:37:01	BASE	0.09	356	2.11	15	-8.8	100	-8.9	444	0	1007.3	NA	0.0000		9999	820	0	0	0
2019/10/13 15:38:01	BASE	0.68	341	1.80	2	-8.7	100	-8.8	438	0	1007.3	NA	0.0000		9999	820	0	0	0
2019/10/13 15:39:00	BASE	1.54	2	2.62	20	-8.7	100	-8.7	448	0	1007.3	NA	0.0000		9999	820	24440	0	0
2019/10/13 15:40:00	BASE	2.21	15	2.73	17	-8.7	100	-8.7	460	0	1007.3	NA	0.0000		9999	790	0	0	0
2019/10/13 15:41:00	BASE	2.30	24	2.73	17	-8.7	99	-8.8	471	0	1007.3	NA	0.0000		9999	820	0	0	0
2019/10/13 15:42:01	BASE	1.92	32	2.73	17	-8.7	99	-8.8	457	0	1007.3	NA	0.0000		9999	850	22770	23750	0
2019/10/13 15:43:00	BASE	2.04	24	2.73	17	-8.7	99	-8.8	463	0	1007.2	NA	0.0000		9999	820	0	0	0
2019/10/13 15:44:01	BASE	2.56	12	3.24	5	-8.7	99	-8.7	504	0	1007.2	NA	0.0000		9999	850	0	0	0
2019/10/13 15:45:01	BASE	2.52	3	3.24	5	-8.6	99	-8.7	522	0	1007.2	NA	0.0000		9999	820	19160	20600	0
2019/10/13 15:46:01	BASE	2.03	359	3.24	5	-8.6	99	-8.7	507	0	1007.2	NA	0.0000		9999	820	0	0	0
2019/10/13 15:47:00	BASE	1.74	348	3.24	5	-8.6	99	-8.7	500	0	1007.2	NA	0.0000		9999	850	0	0	0
2019/10/13 15:48:00	BASE	1.71	347	3.24	5	-8.6	99	-8.7	497	0	1007.2	NA	0.0000		9999	850	0	0	0
2019/10/13 15:49:00	BASE	1.97	344	3.24	5	-8.6	99	-8.8	494	0	1007.2	NA	0.0000		9999	850	0	0	0
2019/10/13 15:50:00	BASE	2.32	324	3.24	5	-8.6	99	-8.8	481	0	1007.2	NA	0.0000		9999	850	0	0	0
2019/10/13 15:51:00	BASE	2.45	314	3.24	5	-8.6	99	-8.7	467	0	1007.2	NA	0.0000		9999	820	0	0	0
2019/10/13 15:52:00	BASE	2.65	311	3.45	315	-8.5	99	-8.7	463	0	1007.2	NA	0.0000		9999	820	0	0	0
2019/10/13 15:53:00	BASE	2.79	312	3.55	317	-8.5	99	-8.6	474	0	1007.2	NA	0.0000		9999	820	0	0	0
2019/10/13 15:54:00	BASE	2.54	315	3.55	317	-8.5	99	-8.6	486	0	1007.2	NA	0.0000		9999	790	0	0	0
2019/10/13 15:55:00	BASE	2.15	321	3.55	317	-8.5	99	-8.6	489	0	1007.2	NA	0.0000		9999	820	0	0	0
2019/10/13 15:56:00	BASE	1.48	336	3.55	317	-8.5	99	-8.6	477	0	1007.2	NA	0.0000		9999	820	23620	0	0
2019/10/13 15:57:00	BASE	0.99	347	3.55	317	-8.5	99	-8.6	471	0	1007.2	NA	0.0000		9999	820	21230	0	0
2019/10/13 15:58:00	BASE	1.39	339	3.55	317	-8.5	99	-8.6	466	0	1007.2	NA	0.0000		9999	820	0	0	0
2019/10/13 15:59:00	BASE	1.86	337	3.55	317	-8.5	99	-8.7	462	0	1007.2	NA	0.0000		9999	820	0	0	0
2019/10/13 16:00:01	BASE	1.33	347	3.55	317	-8.6	99	-8.7	460	0	1007.2	NA	0.0000		9999	820	0	0	0
2019/10/13 16:01:00	BASE	0.83	3	3.55	317	-8.6	99	-8.8	439	0	1007.2	NA	0.0000		9999	820	0	0	0
2019/10/13 16:02:00	BASE	1.17	4	3.55	317	-8.6	98	-8.8	433	0	1007.2	NA	0.0000		9999	820	0	0	0
2019/10/13 16:03:00	BASE	2.00	336	3.24	323	-8.6	98	-8.8	452	0	1007.2	NA	0.0000		9999	820	0	0	0
2019/10/13 16:04:00	BASE	2.64	319	3.60	332	-8.6	98	-8.8	475	0	1007.2	NA	0.0000		9999	820	0	0	0
2019/10/13 16:05:00	BASE	2.85	328	3.60	332	-8.5	99	-8.7	481	0	1007.2	NA	0.0000		9999	850	0	0	0
2019/10/13 16:06:00	BASE	2.91	338	3.60	332	-8.5	99	-8.7	484	0	1007.2	NA	0.0000		9999	850	24380	0	0
2019/10/13 16:07:00	BASE	2.92	334	3.60	332	-8.5	99	-8.6	489	0	1007.2	NA	0.0000		9999	850	0	0	0
2019/10/13 16:08:00	BASE	2.92	331	3.60	332	-8.5	99	-8.6	531	0	1007.2	NA	0.0000		9999	890	0	0	0
2019/10/13 16:09:00	BASE	2.34	340	3.60	332	-8.5	98	-8.7	527	0	1007.2	NA	0.0000		9999	950	0	0	0
2019/10/13 16:10:00	BASE	1.48	359	3.60	332	-8.5	98	-8.7	466	0	1007.2	NA	0.0000		9999	890	0	0	0
2019/10/13 16:11:00	BASE	0.63	13	3.60	332	-8.5	99	-8.7	395	0	1007.2	NA	0.0000		9999	890	0	0	0
2019/10/13 16:12:01	BASE	0.09	40	3.60	332	-8.5	99	-8.7	382	0	1007.2	NA	0.0000		9999	890	0	0	0
2019/10/13 16:13:00	BASE	0.05	62	3.60	332	-8.6	99	-8.7	377	0	1007.2	NA	0.0000		9999	850	0	0	0
2019/10/13 16:14:00	BASE	0.46	55	3.55	332	-8.6	99	-8.7	383	0	1007.2	NA	0.0000		9999	850	0	0	0
2019/10/13 16:15:00	BASE	1.26	39	3.55	332	-8.6	99	-8.7	422	0	1007.2	NA	0.0000		9999	850	0	0	0
2019/10/13 16:16:00	BASE	1.70	29	3.55	332	-8.6	99	-8.7	469	0	1007.2	NA	0.0000		9999	820	0	0	0
2019/10/13 16:17:00	BASE	1.97	22	3.55	332	-8.6	99	-8.7	495	0	1007.2	NA	0.0000		9999	850	0	0	0
2019/10/13 16:18:00	BASE	2.18	11	2.52	9	-8.5	98	-8.7	514	0	1007.2	NA	0.0000		9999	850	0	0	0
2019/10/13 16:19:00	BASE	2.17	7	2.52	9	-8.5	98	-8.7	535	0	1007.1	NA	0.0000		9999	850	0	0	0
2019/10/13 16:20:00	BASE	1.90	10	2.52	9	-8.5	98	-8.8	540	0	1007.1	NA	0.0000		9999	850	0	0	0
2019/10/13 16:21:00	BASE	1.21	15	2.52	9	-8.5	98	-8.8	515	0	1007.1	NA	0.0000		9999	920	0	0	0
2019/10/13 16:22:00	BASE	0.86	19	2.52	9	-8.5	98	-8.8	480	0	1007.1	NA	0.0000		9999	890	0	0	0
2019/10/13 16:23:00	BASE	0.64	22	2.52	9	-8.5	98	-8.8	448	0	1007.1	NA	0.0000		9999	890	0	0	0
2019/10/13 16:24:00	BASE	0.31	13	2.52	9	-8.5	98	-8.8	427	0	1007.1	NA	0.0000		9999	890	0	0	0
2019/10/13 16:25:00	BASE	1.05	352	2.52	9	-8.5	98	-8.8	419	0	1007.1	NA	0.0000		9999	850	0	0	0
2019/10/13 16:26:00	BASE	1.81	345	2.52	9	-8.6	98	-8.8	428	0	1007.0	NA	0.0000		9999	850	0	0	0
2019/10/13 16:27:00	BASE	1.99	346	2.57	336	-8.6	98	-8.8	440	0	1007.0	NA	0.0000		9999	850	0	0	0
2019/10/13 16:28:00	BASE	2.11	337	2.57	336	-8.6	98	-8.8	462	0	1007.0	NA	0.0000		9999	890	0	0	0
2019/10/13 16:29:00	BASE	2.13	334	2.57	336	-8.6	98	-8.9	487	0	1007.0	NA	0.0000		9999	890	0	0	0
2019/10/13 16:30:00	BASE	2.10	340	2.57	336	-8.6	98	-8.9	503	0	1007.0	NA	0.0000		9999	950	0	0	0
2019/10/13 16:31:00	BASE	1.73	351	2.57	336	-8.6	98	-8.8	488	0	1007.0	NA	0.0000		9999	950	0	0	0
2019/10/13 16:32:00	BASE	1.44	349	2.57	336	-8.5	98	-8.8	462	0	1007.0	NA	0.0000		9999	950	0	0	0
2019/10/13 16:33:00	BASE	1.12	337	2.57	336	-8.5	98	-8.7	418	0	1007.0	NA	0.0000		9999	950	0	0	0
2019/10/13 16:34:00	BASE	0.96	341	2.57	336	-8.4	98	-8.7	434	0	1007.0	NA	0.0000		9999	920	0	0	0
2019/10/13 16:35:00	BASE	0.57	341	2.57	336	-8.4	98	-8.6	454	0	1007.0	NA	0.0000		9999	950	0	0	0
2019/10/13 16:36:00	BASE	0.00	348	2.57	336	-8.4	98	-8.7	438	0	1007.0	NA	0.0000		9999	980	0	0	0
2019/10/13 16:37:00	BASE	0.00	7	2.42	334	-8.5	98	-8.7	429	0	1007.0	NA	0.0000		9999	1020	0	0	0
2019/10/13 16:38:01	BASE	0.00	18	2.37	347	-8.5	98	-8.8	417	0	1007.0	NA	0.0000		9999	1020	0	0	0
2019/10/13 16:39:00	BASE	0.33	5	2.26	343	-8.6	98	-8.8	412	0	1007.0	NA	0.0000		9999	1020	0	0	0
2019/10/13 16:40:00	BASE	0.75	350	1.85	355	-8.6	98	-8.8	410	0	1007.0	NA	0.0000		9999	1020	0	0	0
2019/10/13 16:41:00	BASE	0.71	351	1.70	325	-8.6	98	-8.8	474	0	1007.0	NA	0.0000		9999	1020	0	0	0
2019/10/13 16:42:00	BASE	0.30	348	1.44	349	-8.5	98	-8.8	503	0	1007.0	NA	0.0000		9999	1050	0	0	0
2019/10/13 16:43:00	BASE	0.19	344	1.59	305	-8.5	98	-8.8	546	0	1007.0	NA	0.0000		9999	1080	22310	0	0
2019/10/13 16:44:00	BASE	0.60	320	2.21	313	-8.4	98	-8.6	578	0	1006.9	NA	0.0000		9999	1080	0	0	0
2019/10/13 16:45:00	BASE	1.47	309	2.31	324	-8.3	98	-8.5	613	0	1006.9	NA	0.0000		9999	1020	0	0	0
2019/10/13 16:46:00	BASE	2.33	318	2.73	323	-8.1	98	-8.4	668	0	1006.9	NA	0.0000		9999	1020	0	0	0
2019/10/13 16:47:00	BASE	2.41	321	2.73	323	-8.0	98	-8.3	672	0	1006.9	NA	0.0000		9999	1050	0	0	0
2019/10/13 16:48:00	BASE	2.16	318	2.73	323	-8.0	98	-8.2	652	0	1006.8	NA	0.0000		9999	1020	0	0	0
2019/10/13 16:49:00	BASE	1.92	313	2.73	323	-7.9	97	-8.3	631	0	1006.8	NA	0.0000		9999	1180	0	0	0
2019/10/13 16:50:00	BASE	2.11	304	2.83	296	-7.9	97	-8.3	608	0	1006.8	NA	0.0000		9999	1210	0	0	0
2019/10/13 16:51:00	BASE	2.56	298	3.14	293	-7.9	97	-8.3	591	0	1006.8	NA	0.0000		9999	6760	0	0	0
2019/10/13 16:52:00	BASE	1.96	302	3.14	293	-7.9	97	-8.3	586	0	1006.8	NA	0.0000		9999	6690	0	0	0
2019/10/13 16:53:00	BASE	0.60	301	3.14	293	-7.9	96	-8.4	582	0	1006.8	NA	0.0000		9999	6660	0	0	0
2019/10/13 16:54:00	BASE	0.00	301	3.14	293	-8.0	96	-8.6	573	0	1006.7	NA	0.0000		9999	6820	0	0	0
2019/10/13 16:55:00	BASE	0.00	320	3.14	293	-8.1	95	-8.7	570	0	1006.7	NA	0.0000		9999	6860	0	0	0
2019/10/13 16:56:00	BASE	0.00	301	3.14	293	-8.1	95	-8.7	573	0	1006.7	NA	0.0000		9999	7090	0	0	0
2019/10/13 16:57:00	BASE	0.00	250	3.14	293	-8.1	95	-8.8	563	0	1006.6	NA	0.0000		9999	7090	0	0	0
2019/10/13 16:58:00	BASE	0.46	231	3.14	293	-8.2	95	-8.9	558	0	1006.6	NA	0.0000		9999	7220	0	0	0
2019/10/13 16:59:00	BASE	0.60	246	3.14	293	-8.2	94	-8.9	555	0	1006.6	NA	0.0000		9999	7120	0	0	0
2019/10/13 17:00:00	BASE	0.92	258	3.14	293	-8.3	94	-9.0	558	0	1006.6	NA	0.0000		9999	6920	0	0	0
2019/10/13 17:01:00	BASE	1.88	252	2.98	242	-8.4	94	-9.1	546	0	1006.5	NA	0.0000		9999	6790	0	0	0
2019/10/13 17:02:00	BASE	2.22	241	2.98	242	-8.4	94	-9.2	530	0	1006.5	NA	0.0000		9999	7050	0	0	0
2019/10/13 17:03:00	BASE	1.98	238	2.98	242	-8.4	94	-9.2	519	0	1006.6	NA	0.0000		9999	7190	0	0	0
2019/10/13 17:04:00	BASE	2.02	236	2.98	242	-8.4	94	-9.2	508	0	1006.6	NA	0.0000		9999	7680	0	0	0
2019/10/13 17:05:00	BASE	2.70	236	3.55	239	-8.4	93	-9.3	500	0	1006.7	NA	0.0000		9999	8070	0	0	0
2019/10/13 17:06:00	BASE	2.96	237	3.55	239	-8.4	93	-9.3	504	0	1006.7	NA	0.0000		9999	8170	0	0	0
2019/10/13 17:07:00	BASE	2.60	236	3.55	239	-8.4	93	-9.3	506	0	1006.7	NA	0.0000		9999	8240	0	0	0
2019/10/13 17:08:01	BASE	2.24	238	3.55	239	-8.4	93	-9.3	510	0	1006.7	NA	0.0000		9999	8200	0	0	0
2019/10/13 17:09:00	BASE	2.36	242	3.55	239	-8.4	93	-9.3	501	0	1006.7	NA	0.0000		9999	8270	0	0	0
2019/10/13 17:10:00	BASE	2.23	245	3.55	239	-8.4	93	-9.3	495	0	1006.7	NA	0.0000		9999	8170	0	0	0
2019/10/13 17:11:00	BASE	2.02	258	3.55	239	-8.4	93	-9.3	492	0	1006.7	NA	0.0000		9999	8100	0	0	0
2019/10/13 17:12:00	BASE	2.29	271	3.55	239	-8.3	93	-9.3	489	0	1006.7	NA	0.0000		9999	8330	0	0	0
2019/10/13 17:13:00	BASE	2.90	271	3.81	271	-8.3	93	-9.3	510	0	1006.7	NA	0.0000		9999	8100	0	0	0
2019/10/13 17:14:00	BASE	3.04	274	3.81	271	-8.3	93	-9.2	521	0	1006.8	NA	0.0000		9999	4990	0	0	0
2019/10/13 17:15:00	BASE	2.73	286	3.81	271	-8.2	93	-9.1	519	0	1006.8	NA	0.0000		9999	4990	0	0	0
2019/10/13 17:16:00	BASE	3.16	290	4.01	288	-8.1	93	-9.1	504	0	1006.8	NA	0.0000		9999	8660	0	0	0
2019/10/13 17:17:00	BASE	3.56	293	4.01	288	-8.1	93	-9.0	505	0	1006.7	NA	0.0000		9999	9090	0	0	0
2019/10/13 17:18:00	BASE	3.42	304	4.01	288	-8.0	93	-9.0	502	0	1006.8	NA	0.0000		9999	7640	0	0	0
2019/10/13 17:19:00	BASE	3.58	306	4.32	306	-8.0	92	-9.0	501	0	1006.9	NA	0.0000		9999	9090	0	0	0
2019/10/13 17:20:01	BASE	3.64	303	4.32	306	-7.9	92	-9.0	498	0	1006.9	NA	0.0000		9999	24350	0	0	0
2019/10/13 17:21:00	BASE	3.26	299	4.32	306	-7.9	93	-8.9	516	0	1006.9	NA	0.0000		9999	8890	0	0	0
2019/10/13 17:22:00	BASE	3.08	298	4.32	306	-7.9	92	-8.9	508	0	1006.9	NA	0.0000		9999	8600	0	0	0
2019/10/13 17:23:00	BASE	2.45	298	4.32	306	-7.8	92	-8.9	521	0	1006.9	NA	0.0000		9999	6300	0	0	0
2019/10/13 17:24:00	BASE	1.95	293	4.32	306	-7.8	93	-8.8	532	0	1006.9	NA	0.0000		9999	7810	0	0	0
2019/10/13 17:25:00	BASE	2.26	295	4.32	306	-7.8	92	-8.8	524	0	1006.8	NA	0.0000		9999	7840	0	0	0
2019/10/13 17:26:00	BASE	2.34	299	4.32	306	-7.8	92	-8.8	513	0	1006.8	NA	0.0000		9999	7280	0	0	0
2019/10/13 17:27:00	BASE	2.04	294	4.32	306	-7.8	92	-8.8	492	0	1006.8	NA	0.0000		9999	7090	0	0	0
2019/10/13 17:28:00	BASE	2.02	287	4.32	306	-7.8	92	-8.8	502	0	1006.8	NA	0.0000		9999	7150	0	0	0
2019/10/13 17:29:00	BASE	2.34	276	3.86	299	-7.8	92	-8.9	515	0	1006.8	NA	0.0000		9999	7710	0	0	0
2019/10/13 17:30:00	BASE	2.56	284	3.45	293	-7.9	92	-9.0	476	0	1006.8	NA	0.0000		9999	7350	0	0	0
2019/10/13 17:31:00	BASE	2.63	299	3.45	293	-7.9	92	-9.0	457	0	1006.8	NA	0.0000		9999	5740	0	0	0
2019/10/13 17:32:00	BASE	3.05	301	4.01	307	-7.9	92	-9.0	421	0	1006.8	NA	0.0000		9999	6920	0	0	0
2019/10/13 17:33:00	BASE	3.15	305	4.01	307	-7.9	92	-9.0	416	0	1006.9	NA	0.0000		9999	7050	0	0	0
2019/10/13 17:34:00	BASE	2.85	304	4.01	307	-7.9	92	-9.0	426	0	1006.9	NA	0.0000		9999	6630	9290	0	0
2019/10/13 17:35:00	BASE	2.54	305	4.01	307	-7.9	92	-8.9	419	0	1006.9	NA	0.0000		9999	6330	8730	9190	0
2019/10/13 17:36:00	BASE	2.44	302	4.01	307	-7.9	92	-8.9	368	0	1006.9	NA	0.0000		9999	6200	8070	22870	0
2019/10/13 17:37:00	BASE	2.60	300	4.01	307	-7.9	92	-9.0	355	0	1006.9	NA	0.0000		9999	6860	0	0	0
2019/10/13 17:38:00	BASE	2.24	306	4.01	307	-7.9	92	-9.0	326	0	1006.9	NA	0.0000		9999	6630	7480	0	0
2019/10/13 17:39:00	BASE	1.72	312	4.01	307	-7.9	92	-9.0	319	0	1006.9	NA	0.0000		9999	8730	0	0	0
2019/10/13 17:40:00	BASE	1.09	307	4.01	307	-8.0	92	-9.0	306	0	1006.8	NA	0.0000		9999	8600	0	0	0
2019/10/13 17:41:00	BASE	0.99	268	4.01	307	-8.0	92	-9.1	305	0	1006.7	NA	0.0000		9999	8430	0	0	0
2019/10/13 17:42:00	BASE	1.28	225	3.40	300	-8.1	92	-9.1	313	0	1006.6	NA	0.0000		9999	8430	0	0	0
2019/10/13 17:43:00	BASE	0.63	204	3.40	300	-8.1	92	-9.2	316	0	1006.5	NA	0.0000		9999	8500	21420	22740	0
2019/10/13 17:44:00	BASE	0.10	189	2.88	308	-8.2	93	-9.2	310	0	1006.5	NA	0.0000		9999	8560	0	0	0
2019/10/13 17:45:00	BASE	0.10	173	2.88	308	-8.3	93	-9.2	303	0	1006.5	NA	0.0000		9999	8560	0	0	0
2019/10/13 17:46:00	BASE	0.24	150	2.88	308	-8.2	93	-9.2	289	0	1006.4	NA	0.0000		9999	8560	0	0	0
2019/10/13 17:47:00	BASE	1.32	113	2.57	102	-8.2	93	-9.1	279	0	1006.3	NA	0.0000		9999	8500	0	0	0
2019/10/13 17:48:00	BASE	1.98	99	2.57	102	-8.2	93	-9.1	276	0	1006.3	NA	0.0000		9999	8370	22700	0	0
2019/10/13 17:49:00	BASE	1.91	105	2.57	102	-8.2	93	-9.1	279	0	1006.3	NA	0.0000		9999	8400	0	0	0
2019/10/13 17:50:00	BASE	2.39	111	2.93	113	-8.2	93	-9.1	283	0	1006.3	NA	0.0000		9999	8560	0	0	0
2019/10/13 17:51:00	BASE	2.98	110	3.81	109	-8.2	93	-9.2	286	0	1006.3	NA	0.0000		9999	8530	0	0	0
2019/10/13 17:52:00	BASE	3.16	109	3.81	109	-8.2	93	-9.2	288	0	1006.3	NA	0.0000		9999	5640	8460	0	0
2019/10/13 17:53:00	BASE	2.96	107	3.81	109	-8.3	93	-9.2	288	0	1006.3	NA	0.0000		9999	8400	0	0	0
2019/10/13 17:54:00	BASE	2.42	108	3.81	109	-8.3	93	-9.2	287	0	1006.4	NA	0.0000		9999	8430	0	0	0
2019/10/13 17:55:00	BASE	2.02	118	3.81	109	-8.3	93	-9.2	284	0	1006.4	NA	0.0000		9999	8400	0	0	0
2019/10/13 17:56:00	BASE	1.97	127	3.81	109	-8.2	93	-9.2	281	0	1006.4	NA	0.0000		9999	8300	0	0	0
2019/10/13 17:57:00	BASE	1.82	121	3.81	109	-8.2	93	-9.1	278	0	1006.4	NA	0.0000		9999	8240	0	0	0
2019/10/13 17:58:00	BASE	1.67	121	3.81	109	-8.2	93	-9.1	274	0	1006.4	NA	0.0000		9999	8240	0	0	0
2019/10/13 17:59:00	BASE	1.57	125	3.81	109	-8.2	93	-9.1	272	0	1006.4	NA	0.0000		9999	8240	0	0	0
2019/10/13 18:00:00	BASE	1.43	135	3.81	109	-8.1	93	-9.1	270	0	1006.4	NA	0.0000		9999	8240	0	0	0
2019/10/13 18:01:00	BASE	1.54	154	3.55	108	-8.1	93	-9.0	268	0	1006.4	NA	0.0000		9999	8100	0	0	0
2019/10/13 18:02:00	BASE	1.59	174	3.55	108	-8.1	93	-9.0	267	0	1006.4	NA	0.0000		9999	8200	0	0	0
2019/10/13 18:03:00	BASE	1.81	184	2.31	128	-8.1	93	-9.0	266	0	1006.5	NA	0.0000		9999	8070	18800	0	0
2019/10/13 18:04:00	BASE	1.92	189	2.31	128	-8.1	93	-9.1	266	0	1006.5	NA	0.0000		9999	8010	0	0	0
2019/10/13 18:05:00	BASE	1.75	196	2.26	182	-8.2	93	-9.1	266	0	1006.5	NA	0.0000		9999	8040	0	0	0
2019/10/13 18:06:00	BASE	1.68	194	2.26	182	-8.2	93	-9.2	267	0	1006.5	NA	0.0000		9999	8100	0	0	0
2019/10/13 18:07:00	BASE	1.44	193	2.26	182	-8.3	93	-9.2	265	0	1006.5	NA	0.0000		9999	8370	0	0	0
2019/10/13 18:08:00	BASE	1.06	190	2.26	182	-8.3	93	-9.2	263	0	1006.4	NA	0.0000		9999	7780	0	0	0
2019/10/13 18:09:00	BASE	0.53	177	2.26	182	-8.3	93	-9.3	260	0	1006.4	NA	0.0000		9999	8560	0	0	0
2019/10/13 18:10:00	BASE	0.63	176	2.26	182	-8.3	93	-9.3	256	0	1006.5	NA	0.0000		9999	7740	0	0	0
2019/10/13 18:11:00	BASE	1.28	194	2.26	182	-8.3	93	-9.3	251	0	1006.5	NA	0.0000		9999	8460	0	0	0
2019/10/13 18:12:00	BASE	1.41	201	2.26	182	-8.3	93	-9.3	248	0	1006.4	NA	0.0000		9999	8330	0	0	0
2019/10/13 18:13:01	BASE	0.62	196	2.06	194	-8.3	93	-9.3	246	0	1006.4	NA	0.0000		9999	8330	0	0	0
2019/10/13 18:14:00	BASE	0.00	181	2.06	194	-8.3	93	-9.2	246	0	1006.4	NA	0.0000		9999	8240	0	0	0
2019/10/13 18:15:00	BASE	0.00	167	1.85	208	-8.3	93	-9.2	246	0	1006.3	NA	0.0000		9999	8300	0	0	0
2019/10/13 18:16:00	BASE	0.60	170	1.85	208	-8.2	93	-9.2	246	0	1006.3	NA	0.0000		9999	7840	8270	0	0
2019/10/13 18:17:00	BASE	1.24	180	1.85	208	-8.2	93	-9.1	247	0	1006.3	NA	0.0000		9999	6000	7780	8300	0
2019/10/13 18:18:00	BASE	1.32	170	1.85	208	-8.2	93	-9.1	248	0	1006.3	NA	0.0000		9999	5020	8070	19030	0
2019/10/13 18:19:00	BASE	1.43	152	1.85	208	-8.2	93	-9.1	248	0	1006.3	NA	0.0000		9999	4890	8170	0	0
2019/10/13 18:20:00	BASE	1.56	150	1.85	151	-8.2	93	-9.1	250	0	1006.2	NA	0.0000		9999	4590	8100	0	0
2019/10/13 18:21:00	BASE	1.47	154	1.85	151	-8.2	93	-9.1	253	0	1006.2	NA	0.0000		9999	4530	7710	0	0
2019/10/13 18:22:00	BASE	0.70	165	1.85	151	-8.2	93	-9.1	259	0	1006.3	NA	0.0000		9999	4490	7280	0	0
2019/10/13 18:23:00	BASE	0.04	192	1.85	151	-8.2	93	-9.1	268	0	1006.4	NA	0.0000		9999	4590	5150	0	0
2019/10/13 18:24:00	BASE	0.00	222	1.85	151	-8.2	93	-9.1	276	0	1006.4	NA	0.0000		9999	4560	5640	6140	0
2019/10/13 18:25:00	BASE	0.42	248	1.85	151	-8.2	93	-9.2	282	0	1006.4	NA	0.0000		9999	4490	7780	0	0
2019/10/13 18:26:00	BASE	1.04	264	1.85	151	-8.2	93	-9.2	285	0	1006.5	NA	0.0000		9999	4360	0	0	0
2019/10/13 18:27:00	BASE	1.07	260	1.85	151	-8.2	93	-9.2	287	0	1006.5	NA	0.0000		9999	7710	0	0	0
2019/10/13 18:28:00	BASE	0.45	252	1.85	151	-8.2	93	-9.2	287	0	1006.5	NA	0.0000		9999	7420	0	0	0
2019/10/13 18:29:00	BASE	0.57	249	1.85	151	-8.2	93	-9.2	286	0	1006.5	NA	0.0000		9999	7050	0	0	0
2019/10/13 18:30:00	BASE	0.80	246	1.54	159	-8.3	93	-9.2	285	0	1006.5	NA	0.0000		9999	6690	0	0	0
2019/10/13 18:31:00	BASE	0.73	243	1.44	271	-8.3	93	-9.2	284	0	1006.5	NA	0.0000		9999	6370	0	0	0
2019/10/13 18:32:00	BASE	1.18	253	1.49	262	-8.3	93	-9.2	283	0	1006.5	NA	0.0000		9999	6270	0	0	0
2019/10/13 18:33:00	BASE	1.48	265	1.95	269	-8.2	93	-9.2	283	0	1006.5	NA	0.0000		9999	6230	0	0	0
2019/10/13 18:34:00	BASE	2.06	271	3.09	271	-8.2	93	-9.1	282	0	1006.5	NA	0.0000		9999	6400	0	0	0
2019/10/13 18:35:00	BASE	2.48	273	3.09	271	-8.2	93	-9.1	280	0	1006.5	NA	0.0000		9999	6500	0	0	0
2019/10/13 18:36:00	BASE	2.27	280	3.09	271	-8.2	93	-9.1	277	0	1006.5	NA	0.0000		9999	5970	0	0	0
2019/10/13 18:37:00	BASE	2.35	291	3.09	271	-8.1	93	-9.0	272	0	1006.5	NA	0.0000		9999	5810	0	0	0
2019/10/13 18:38:00	BASE	2.61	289	3.09	272	-8.1	93	-9.0	268	0	1006.5	NA	0.0000		9999	5770	0	0	0
2019/10/13 18:39:00	BASE	2.61	278	3.09	272	-8.0	93	-8.9	263	0	1006.5	NA	0.0000		9999	5770	0	0	0
2019/10/13 18:40:00	BASE	2.39	268	3.09	280	-8.0	93	-9.0	259	0	1006.5	NA	0.0000		9999	5540	0	0	0
2019/10/13 18:41:00	BASE	2.52	270	3.19	274	-8.0	93	-9.0	255	0	1006.5	NA	0.0000		9999	5350	0	0	0
2019/10/13 18:42:00	BASE	3.02	287	3.40	293	-8.1	93	-9.0	252	0	1006.6	NA	0.0000		9999	5150	0	0	0
2019/10/13 18:43:00	BASE	3.13	295	3.45	298	-8.1	93	-9.0	249	0	1006.5	NA	0.0000		9999	5150	0	0	0
2019/10/13 18:44:00	BASE	2.56	293	3.45	298	-8.1	93	-9.0	247	0	1006.5	NA	0.0000		9999	5280	0	0	0
2019/10/13 18:45:00	BASE	1.85	297	3.45	298	-8.1	93	-9.0	245	0	1006.5	NA	0.0000		9999	5050	0	0	0
2019/10/13 18:46:00	BASE	1.73	307	3.45	298	-8.1	93	-9.0	242	0	1006.5	NA	0.0000		9999	5150	0	0	0
2019/10/13 18:47:00	BASE	1.79	314	3.45	298	-8.1	93	-9.0	239	0	1006.5	NA	0.0000		9999	6040	0	0	0
2019/10/13 18:48:00	BASE	1.68	322	3.45	298	-8.1	93	-9.1	235	0	1006.5	NA	0.0000		9999	6040	0	0	0
2019/10/13 18:49:00	BASE	1.59	328	3.45	298	-8.1	92	-9.1	232	0	1006.4	NA	0.0000		9999	6660	0	0	0
2019/10/13 18:50:00	BASE	1.27	332	3.45	298	-8.1	92	-9.1	230	0	1006.4	NA	0.0000		9999	7220	0	0	0
2019/10/13 18:51:00	BASE	0.77	330	3.45	298	-8.1	92	-9.2	228	0	1006.4	NA	0.0000		9999	4590	0	0	0
2019/10/13 18:52:00	BASE	0.31	323	3.45	298	-8.2	92	-9.2	227	0	1006.4	NA	0.0000		9999	4490	0	0	0
2019/10/13 18:53:00	BASE	0.05	320	2.68	291	-8.2	92	-9.3	227	0	1006.4	NA	0.0000		9999	7150	0	0	0
2019/10/13 18:54:00	BASE	0.05	336	2.31	305	-8.2	92	-9.3	228	0	1006.4	NA	0.0000		9999	7420	0	0	0
2019/10/13 18:55:00	BASE	0.14	353	2.31	305	-8.2	92	-9.3	230	0	1006.4	NA	0.0000		9999	4430	0	0	0
2019/10/13 18:56:00	BASE	0.14	355	2.11	328	-8.2	92	-9.2	232	0	1006.4	NA	0.0000		9999	4360	0	0	0
2019/10/13 18:57:00	BASE	0.00	352	2.11	328	-8.2	92	-9.2	234	0	1006.3	NA	0.0000		9999	4100	21290	0	0
2019/10/13 18:58:00	BASE	0.00	337	2.11	328	-8.1	92	-9.1	237	0	1006.3	NA	0.0000		9999	4000	0	0	0
2019/10/13 18:59:00	BASE	0.00	353	1.44	320	-8.1	93	-9.1	239	0	1006.3	NA	0.0000		9999	3900	0	0	0
2019/10/13 19:00:00	BASE	0.05	10	1.44	320	-8.1	93	-9.0	241	0	1006.3	NA	0.0000		9999	3840	23230	0	0
2019/10/13 19:01:00	BASE	0.09	17	1.18	346	-8.1	93	-9.0	244	0	1006.2	NA	0.0000		9999	3740	0	0	0
2019/10/13 19:02:00	BASE	0.71	43	1.49	65	-8.0	93	-8.9	246	0	1006.1	NA	0.0000		9999	5580	0	0	0
2019/10/13 19:03:00	BASE	1.34	53	1.49	65	-8.0	93	-8.9	248	0	1006.1	NA	0.0000		9999	5350	0	0	0
2019/10/13 19:04:00	BASE	1.02	50	1.49	65	-8.0	93	-8.9	248	0	1006.1	NA	0.0000		9999	5250	0	0	0
2019/10/13 19:05:00	BASE	0.61	54	1.49	65	-8.0	93	-8.9	248	0	1006.1	NA	0.0000		9999	5220	0	0	0
2019/10/13 19:06:00	BASE	0.63	62	1.49	65	-8.0	93	-8.9	248	0	1006.1	NA	0.0000		9999	19820	0	0	0
2019/10/13 19:07:00	BASE	1.47	60	3.14	46	-8.0	93	-8.9	248	0	1006.0	NA	0.0000		9999	5250	0	0	0
2019/10/13 19:08:00	BASE	2.60	55	3.55	53	-8.0	93	-8.9	248	0	1005.9	NA	0.0000		9999	5540	0	0	0
2019/10/13 19:09:00	BASE	2.75	56	3.55	53	-8.0	93	-8.9	248	0	1005.9	NA	0.0000		9999	5450	0	0	0
2019/10/13 19:10:00	BASE	2.34	58	3.55	53	-7.9	93	-8.8	247	0	1005.9	NA	0.0000		9999	6330	0	0	0
2019/10/13 19:11:00	BASE	2.10	65	3.55	53	-7.9	93	-8.8	246	0	1005.9	NA	0.0000		9999	6000	0	0	0
2019/10/13 19:12:00	BASE	2.28	65	3.55	53	-7.9	93	-8.8	244	0	1005.9	NA	0.0000		9999	6230	0	0	0
2019/10/13 19:13:00	BASE	2.40	69	3.55	53	-7.9	93	-8.8	241	0	1005.9	NA	0.0000		9999	6890	0	0	0
2019/10/13 19:14:00	BASE	1.94	75	3.55	53	-7.9	93	-8.8	238	0	1005.9	NA	0.0000		9999	7020	0	0	0
2019/10/13 19:15:00	BASE	1.43	85	3.55	53	-7.9	93	-8.8	235	0	1005.9	NA	0.0000		9999	7380	0	0	0
2019/10/13 19:16:00	BASE	1.39	105	3.55	53	-7.9	93	-8.8	231	0	1005.8	NA	0.0000		9999	7320	0	0	0
2019/10/13 19:17:00	BASE	1.47	119	3.55	53	-7.9	93	-8.8	228	0	1005.8	NA	0.0000		9999	3940	0	0	0
2019/10/13 19:18:00	BASE	1.51	128	2.98	57	-7.9	93	-8.8	224	0	1005.8	NA	0.0000		9999	3810	0	0	0
2019/10/13 19:19:00	BASE	1.71	137	2.83	53	-7.9	93	-8.8	220	0	1005.8	NA	0.0000		9999	3770	0	0	0
2019/10/13 19:20:00	BASE	2.00	147	2.83	53	-7.9	93	-8.8	216	0	1005.8	NA	0.0000		9999	3770	0	0	0
2019/10/13 19:21:00	BASE	2.45	152	2.93	148	-7.9	93	-8.8	212	0	1005.7	NA	0.0000		9999	3670	0	0	0
2019/10/13 19:22:00	BASE	2.79	154	3.29	158	-7.9	93	-8.8	208	0	1005.7	NA	0.0000		9999	3670	0	0	0
2019/10/13 19:23:00	BASE	2.98	156	3.29	158	-7.9	93	-8.8	204	0	1005.7	NA	0.0000		9999	3580	0	0	0
2019/10/13 19:24:00	BASE	2.82	160	3.29	158	-7.9	93	-8.8	199	0	1005.7	NA	0.0000		9999	3510	0	0	0
2019/10/13 19:25:00	BASE	2.75	161	3.34	157	-7.9	93	-8.8	195	0	1005.7	NA	0.0000		9999	3350	0	0	0
2019/10/13 19:26:00	BASE	3.08	160	3.45	162	-7.9	93	-8.8	190	0	1005.7	NA	0.0000		9999	3640	0	0	0
2019/10/13 19:27:00	BASE	3.46	158	4.12	153	-7.9	93	-8.8	185	0	1005.7	NA	0.0000		9999	3640	0	0	0
2019/10/13 19:28:00	BASE	4.07	154	4.78	153	-7.9	93	-8.8	180	0	1005.6	NA	0.0000		9999	3640	0	0	0
2019/10/13 19:29:00	BASE	4.55	150	4.94	151	-7.9	93	-8.8	175	0	1005.6	NA	0.0000		9999	3250	21560	0	0
2019/10/13 19:30:00	BASE	4.75	147	5.56	144	-7.9	93	-8.8	172	0	1005.6	NA	0.0000		9999	2950	0	0	0
2019/10/13 19:31:00	BASE	5.17	146	5.92	141	-7.9	93	-8.8	169	0	1005.6	NA	0.0000		9999	3610	0	0	0
2019/10/13 19:32:00	BASE	5.15	151	5.92	141	-7.9	93	-8.9	167	0	1005.6	NA	0.0000		9999	3640	0	0	0
2019/10/13 19:33:00	BASE	4.69	156	5.92	141	-8.0	93	-8.9	165	0	1005.6	NA	0.0000		9999	2660	0	0	0
2019/10/13 19:34:00	BASE	4.84	150	5.92	141	-8.0	93	-8.9	163	0	1005.6	NA	0.0000		9999	2460	0	0	0
2019/10/13 19:35:00	BASE	5.31	144	5.92	141	-8.0	93	-8.9	160	0	1005.5	NA	0.0000		9999	5320	0	0	0
2019/10/13 19:36:00	BASE	5.65	139	6.28	129	-8.0	94	-8.8	157	0	1005.4	NA	0.0000		9999	4950	0	0	0
2019/10/13 19:37:00	BASE	5.89	129	6.58	120	-8.0	94	-8.8	154	0	1005.4	NA	0.0000		9999	2530	0	0	0
2019/10/13 19:38:00	BASE	5.99	120	6.74	114	-8.0	94	-8.8	151	0	1005.4	NA	0.0000		9999	4330	0	0	0
2019/10/13 19:39:00	BASE	6.36	117	7.51	123	-8.0	94	-8.8	149	0	1005.4	NA	0.0000		9999	1900	0	0	0
2019/10/13 19:40:00	BASE	6.93	117	7.92	116	-8.0	94	-8.8	148	0	1005.3	NA	0.0000		9999	4360	0	0	0
2019/10/13 19:41:00	BASE	7.18	117	7.92	116	-8.0	94	-8.8	149	0	1005.3	NA	0.0000		9999	1800	0	0	0
2019/10/13 19:42:00	BASE	6.73	116	7.92	116	-8.0	94	-8.8	152	0	1005.3	NA	0.0000		9999	1940	0	0	0
2019/10/13 19:43:00	BASE	7.12	117	8.59	117	-8.0	94	-8.8	155	0	1005.3	NA	0.0000		9999	1940	24310	0	0
2019/10/13 19:44:00	BASE	7.49	119	8.59	117	-8.0	94	-8.8	158	0	1005.3	NA	0.0000		9999	1840	0	0	0
2019/10/13 19:45:00	BASE	7.22	117	8.59	117	-8.0	94	-8.8	159	0	1005.3	NA	0.0000		9999	1770	0	0	0
2019/10/13 19:46:00	BASE	6.98	116	8.59	117	-8.0	94	-8.8	159	0	1005.3	NA	0.0000		9999	1800	0	0	0
2019/10/13 19:47:00	BASE	6.78	115	8.59	117	-8.0	94	-8.8	157	0	1005.2	NA	0.0000		9999	1710	0	0	0
2019/10/13 19:48:00	BASE	7.18	117	8.59	117	-8.0	94	-8.8	153	0	1005.3	NA	0.0000		9999	4360	0	0	0
2019/10/13 19:49:00	BASE	7.73	119	9.05	116	-7.9	94	-8.7	150	0	1005.3	NA	0.0000		9999	4430	0	0	0
2019/10/13 19:50:00	BASE	6.85	122	9.05	116	-7.9	94	-8.7	148	0	1005.3	NA	0.0000		9999	4590	0	0	0
2019/10/13 19:51:00	BASE	5.47	119	9.05	116	-7.9	94	-8.7	150	0	1005.2	NA	0.0000		9999	4430	0	0	0
2019/10/13 19:52:00	BASE	5.97	116	9.05	116	-7.8	94	-8.6	155	0	1005.2	NA	0.0000		9999	4430	0	0	0
2019/10/13 19:53:00	BASE	5.68	121	9.05	116	-7.8	94	-8.6	165	0	1005.2	NA	0.0000		9999	4490	0	0	0
2019/10/13 19:54:00	BASE	5.25	123	9.05	116	-7.7	94	-8.6	177	0	1005.2	NA	0.0000		9999	2790	0	0	0
2019/10/13 19:55:00	BASE	5.89	125	9.05	116	-7.7	93	-8.6	189	0	1005.2	NA	0.0000		9999	4760	0	0	0
2019/10/13 19:56:00	BASE	5.29	127	9.05	116	-7.7	93	-8.6	201	0	1005.2	NA	0.0000		9999	19030	24120	0	0
2019/10/13 19:57:00	BASE	4.34	125	9.05	116	-7.6	93	-8.6	210	0	1005.2	NA	0.0000		9999	4950	0	0	0
2019/10/13 19:58:00	BASE	4.23	128	9.05	116	-7.6	93	-8.6	212	0	1005.2	NA	0.0000		9999	4660	0	0	0
2019/10/13 19:59:00	BASE	4.50	126	7.97	119	-7.5	92	-8.6	206	0	1005.2	NA	0.0000		9999	4690	0	0	0
2019/10/13 20:00:00	BASE	5.48	124	7.97	119	-7.5	92	-8.6	192	0	1005.2	NA	0.0000		9999	4690	0	0	0
2019/10/13 20:01:00	BASE	5.99	127	7.97	119	-7.4	91	-8.6	174	0	1005.2	NA	0.0000		9999	4560	0	0	0
2019/10/13 20:02:00	BASE	5.80	124	7.05	136	-7.4	90	-8.7	159	0	1005.1	NA	0.0000		9999	3250	0	0	0
2019/10/13 20:03:00	BASE	5.70	123	7.05	136	-7.3	89	-8.8	149	0	1005.1	NA	0.0000		9999	1120	0	0	0
2019/10/13 20:04:00	BASE	5.26	125	7.05	136	-7.3	89	-8.8	143	0	1005.1	NA	0.0000		9999	1210	0	0	0
2019/10/13 20:05:00	BASE	4.94	130	6.89	123	-7.3	88	-8.9	140	0	1005.1	NA	0.0000		9999	980	0	0	0
2019/10/13 20:06:00	BASE	4.59	133	6.89	123	-7.3	88	-9.0	139	0	1005.1	NA	0.0000		9999	2990	0	0	0
2019/10/13 20:07:00	BASE	3.93	130	6.89	123	-7.2	87	-9.0	139	0	1005.1	NA	0.0000		9999	1180	0	0	0
2019/10/13 20:08:00	BASE	3.92	127	6.89	123	-7.2	87	-9.1	140	0	1005.1	NA	0.0000		9999	2820	0	0	0
2019/10/13 20:09:00	BASE	4.13	130	6.89	123	-7.2	86	-9.1	142	0	1005.1	NA	0.0000		9999	2660	0	0	0
2019/10/13 20:10:00	BASE	4.12	132	6.74	138	-7.2	86	-9.2	144	0	1005.0	NA	0.0000		9999	2490	0	0	0
2019/10/13 20:11:00	BASE	4.36	132	6.53	108	-7.2	85	-9.3	147	0	1004.9	NA	0.0000		9999	2330	0	0	0
2019/10/13 20:12:00	BASE	4.84	131	6.17	138	-7.2	85	-9.3	150	0	1004.9	NA	0.0000		9999	2170	0	0	0
2019/10/13 20:13:00	BASE	5.02	131	6.17	138	-7.2	84	-9.4	153	0	1004.9	NA	0.0000		9999	2030	0	0	0
2019/10/13 20:14:00	BASE	4.74	130	6.17	138	-7.2	84	-9.4	155	0	1004.8	NA	0.0000		9999	2000	0	0	0
2019/10/13 20:15:00	BASE	4.66	128	6.17	138	-7.2	84	-9.4	157	0	1004.8	NA	0.0000		9999	1970	0	0	0
2019/10/13 20:16:00	BASE	4.16	128	6.17	138	-7.2	85	-9.3	159	0	1004.9	NA	0.0000		9999	1120	0	0	0
2019/10/13 20:17:00	BASE	3.91	122	6.17	138	-7.2	85	-9.3	161	0	1004.9	NA	0.0000		9999	2000	0	0	0
2019/10/13 20:18:00	BASE	4.32	114	6.17	138	-7.1	85	-9.2	161	0	1004.9	NA	0.0000		9999	2000	0	0	0
2019/10/13 20:19:00	BASE	4.42	111	6.17	138	-7.1	85	-9.2	161	0	1004.9	NA	0.0000		9999	1210	0	0	0
2019/10/13 20:20:00	BASE	4.39	110	6.17	138	-7.0	84	-9.2	160	0	1004.9	NA	0.0000		9999	1900	0	0	0
2019/10/13 20:21:00	BASE	4.30	106	6.17	138	-6.9	84	-9.2	159	0	1004.9	NA	0.0000		9999	2030	2950	0	0
2019/10/13 20:22:00	BASE	4.16	100	5.56	133	-6.9	83	-9.2	155	0	1004.9	NA	0.0000		9999	2000	0	0	0
2019/10/13 20:23:00	BASE	4.39	97	5.56	133	-6.8	83	-9.2	151	0	1004.8	NA	0.0000		9999	2070	2950	0	0
2019/10/13 20:24:00	BASE	4.50	96	5.30	96	-6.8	82	-9.3	148	0	1004.8	NA	0.0000		9999	1900	2920	0	0
2019/10/13 20:25:00	BASE	4.48	96	5.30	96	-6.7	82	-9.3	144	0	1004.9	NA	0.0000		9999	1870	23300	0	0
2019/10/13 20:26:00	BASE	4.23	98	5.30	96	-6.7	81	-9.4	141	0	1004.8	NA	0.0000		9999	1900	0	0	0
2019/10/13 20:27:00	BASE	4.22	98	5.30	96	-6.7	81	-9.4	138	0	1004.8	NA	0.0000		9999	1970	0	0	0
2019/10/13 20:28:00	BASE	4.49	97	5.30	96	-6.7	80	-9.5	134	0	1004.8	NA	0.0000		9999	1770	0	0	0
2019/10/13 20:29:00	BASE	4.59	91	5.56	84	-6.7	80	-9.5	129	0	1004.8	NA	0.0000		9999	1670	2890	0	0
2019/10/13 20:30:00	BASE	4.36	77	5.56	84	-6.7	80	-9.5	124	0	1004.8	NA	0.0000		9999	1670	2890	0	0
2019/10/13 20:31:00	BASE	4.34	76	5.56	84	-6.6	80	-9.5	119	0	1004.8	NA	0.0000		9999	1770	2850	0	0
2019/10/13 20:32:00	BASE	4.03	77	5.56	84	-6.7	80	-9.5	115	0	1004.8	NA	0.0000		9999	1800	2790	0	0
2019/10/13 20:33:00	BASE	3.74	80	5.56	84	-6.7	80	-9.5	111	0	1004.8	NA	0.0000		9999	1970	0	0	0
2019/10/13 20:34:00	BASE	3.95	90	5.56	84	-6.7	80	-9.5	109	0	1004.8	NA	0.0000		9999	1800	0	0	0
2019/10/13 20:35:00	BASE	3.46	89	5.56	84	-6.7	81	-9.5	108	0	1004.7	NA	0.0000		9999	1540	0	0	0
2019/10/13 20:36:00	BASE	2.85	96	5.56	84	-6.7	81	-9.4	108	0	1004.7	NA	0.0000		9999	1710	0	0	0
2019/10/13 20:37:00	BASE	2.33	95	5.56	84	-6.7	81	-9.3	109	0	1004.7	NA	0.0000		9999	1570	0	0	0
2019/10/13 20:38:00	BASE	1.81	85	5.56	84	-6.6	81	-9.3	111	0	1004.7	NA	0.0000		9999	1480	0	0	0
2019/10/13 20:39:00	BASE	1.65	48	5.25	84	-6.5	81	-9.2	114	0	1004.7	NA	0.0000		9999	1440	0	0	0
2019/10/13 20:40:00	BASE	1.36	355	5.25	84	-6.5	80	-9.3	118	0	1004.7	NA	0.0000		9999	1410	2690	0	0
2019/10/13 20:41:00	BASE	0.75	5	4.89	104	-6.4	80	-9.3	121	0	1004.7	NA	0.0000		9999	1480	2720	0	0
2019/10/13 20:42:00	BASE	0.77	84	4.89	104	-6.4	79	-9.4	121	0	1004.7	NA	0.0000		9999	1800	0	0	0
2019/10/13 20:43:00	BASE	0.68	99	4.89	104	-6.4	79	-9.5	121	0	1004.7	NA	0.0000		9999	1740	0	0	0
2019/10/13 20:44:00	BASE	0.83	99	3.40	121	-6.4	78	-9.6	121	0	1004.7	NA	0.0000		9999	1710	0	0	0
2019/10/13 20:45:00	BASE	1.71	93	3.34	107	-6.4	78	-9.6	122	0	1004.7	NA	0.0000		9999	1710	0	0	0
2019/10/13 20:46:00	BASE	2.51	94	3.24	103	-6.5	78	-9.7	123	0	1004.7	NA	0.0000		9999	1640	0	0	0
2019/10/13 20:47:00	BASE	2.72	103	3.24	103	-6.5	78	-9.7	125	0	1004.6	NA	0.0000		9999	1480	0	0	0
2019/10/13 20:48:00	BASE	3.14	102	4.37	98	-6.5	78	-9.6	127	0	1004.6	NA	0.0000		9999	1440	24050	0	0
2019/10/13 20:49:00	BASE	3.43	103	4.37	98	-6.5	78	-9.6	130	0	1004.6	NA	0.0000		9999	1410	0	0	0
2019/10/13 20:50:00	BASE	2.75	117	4.37	98	-6.5	79	-9.6	134	0	1004.6	NA	0.0000		9999	1280	0	0	0
2019/10/13 20:51:00	BASE	2.11	120	4.37	98	-6.5	79	-9.6	138	0	1004.6	NA	0.0000	-SN	9999	1180	0	0	0
2019/10/13 20:52:00	BASE	2.15	117	4.37	98	-6.5	79	-9.5	141	0	1004.6	NA	0.0000	-SN	9000	1080	0	0	0
2019/10/13 20:53:00	BASE	2.96	127	4.89	134	-6.5	79	-9.5	143	0	1004.5	NA	0.0000	-SN	9000	0	0	0	6200
2019/10/13 20:54:00	BASE	4.12	129	5.66	120	-6.5	79	-9.5	144	0	1004.5	NA	0.0000	-SN	7000	0	0	0	6630
2019/10/13 20:55:00	BASE	4.85	123	5.76	117	-6.5	79	-9.5	145	0	1004.5	NA	0.0000	-SN	7000	0	0	0	6530
2019/10/13 20:56:00	BASE	5.90	123	7.51	119	-6.6	80	-9.5	145	0	1004.5	NA	0.0000	-SN	7000	1250	21490	0	0
2019/10/13 20:57:00	BASE	6.21	121	7.51	119	-6.7	80	-9.5	144	0	1004.5	NA	0.0000	-SN	6000	1280	18210	0	0
2019/10/13 20:58:00	BASE	6.46	119	7.97	123	-6.8	81	-9.5	141	0	1004.4	NA	0.0000	-SN	8000	0	0	0	6300
2019/10/13 20:59:01	BASE	7.35	119	8.08	121	-6.8	82	-9.4	136	0	1004.4	NA	0.0000	-SN	9000	2030	0	0	0
2019/10/13 21:00:01	BASE	7.44	120	8.33	121	-6.9	83	-9.3	131	0	1004.4	NA	0.0000	-SN	8000	2070	0	0	0
2019/10/13 21:01:00	BASE	8.11	122	9.98	127	-7.0	84	-9.2	125	0	1004.4	NA	0.0000	-SN	8000	8140	0	0	0
2019/10/13 21:02:01	BASE	7.94	122	9.98	127	-7.0	85	-9.2	120	0	1004.4	NA	0.0000	-SN BR	9999	8100	0	0	0
2019/10/13 21:03:00	BASE	7.90	120	9.98	127	-7.1	85	-9.1	115	0	1004.4	NA	0.0000	-SN BR	9000	8070	0	0	0
2019/10/13 21:04:01	BASE	8.82	122	9.98	127	-7.1	86	-9.0	111	0	1004.4	NA	0.0000	-SN BR	7000	8140	0	0	0
2019/10/13 21:05:00	BASE	9.25	125	9.98	125	-7.2	87	-9.0	106	0	1004.4	NA	0.0000	-SN BR	7000	8140	0	0	0
2019/10/13 21:06:00	BASE	9.60	126	10.80	127	-7.2	88	-8.9	103	0	1004.4	NA	0.0000	-SN BR	8000	8100	0	0	0
2019/10/13 21:07:00	BASE	9.73	126	10.80	127	-7.2	88	-8.8	100	0	1004.3	NA	0.0000	-SN BR	9000	0	0	0	8460
2019/10/13 21:08:00	BASE	9.34	124	10.80	127	-7.3	89	-8.8	97	0	1004.3	NA	0.0000	-SN BR	9000	0	0	0	8500
2019/10/13 21:09:00	BASE	9.41	120	10.80	127	-7.3	90	-8.7	94	0	1004.2	NA	0.0000	-SN BR	9000	8100	0	0	0
2019/10/13 21:10:00	BASE	9.66	119	10.80	127	-7.3	90	-8.6	91	0	1004.2	NA	0.0000	-SN BR	6000	8010	0	0	0
2019/10/13 21:11:00	BASE	9.85	121	11.42	123	-7.3	91	-8.5	88	0	1004.2	NA	0.0000	-SN BR	5000	7910	9220	0	0
2019/10/13 21:12:00	BASE	10.26	123	11.42	123	-7.3	91	-8.5	85	0	1004.2	NA	0.0000	-SN BR	6000	7940	9190	0	0
2019/10/13 21:13:00	BASE	10.18	123	11.57	125	-7.3	92	-8.4	82	0	1004.2	NA	0.0000	-SN BR	6000	7810	9150	0	0
2019/10/13 21:14:01	BASE	10.32	123	11.63	124	-7.4	92	-8.4	81	0	1004.3	NA	0.0000	-SN BR	7000	7780	9150	0	0
2019/10/13 21:15:01	BASE	10.12	124	11.63	124	-7.4	93	-8.3	81	0	1004.3	NA	0.0000	-SN BR	9999	7680	9090	0	0
2019/10/13 21:16:00	BASE	10.07	122	11.63	124	-7.4	93	-8.3	82	0	1004.2	NA	0.0000	-SN BR	9000	7710	9060	0	0
2019/10/13 21:17:00	BASE	10.63	122	11.63	124	-7.4	94	-8.3	81	0	1004.2	NA	0.0000	-SN BR	9999	8010	9060	0	0
2019/10/13 21:18:00	BASE	10.34	122	11.63	124	-7.4	94	-8.2	80	0	1004.2	NA	0.0000	-SN BR	6000	5510	9060	0	0
2019/10/13 21:19:00	BASE	9.69	124	11.63	124	-7.4	94	-8.2	78	0	1004.2	NA	0.0000	-SN BR	8000	1610	9060	0	0
2019/10/13 21:20:00	BASE	10.17	128	11.99	129	-7.4	94	-8.2	77	0	1004.2	NA	0.0000	-SN BR	9999	9020	0	0	0
2019/10/13 21:21:00	BASE	10.52	127	11.99	129	-7.4	94	-8.1	76	0	1004.2	NA	0.0000	-SN BR	9999	9060	0	0	0
2019/10/13 21:22:00	BASE	10.25	127	11.99	129	-7.4	95	-8.1	75	0	1004.2	NA	0.0000	-SN BR	9999	2300	8960	0	0
2019/10/13 21:23:00	BASE	10.30	129	11.99	129	-7.3	95	-8.1	74	0	1004.2	NA	0.0000	-SN BR	9999	8990	0	0	0
2019/10/13 21:24:01	BASE	10.66	127	11.99	129	-7.3	95	-8.0	72	0	1004.2	NA	0.0000	-SN	9999	1540	8920	20900	0
2019/10/13 21:25:00	BASE	10.69	128	11.99	129	-7.3	94	-8.0	70	0	1004.2	NA	0.0000	-SN	9999	1480	8960	0	0
2019/10/13 21:26:01	BASE	10.75	131	12.55	138	-7.3	94	-8.1	67	0	1004.2	NA	0.0000	-SN	9999	1770	8920	0	0
2019/10/13 21:27:00	BASE	10.96	131	12.66	129	-7.3	94	-8.1	65	0	1004.2	NA	0.0000	-SN	9999	2300	8920	0	0
2019/10/13 21:28:01	BASE	11.37	128	12.71	125	-7.3	94	-8.1	62	0	1004.2	NA	0.0000	-SN	9999	1800	8890	0	0
2019/10/13 21:29:00	BASE	11.73	126	12.71	125	-7.3	94	-8.1	60	0	1004.2	NA	0.0000	-SN	9999	1770	8860	0	0
2019/10/13 21:30:00	BASE	11.64	126	12.71	125	-7.3	94	-8.1	58	0	1004.2	NA	0.0000	-SN	9999	1800	8920	0	0
2019/10/13 21:31:00	BASE	11.11	126	12.71	125	-7.3	94	-8.1	57	0	1004.2	NA	0.0000	-SN	9000	1740	4630	0	0
2019/10/13 21:32:00	BASE	11.39	126	12.96	126	-7.3	94	-8.1	55	0	1004.2	NA	0.0000	-SN	9999	2170	3180	8920	0
2019/10/13 21:33:00	BASE	11.89	125	12.96	126	-7.3	94	-8.1	54	0	1004.2	NA	0.0000	-SN	9999	1770	2990	4530	0
2019/10/13 21:34:01	BASE	11.75	124	13.02	125	-7.2	94	-8.1	53	0	1004.2	NA	0.0000	-SN	9999	2100	3120	8920	0
2019/10/13 21:35:00	BASE	12.03	122	13.02	125	-7.2	94	-8.1	53	0	1004.2	NA	0.0000	-SN	9999	2100	3150	23890	0
2019/10/13 21:36:00	BASE	12.11	121	13.02	125	-7.2	93	-8.1	53	0	1004.1	NA	0.0000	-SN	9999	2130	4490	0	0
2019/10/13 21:37:00	BASE	12.50	120	13.22	121	-7.2	93	-8.1	52	0	1004.1	NA	0.0000	-SN	9999	2170	4950	0	0
2019/10/13 21:38:00	BASE	12.74	119	13.22	121	-7.2	93	-8.2	51	0	1004.1	NA	0.0000	-SN	9999	2200	2950	0	0
2019/10/13 21:39:00	BASE	12.93	118	13.84	116	-7.2	92	-8.2	50	0	1004.1	NA	0.0000	-SN	9999	2170	3050	4270	0
2019/10/13 21:40:00	BASE	13.35	117	13.84	116	-7.2	92	-8.2	49	0	1004.0	NA	0.0000	-SN	9999	2200	3020	4920	0
2019/10/13 21:41:00	BASE	13.72	117	14.25	117	-7.2	92	-8.3	48	0	1004.0	NA	0.0000		9999	2200	4920	0	0
2019/10/13 21:42:00	BASE	13.67	117	14.25	117	-7.2	92	-8.3	48	0	1003.9	NA	0.0000		9999	2200	4860	0	0
2019/10/13 21:43:00	BASE	13.39	117	14.25	117	-7.2	91	-8.4	48	0	1003.9	NA	0.0000		9999	2130	4860	0	0
2019/10/13 21:44:01	BASE	13.35	116	14.25	117	-7.1	91	-8.4	48	0	1003.9	NA	0.0000		9999	2170	4860	0	0
2019/10/13 21:45:00	BASE	13.42	115	14.35	117	-7.1	90	-8.5	49	0	1003.8	NA	0.0000		9999	2170	4820	0	0
2019/10/13 21:46:00	BASE	13.14	117	14.56	122	-7.0	89	-8.5	51	0	1003.9	NA	0.0000		9999	2170	4860	0	0
2019/10/13 21:47:00	BASE	12.16	116	14.56	122	-7.0	88	-8.6	53	0	1003.9	NA	0.0000		9999	2130	4820	0	0
2019/10/13 21:48:00	BASE	11.00	113	14.56	122	-7.0	87	-8.7	55	0	1003.9	NA	0.0000	-SN	9999	2170	4820	0	0
2019/10/13 21:49:00	BASE	11.00	113	14.56	122	-6.9	87	-8.8	56	0	1003.8	NA	0.0000	-SN	9999	2170	4790	0	0
2019/10/13 21:50:00	BASE	12.22	118	14.56	122	-6.9	86	-8.9	56	0	1003.8	NA	0.0000	-SN	9999	1710	4790	0	0
2019/10/13 21:51:00	BASE	12.27	118	14.56	122	-6.9	85	-8.9	56	0	1003.8	NA	0.0000	-SN	9999	1570	2100	0	0
2019/10/13 21:52:00	BASE	11.68	115	14.56	122	-6.9	85	-9.0	55	0	1003.8	NA	0.0000	-SN	9999	1670	4790	0	0
2019/10/13 21:53:00	BASE	11.81	115	14.56	122	-6.9	84	-9.1	53	0	1003.8	NA	0.0000	-SN	9999	2030	4760	0	0
2019/10/13 21:54:00	BASE	12.83	117	14.71	120	-6.9	84	-9.2	52	0	1003.7	NA	0.0000	-SN	9999	1970	4760	0	0
2019/10/13 21:55:00	BASE	13.87	118	14.92	118	-6.9	83	-9.3	50	0	1003.6	NA	0.0000	-SN	9999	4790	0	0	0
2019/10/13 21:56:00	BASE	13.68	118	14.92	118	-6.9	83	-9.3	48	0	1003.6	NA	0.0000	-SN	9999	4790	0	0	0
2019/10/13 21:57:00	BASE	13.54	118	14.92	118	-6.9	82	-9.4	45	0	1003.6	NA	0.0000	-SN	9999	4760	0	0	0
2019/10/13 21:58:00	BASE	13.48	117	14.92	118	-6.9	82	-9.5	42	0	1003.5	NA	0.0000	-SN	9999	4720	0	0	0
2019/10/13 21:59:00	BASE	13.38	115	14.92	118	-6.9	82	-9.5	40	0	1003.5	NA	0.0000	-SN	9999	4690	0	0	0
2019/10/13 22:00:00	BASE	13.40	114	14.92	118	-6.9	81	-9.5	38	0	1003.5	NA	0.0000	-SN	9999	4690	0	0	0
2019/10/13 22:01:00	BASE	13.36	116	14.92	118	-6.8	81	-9.6	37	0	1003.4	NA	0.0000	-SN	9999	4690	0	0	0
2019/10/13 22:02:00	BASE	13.45	117	14.92	118	-6.8	81	-9.6	36	0	1003.4	NA	0.0000	-SN	9999	4660	0	0	0
2019/10/13 22:03:00	BASE	13.18	116	14.92	118	-6.8	80	-9.6	35	0	1003.4	NA	0.0000	-SN	9999	4590	0	0	0
2019/10/13 22:04:00	BASE	12.85	117	14.92	118	-6.8	80	-9.7	35	0	1003.4	NA	0.0000	-SN	9999	2850	4590	0	0
2019/10/13 22:05:00	BASE	12.47	118	14.15	116	-6.8	80	-9.7	34	0	1003.4	NA	0.0000	-SN	9999	2820	4560	0	0
2019/10/13 22:06:00	BASE	12.18	118	14.15	116	-6.8	79	-9.7	33	0	1003.3	NA	0.0000	-SN	9999	2790	4590	0	0
2019/10/13 22:07:00	BASE	12.57	120	14.15	116	-6.8	79	-9.8	31	0	1003.3	NA	0.0000		9999	2760	4560	0	0
2019/10/13 22:08:00	BASE	12.41	122	14.15	116	-6.7	79	-9.8	30	0	1003.3	NA	0.0000	-SN	9999	2720	4560	0	0
2019/10/13 22:09:00	BASE	11.68	121	14.04	118	-6.7	79	-9.7	28	0	1003.3	NA	0.0000		9999	4560	0	0	0
2019/10/13 22:10:00	BASE	11.57	121	14.04	118	-6.7	79	-9.7	27	0	1003.2	NA	0.0000	-SN	9999	4590	0	0	0
2019/10/13 22:11:00	BASE	12.05	119	14.04	118	-6.7	79	-9.7	26	0	1003.2	NA	0.0000	-SN	9999	4490	0	0	0
2019/10/13 22:12:00	BASE	11.85	118	13.27	116	-6.6	79	-9.7	25	0	1003.1	NA	0.0000	-SN	9999	4530	0	0	0
2019/10/13 22:13:00	BASE	11.48	120	13.12	118	-6.6	79	-9.6	24	0	1003.0	NA	0.0000	-SN	9999	4460	0	0	0
2019/10/13 22:14:00	BASE	11.67	121	13.07	118	-6.6	79	-9.6	23	0	1003.0	NA	0.0000	-SN	9999	4430	0	0	0
2019/10/13 22:15:00	BASE	11.68	123	13.07	118	-6.6	79	-9.6	22	0	1003.0	NA	0.0000	-SN	9999	4430	0	0	0
2019/10/13 22:16:00	BASE	11.96	122	13.07	118	-6.6	79	-9.6	22	0	1002.9	NA	0.0000	-SN	9000	4430	0	0	0
2019/10/13 22:17:00	BASE	11.96	122	13.07	118	-6.5	79	-9.6	21	0	1002.9	NA	0.0000	-SN	6000	720	4400	0	0
2019/10/13 22:18:01	BASE	11.53	123	13.07	118	-6.5	79	-9.6	21	0	1002.9	NA	0.0000	-SN	6000	4400	0	0	0
2019/10/13 22:19:00	BASE	11.45	123	13.07	118	-6.5	79	-9.5	20	0	1002.8	NA	0.0000	-SN	6000	4330	0	0	0
2019/10/13 22:20:00	BASE	11.89	123	13.07	118	-6.5	79	-9.5	20	0	1002.8	NA	0.0000	-SN	4300	4170	0	0	0
2019/10/13 22:21:00	BASE	11.98	124	12.71	121	-6.5	79	-9.5	20	0	1002.8	NA	0.0000	-SN	7000	4100	0	0	0
2019/10/13 22:22:00	BASE	11.27	123	12.71	121	-6.4	79	-9.5	20	0	1002.8	NA	0.0000	-SN	9999	4100	0	0	0
2019/10/13 22:23:00	BASE	10.84	122	12.71	121	-6.4	79	-9.4	19	0	1002.8	NA	0.0000	-SN	9999	2530	4100	0	0
2019/10/13 22:24:00	BASE	11.29	120	13.02	118	-6.4	79	-9.4	19	0	1002.8	NA	0.0000	-SN	9999	2530	4170	0	0
2019/10/13 22:25:00	BASE	11.42	119	13.02	118	-6.4	80	-9.3	19	0	1002.8	NA	0.0000	-SN	9999	2490	4170	0	0
2019/10/13 22:26:00	BASE	10.99	119	13.02	118	-6.3	80	-9.3	18	0	1002.7	NA	0.0000	-SN	9999	2530	4100	0	0
2019/10/13 22:27:00	BASE	10.40	121	13.02	118	-6.3	80	-9.2	18	0	1002.7	NA	0.0000	-SN	9999	2530	4130	0	0
2019/10/13 22:28:00	BASE	9.97	121	13.02	118	-6.3	80	-9.1	18	0	1002.6	NA	0.0000	-SN	9999	2530	0	0	0
2019/10/13 22:29:00	BASE	10.05	118	13.02	118	-6.2	80	-9.1	18	0	1002.6	NA	0.0000	-SN	9999	2430	4130	0	0
2019/10/13 22:30:00	BASE	10.27	118	13.02	118	-6.2	80	-9.1	18	0	1002.6	NA	0.0000		9999	2490	4070	0	0
2019/10/13 22:31:00	BASE	10.30	117	13.02	118	-6.1	80	-9.1	17	0	1002.6	NA	0.0000		9999	2430	3810	0	0
2019/10/13 22:32:00	BASE	9.91	116	13.02	118	-6.1	80	-9.0	17	0	1002.6	NA	0.0000		9999	2460	3740	0	0
2019/10/13 22:33:00	BASE	9.43	116	13.02	118	-6.0	80	-9.0	17	0	1002.5	NA	0.0000		9999	2430	3710	0	0
2019/10/13 22:34:00	BASE	8.63	115	12.24	114	-6.0	79	-9.0	16	0	1002.5	NA	0.0000		9999	2400	3770	0	0
2019/10/13 22:35:00	BASE	7.50	114	12.24	114	-5.9	80	-8.9	15	0	1002.6	NA	0.0000		9999	2430	3810	0	0
2019/10/13 22:36:00	BASE	7.60	115	12.24	114	-5.8	80	-8.8	15	0	1002.5	NA	0.0000		9999	2360	3840	0	0
2019/10/13 22:37:00	BASE	8.45	114	12.24	114	-5.8	80	-8.8	15	0	1002.4	NA	0.0000		9999	2330	3840	0	0
2019/10/13 22:38:00	BASE	8.36	116	11.52	114	-5.8	80	-8.7	14	0	1002.4	NA	0.0000		9999	2330	3740	0	0
2019/10/13 22:39:00	BASE	7.71	119	11.52	114	-5.8	80	-8.7	14	0	1002.3	NA	0.0000		9999	2170	3740	0	0
2019/10/13 22:40:00	BASE	7.96	119	11.21	112	-5.7	80	-8.6	14	0	1002.3	NA	0.0000		9999	2230	3580	0	0
2019/10/13 22:41:00	BASE	8.29	116	10.85	110	-5.7	80	-8.6	13	0	1002.3	NA	0.0000		9999	2360	0	0	0
2019/10/13 22:42:01	BASE	8.41	115	10.34	118	-5.7	80	-8.6	12	0	1002.3	NA	0.0000		9999	2230	3480	0	0
2019/10/13 22:43:00	BASE	8.93	115	9.77	115	-5.7	80	-8.6	11	0	1002.3	NA	0.0000		9999	2260	3480	0	0
2019/10/13 22:44:00	BASE	8.91	112	9.77	115	-5.7	80	-8.7	10	0	1002.2	NA	0.0000		9999	2030	3480	0	0
2019/10/13 22:45:00	BASE	8.78	112	9.77	115	-5.7	79	-8.7	10	0	1002.2	NA	0.0000		9999	1570	0	0	0
2019/10/13 22:46:00	BASE	8.41	113	9.77	115	-5.7	79	-8.7	9	0	1002.2	NA	0.0000		9999	1250	0	0	0
2019/10/13 22:47:00	BASE	8.28	114	9.77	115	-5.7	79	-8.8	9	0	1002.2	NA	0.0000	-SN	9999	2100	3580	0	0
2019/10/13 22:48:00	BASE	7.55	116	9.77	115	-5.7	79	-8.7	8	0	1002.2	NA	0.0000	-SN	9999	1740	3540	0	0
2019/10/13 22:49:00	BASE	6.76	117	9.77	115	-5.6	79	-8.7	7	0	1002.2	NA	0.0000	-SN	8000	690	3510	0	0
2019/10/13 22:50:00	BASE	7.58	118	9.77	115	-5.6	79	-8.7	7	0	1002.1	NA	0.0000	-SN	7000	390	3480	0	0
2019/10/13 22:51:00	BASE	7.63	118	9.77	115	-5.6	79	-8.6	7	0	1002.1	NA	0.0000	-SN	3700	360	3380	0	0
2019/10/13 22:52:00	BASE	7.14	118	9.67	117	-5.6	79	-8.6	6	0	1002.1	NA	0.0000	-SN	2300	300	3380	0	0
2019/10/13 22:53:00	BASE	6.78	114	9.52	113	-5.5	80	-8.5	6	0	1002.1	NA	0.0000	-SN	1700	300	3310	0	0
2019/10/13 22:54:00	BASE	5.81	117	9.52	113	-5.5	80	-8.4	6	0	1002.0	NA	0.0000	-SN	1600	300	3350	0	0
2019/10/13 22:55:00	BASE	5.28	122	9.47	121	-5.4	80	-8.3	6	0	1002.0	NA	0.0000	-SN	1900	300	0	0	0
2019/10/13 22:56:00	BASE	5.55	121	9.47	121	-5.3	80	-8.2	5	0	1002.0	NA	0.0000	-SN	2000	3350	0	0	0
2019/10/13 22:57:00	BASE	6.29	121	8.75	115	-5.3	81	-8.1	5	0	1001.9	NA	0.0000	-SN	2400	3310	0	0	0
2019/10/13 22:58:00	BASE	6.90	120	8.75	115	-5.3	81	-8.1	5	0	1001.8	NA	0.0000	-SN	2600	3250	4660	0	0
2019/10/13 22:59:00	BASE	7.67	115	9.05	105	-5.3	81	-8.1	5	0	1001.8	NA	0.0000	-SN	3400	3180	0	0	0
2019/10/13 23:00:00	BASE	7.65	118	9.05	105	-5.3	81	-8.1	4	0	1001.8	NA	0.0000	-SN	5000	3250	0	0	0
2019/10/13 23:01:00	BASE	6.90	125	9.05	105	-5.4	81	-8.2	4	0	1001.7	NA	0.0000	-SN	5000	3220	3870	0	0
2019/10/13 23:02:00	BASE	6.06	122	9.05	105	-5.4	81	-8.2	4	0	1001.7	NA	0.0000	-SN	9999	3180	3810	0	0
2019/10/13 23:03:00	BASE	5.69	122	9.05	105	-5.3	81	-8.1	4	0	1001.7	NA	0.0000	-SN	9999	3150	0	0	0
2019/10/13 23:04:00	BASE	6.46	129	9.05	105	-5.3	81	-8.1	3	0	1001.6	NA	0.0000	-SN	9999	1150	3150	4490	0
2019/10/13 23:05:00	BASE	7.13	125	9.05	105	-5.3	81	-8.1	3	0	1001.6	NA	0.0000	-SN	9999	980	3610	0	0
2019/10/13 23:06:00	BASE	7.03	120	9.05	105	-5.3	81	-8.1	3	0	1001.6	NA	0.0000	-SN	9999	1020	3540	0	0
2019/10/13 23:07:00	BASE	7.07	126	9.05	105	-5.4	81	-8.1	3	0	1001.6	NA	0.0000	-SN	9999	560	3480	0	0
2019/10/13 23:08:00	BASE	7.57	126	9.05	105	-5.5	81	-8.2	3	0	1001.6	NA	0.0000	-SN	6000	360	3480	0	0
2019/10/13 23:09:00	BASE	7.26	125	8.75	132	-5.5	81	-8.3	3	0	1001.6	NA	0.0000	-SN	3000	360	3510	0	0
2019/10/13 23:10:00	BASE	6.84	126	8.75	132	-5.6	81	-8.3	3	0	1001.5	NA	0.0000	-SN	2300	300	3410	0	0
2019/10/13 23:11:00	BASE	6.89	128	8.75	132	-5.6	81	-8.3	2	0	1001.5	NA	0.0000	-SN	2100	3020	0	0	0
2019/10/13 23:12:00	BASE	7.05	133	8.75	132	-5.6	81	-8.3	2	0	1001.5	NA	0.0000	-SN	2300	2990	0	0	0
2019/10/13 23:13:00	BASE	7.77	141	9.31	147	-5.7	82	-8.3	2	0	1001.5	NA	0.0000	-SN	4000	3480	0	0	0
2019/10/13 23:14:00	BASE	8.72	147	9.83	147	-5.8	82	-8.4	2	0	1001.4	NA	0.0000	-SN	5000	3410	0	0	0
2019/10/13 23:15:00	BASE	8.77	149	9.83	147	-5.9	82	-8.4	2	0	1001.5	NA	0.0000	-SN	4500	3350	0	0	0
2019/10/13 23:16:00	BASE	8.56	148	9.83	147	-6.0	83	-8.5	2	0	1001.5	NA	0.0000	-SN	3000	3050	0	0	0
2019/10/13 23:17:00	BASE	8.63	149	9.83	147	-6.1	83	-8.5	2	0	1001.4	NA	0.0000	-SN	2700	2990	0	0	0
2019/10/13 23:18:00	BASE	8.82	152	10.24	156	-6.2	84	-8.5	2	0	1001.4	NA	0.0000	-SN	3200	2560	3480	0	0
2019/10/13 23:19:00	BASE	8.37	150	10.24	156	-6.2	84	-8.4	1	0	1001.3	NA	0.0000	-SN	3500	2400	3410	0	0
2019/10/13 23:20:00	BASE	7.47	150	10.24	156	-6.2	85	-8.3	1	0	1001.3	NA	0.0000	-SN BR	3700	2360	3410	0	0
2019/10/13 23:21:00	BASE	7.58	157	10.24	156	-6.2	85	-8.3	1	0	1001.3	NA	0.0000	-SN BR	4700	2230	3480	0	0
2019/10/13 23:22:00	BASE	8.30	157	10.24	156	-6.2	86	-8.2	1	0	1001.2	NA	0.0000	-SN BR	7000	2130	3510	0	0
2019/10/13 23:23:00	BASE	9.12	151	10.34	150	-6.2	86	-8.1	1	0	1001.1	NA	0.0000	-SN BR	9999	2300	3480	0	0
2019/10/13 23:24:00	BASE	9.13	149	10.34	150	-6.2	86	-8.1	1	0	1001.1	NA	0.0000	-SN BR	9999	2260	3540	0	0
2019/10/13 23:25:00	BASE	8.52	147	10.34	149	-6.2	87	-8.0	1	0	1001.1	NA	0.0000	-SN BR	9999	2230	0	0	0
2019/10/13 23:26:00	BASE	8.98	150	10.34	149	-6.2	87	-8.0	1	0	1001.1	NA	0.0000	-SN BR	9999	2200	0	0	0
2019/10/13 23:27:00	BASE	8.62	149	10.34	149	-6.2	88	-7.9	0	0	1001.0	NA	0.0000	-SN BR	9999	2170	0	0	0
2019/10/13 23:28:00	BASE	8.23	146	10.44	147	-6.2	88	-7.9	0	0	1001.0	NA	0.0000	-SN BR	9999	2070	0	0	0
2019/10/13 23:29:00	BASE	8.51	146	10.44	147	-6.2	88	-7.8	0	0	1001.0	NA	0.0000	-SN BR	9999	2230	0	0	0
2019/10/13 23:30:00	BASE	9.25	145	10.65	146	-6.2	88	-7.8	0	0	1000.9	NA	0.0000	-SN	9999	2070	0	0	0
2019/10/13 23:31:00	BASE	9.85	143	10.65	140	-6.1	89	-7.7	0	0	1000.9	NA	0.0000	-SN	9999	2460	0	0	0
2019/10/13 23:32:00	BASE	9.55	144	10.65	140	-6.1	89	-7.6	0	0	1000.9	NA	0.0000	-SN	9999	2070	0	0	0
2019/10/13 23:33:00	BASE	9.76	149	10.65	150	-6.0	89	-7.6	0	0	1000.9	NA	0.0000	-SN	9999	2070	0	0	0
2019/10/13 23:34:00	BASE	9.89	147	10.65	142	-6.0	89	-7.5	0	0	1000.9	NA	0.0000	-SN	9999	2130	0	0	0
2019/10/13 23:35:00	BASE	9.51	144	10.65	142	-6.0	89	-7.5	0	0	1000.9	NA	0.0000	-SN	9999	2300	0	0	0
2019/10/13 23:36:00	BASE	9.53	145	10.65	150	-5.9	89	-7.5	0	0	1000.8	NA	0.0000	-SN	9999	2100	0	0	0
2019/10/13 23:37:00	BASE	9.26	146	10.65	150	-5.9	89	-7.4	0	0	1000.8	NA	0.0000	-SN	9999	2230	0	0	0
2019/10/13 23:38:00	BASE	8.87	145	10.65	150	-5.9	89	-7.4	0	0	1000.8	NA	0.0000	-SN	9999	2200	0	0	0
2019/10/13 23:39:00	BASE	9.18	143	10.65	150	-5.9	89	-7.4	0	0	1000.8	NA	0.0000		9999	4200	0	0	0
2019/10/13 23:40:00	BASE	8.68	141	10.65	150	-5.8	89	-7.4	0	0	1000.8	NA	0.0000		9999	4300	0	0	0
2019/10/13 23:41:00	BASE	9.04	139	10.70	142	-5.8	89	-7.3	0	0	1000.7	NA	0.0000		9999	4460	0	0	0
2019/10/13 23:42:00	BASE	10.02	140	10.91	138	-5.7	88	-7.3	0	0	1000.7	NA	0.0000		9999	4560	0	0	0
2019/10/13 23:43:00	BASE	10.18	142	11.68	145	-5.6	88	-7.4	0	0	1000.6	NA	0.0000		9999	5540	0	0	0
2019/10/13 23:44:00	BASE	9.31	144	11.68	145	-5.6	87	-7.4	0	0	1000.7	NA	0.0000	-SN	9999	4530	0	0	0
2019/10/13 23:45:00	BASE	8.30	144	11.68	145	-5.6	87	-7.5	0	0	1000.7	NA	0.0000	-SN	9999	5450	0	0	0
2019/10/13 23:46:00	BASE	7.90	151	11.68	145	-5.6	86	-7.6	0	0	1000.6	NA	0.0000	-SN	9999	1150	0	0	0
2019/10/13 23:47:00	BASE	9.01	153	12.14	152	-5.6	86	-7.6	0	0	1000.5	NA	0.0000	-SN	9999	1540	0	0	0
2019/10/13 23:48:00	BASE	10.38	149	12.14	152	-5.6	85	-7.7	0	0	1000.4	NA	0.0000	-SN	9999	2030	0	0	0
2019/10/13 23:49:00	BASE	9.91	151	12.14	152	-5.6	85	-7.7	0	0	1000.4	NA	0.0000	-SN	9999	1050	0	0	0
2019/10/13 23:50:00	BASE	10.05	152	12.14	152	-5.6	85	-7.7	0	0	1000.4	NA	0.0000	-SN	9999	1770	0	0	0
2019/10/13 23:51:00	BASE	10.84	148	12.14	152	-5.6	85	-7.7	0	0	1000.3	NA	0.0000	-SN	9999	1740	0	0	0
2019/10/13 23:52:00	BASE	10.48	147	12.14	152	-5.6	86	-7.7	0	0	1000.3	NA	0.0000	-SN	9999	1640	0	0	0
2019/10/13 23:53:00	BASE	10.42	145	12.24	139	-5.6	86	-7.6	0	0	1000.3	NA	0.0000	-SN	9999	1440	0	0	0
2019/10/13 23:54:00	BASE	11.33	145	13.12	148	-5.6	86	-7.6	0	0	1000.3	NA	0.0000	-SN	9999	1310	0	0	0
2019/10/13 23:55:00	BASE	11.52	150	13.12	148	-5.5	86	-7.5	0	0	1000.3	NA	0.0000	-SN	9999	1310	0	0	0
2019/10/13 23:56:00	BASE	11.19	148	13.12	148	-5.5	86	-7.4	0	0	1000.3	NA	0.0000	-SN	9999	1380	0	0	0
2019/10/13 23:57:00	BASE	11.03	144	13.12	148	-5.5	86	-7.4	0	0	1000.3	NA	0.0000	-SN	9999	1080	0	0	0
2019/10/13 23:58:00	BASE	11.74	145	13.58	144	-5.5	87	-7.3	0	0	1000.2	NA	0.0000	-SN	9999	820	0	0	0
2019/10/13 23:59:00	BASE	12.92	144	14.76	138	-5.5	87	-7.3	0	0	1000.2	NA	0.0000	-SN	9999	1350	0	0	0